[[{"header":{"parameterUnit":"m.s-1","parameterCategory":1,"la1":30.6,"la2":29.2853,"lo1":-89.7004,"lo2":-87.6739,"dy":0.0162,"dx":0.0183,"nx":112,"ny":82,"refTime":"2023-03-08T06:00:00:Z","depth":0,"parameterNumber":2,"parameterNumberName":"U-component_of_WINDS"},"data":[0.0,0.0,0.0,0.0,0.0,0.0,0.0,0.0,0.0,0.0,0.0,0.0,0.0,0.0,0.0,0.0,0.0,0.0,0.0,0.0,0.0,0.0,0.0,0.0,0.0,0.0,0.0,0.0,0.0,0.0,0.0,0.0,0.0,0.0,0.0,0.0,0.0,0.0,0.0,0.0,0.0,0.0,0.0,0.0,0.0,0.0,0.0,0.0,0.0,0.0,0.0,0.0,0.0,0.0,0.0,0.0,0.0,0.0,0.0,0.0,0.0,0.0,0.0,0.0,0.0,0.0,0.0,0.0,0.0,0.0,0.0,0.0,0.0,0.0,0.0,0.0,0.0,0.0,0.0,0.0,0.0,0.0,0.0,0.0,0.0,0.0,0.0,0.0,0.0,0.0,-5.857,-5.9509,-5.9962,-6.0203,-6.0203,-6.0146,-5.9901,-5.9424,0.0,0.0,0.0,0.0,0.0,0.0,0.0,0.0,0.0,0.0,0.0,0.0,0.0,0.0,0.0,0.0,0.0,0.0,0.0,0.0,0.0,0.0,0.0,0.0,0.0,0.0,0.0,0.0,0.0,0.0,0.0,0.0,0.0,0.0,0.0,0.0,0.0,0.0,0.0,0.0,0.0,0.0,0.0,0.0,0.0,0.0,0.0,0.0,0.0,0.0,0.0,0.0,0.0,0.0,0.0,0.0,0.0,0.0,0.0,0.0,0.0,0.0,0.0,0.0,0.0,0.0,0.0,0.0,0.0,0.0,0.0,0.0,0.0,0.0,0.0,0.0,0.0,0.0,0.0,0.0,0.0,0.0,0.0,0.0,0.0,0.0,0.0,0.0,0.0,0.0,0.0,0.0,0.0,0.0,0.0,0.0,0.0,0.0,0.0,0.0,0.0,0.0,0.0,0.0,-5.9543,-6.0495,-6.0647,-6.0671,-6.0671,-6.0324,-5.9901,-5.9424,0.0,0.0,0.0,0.0,0.0,0.0,0.0,0.0,0.0,0.0,0.0,0.0,0.0,0.0,0.0,0.0,0.0,0.0,0.0,0.0,0.0,0.0,0.0,0.0,0.0,0.0,0.0,0.0,0.0,0.0,0.0,0.0,0.0,0.0,0.0,0.0,0.0,0.0,0.0,0.0,0.0,0.0,0.0,0.0,0.0,0.0,0.0,0.0,0.0,0.0,0.0,0.0,0.0,0.0,0.0,0.0,0.0,0.0,0.0,0.0,0.0,0.0,0.0,0.0,0.0,0.0,0.0,0.0,0.0,0.0,0.0,0.0,0.0,0.0,0.0,0.0,0.0,0.0,0.0,0.0,0.0,0.0,0.0,0.0,0.0,0.0,0.0,0.0,0.0,0.0,0.0,0.0,0.0,0.0,0.0,0.0,0.0,0.0,0.0,0.0,0.0,0.0,0.0,-5.8591,-5.9176,-5.9609,-5.9642,-5.9642,-5.9642,-5.9712,-5.9407,-5.8693,-5.9102,0.0,0.0,0.0,0.0,0.0,0.0,0.0,0.0,0.0,0.0,0.0,0.0,0.0,0.0,0.0,0.0,0.0,0.0,0.0,0.0,0.0,0.0,0.0,0.0,0.0,0.0,0.0,0.0,0.0,0.0,0.0,0.0,0.0,0.0,0.0,0.0,0.0,0.0,0.0,0.0,0.0,0.0,0.0,0.0,0.0,0.0,0.0,0.0,0.0,0.0,0.0,0.0,0.0,0.0,0.0,0.0,0.0,0.0,0.0,0.0,0.0,0.0,0.0,0.0,0.0,0.0,0.0,0.0,0.0,0.0,0.0,0.0,0.0,0.0,0.0,0.0,0.0,0.0,0.0,0.0,0.0,0.0,0.0,0.0,0.0,0.0,0.0,0.0,0.0,0.0,0.0,0.0,0.0,0.0,0.0,0.0,0.0,0.0,0.0,0.0,0.0,0.0,-5.8482,-5.8736,-5.8855,-5.8874,-5.8874,-5.8874,-5.9084,-5.8932,-5.8194,-5.8716,0.0,0.0,0.0,0.0,0.0,0.0,0.0,0.0,0.0,0.0,0.0,0.0,0.0,0.0,0.0,0.0,0.0,0.0,0.0,0.0,0.0,0.0,0.0,0.0,0.0,0.0,0.0,0.0,0.0,0.0,0.0,0.0,0.0,0.0,0.0,0.0,0.0,0.0,0.0,0.0,0.0,0.0,0.0,0.0,0.0,0.0,0.0,0.0,0.0,0.0,0.0,0.0,0.0,0.0,0.0,0.0,0.0,0.0,0.0,0.0,0.0,0.0,0.0,0.0,0.0,0.0,0.0,0.0,0.0,0.0,0.0,0.0,0.0,0.0,0.0,0.0,0.0,0.0,0.0,0.0,0.0,0.0,0.0,0.0,0.0,0.0,0.0,0.0,0.0,0.0,0.0,0.0,0.0,0.0,0.0,0.0,0.0,0.0,0.0,0.0,0.0,0.0,-5.8693,-5.8874,-5.9302,-5.9337,-5.9337,-5.9337,-5.899,-5.8696,-5.8652,-5.8304,0.0,0.0,0.0,0.0,0.0,0.0,0.0,0.0,0.0,0.0,0.0,0.0,0.0,0.0,0.0,0.0,0.0,0.0,0.0,0.0,0.0,0.0,0.0,0.0,0.0,0.0,0.0,0.0,0.0,0.0,0.0,0.0,0.0,0.0,0.0,0.0,0.0,0.0,0.0,0.0,0.0,0.0,0.0,0.0,0.0,0.0,0.0,0.0,0.0,0.0,0.0,0.0,0.0,0.0,0.0,0.0,0.0,0.0,0.0,0.0,0.0,0.0,0.0,0.0,0.0,0.0,0.0,0.0,0.0,0.0,0.0,0.0,0.0,0.0,0.0,0.0,0.0,0.0,0.0,0.0,0.0,0.0,0.0,0.0,0.0,0.0,0.0,0.0,0.0,0.0,0.0,0.0,0.0,0.0,0.0,0.0,0.0,0.0,0.0,0.0,0.0,0.0,-5.826,-5.8348,-5.8524,-5.8776,-5.8835,-5.8549,-5.8913,-5.8894,-5.8304,0.0,0.0,0.0,0.0,0.0,0.0,0.0,0.0,0.0,0.0,0.0,0.0,0.0,0.0,0.0,0.0,0.0,0.0,0.0,0.0,0.0,0.0,0.0,0.0,0.0,0.0,0.0,0.0,0.0,0.0,0.0,0.0,0.0,0.0,0.0,0.0,0.0,0.0,0.0,0.0,0.0,0.0,0.0,0.0,0.0,0.0,0.0,0.0,0.0,0.0,0.0,0.0,0.0,0.0,0.0,0.0,0.0,0.0,0.0,0.0,0.0,0.0,0.0,0.0,0.0,0.0,0.0,0.0,0.0,0.0,0.0,0.0,0.0,0.0,0.0,0.0,0.0,0.0,0.0,0.0,0.0,0.0,0.0,0.0,0.0,0.0,0.0,0.0,0.0,0.0,0.0,0.0,0.0,0.0,0.0,0.0,0.0,0.0,0.0,0.0,0.0,0.0,-5.7997,-5.7997,-5.7997,-5.7997,-5.8282,-5.8332,-5.8042,-5.8591,-5.8693,-5.8042,0.0,0.0,0.0,0.0,0.0,0.0,0.0,0.0,0.0,0.0,0.0,0.0,0.0,0.0,0.0,0.0,0.0,0.0,0.0,0.0,0.0,0.0,0.0,0.0,0.0,0.0,0.0,0.0,0.0,0.0,0.0,0.0,0.0,0.0,0.0,0.0,0.0,0.0,0.0,0.0,0.0,0.0,0.0,0.0,0.0,0.0,0.0,0.0,0.0,0.0,0.0,0.0,0.0,0.0,0.0,0.0,0.0,0.0,0.0,0.0,0.0,0.0,0.0,0.0,0.0,0.0,0.0,0.0,0.0,0.0,0.0,0.0,0.0,0.0,0.0,0.0,0.0,0.0,0.0,0.0,0.0,0.0,0.0,0.0,0.0,0.0,0.0,0.0,0.0,0.0,0.0,0.0,0.0,0.0,0.0,0.0,0.0,0.0,0.0,0.0,0.0,0.0,-5.7997,-5.7997,-5.7997,-5.7997,-5.7997,-5.7997,-5.7997,-5.7997,-5.7997,0.0,0.0,0.0,0.0,0.0,0.0,0.0,0.0,0.0,0.0,0.0,0.0,0.0,0.0,0.0,0.0,0.0,0.0,0.0,0.0,0.0,0.0,0.0,0.0,0.0,0.0,0.0,0.0,0.0,0.0,0.0,0.0,0.0,0.0,0.0,0.0,0.0,0.0,0.0,0.0,0.0,0.0,0.0,0.0,0.0,0.0,0.0,0.0,0.0,0.0,0.0,0.0,0.0,0.0,0.0,0.0,0.0,0.0,0.0,0.0,0.0,0.0,0.0,0.0,0.0,0.0,0.0,0.0,0.0,0.0,0.0,0.0,0.0,0.0,0.0,0.0,0.0,0.0,0.0,0.0,0.0,0.0,0.0,0.0,0.0,0.0,0.0,0.0,0.0,0.0,0.0,0.0,0.0,0.0,0.0,0.0,0.0,0.0,0.0,0.0,0.0,0.0,0.0,-5.7997,-5.7997,-5.7997,-5.7997,-5.8304,-5.8354,-5.8042,-5.8304,-5.8332,-5.802,0.0,0.0,0.0,0.0,0.0,0.0,0.0,0.0,0.0,0.0,0.0,0.0,0.0,0.0,0.0,0.0,0.0,0.0,0.0,0.0,0.0,0.0,0.0,0.0,0.0,0.0,0.0,0.0,0.0,0.0,0.0,0.0,0.0,0.0,0.0,0.0,0.0,0.0,0.0,0.0,0.0,0.0,0.0,0.0,0.0,0.0,0.0,0.0,0.0,0.0,0.0,0.0,0.0,0.0,0.0,0.0,0.0,0.0,0.0,0.0,0.0,0.0,0.0,0.0,0.0,0.0,0.0,0.0,0.0,0.0,0.0,0.0,0.0,0.0,0.0,0.0,0.0,0.0,0.0,0.0,0.0,0.0,0.0,0.0,0.0,0.0,0.0,0.0,0.0,0.0,0.0,0.0,0.0,0.0,0.0,0.0,0.0,0.0,0.0,0.0,0.0,0.0,-5.7997,-5.829,-5.8364,-5.8033,-5.8534,-5.8637,-5.8079,-5.826,-5.8304,-5.802,0.0,0.0,0.0,0.0,0.0,0.0,0.0,0.0,0.0,0.0,0.0,0.0,0.0,0.0,0.0,0.0,0.0,0.0,0.0,0.0,0.0,0.0,0.0,0.0,0.0,0.0,0.0,0.0,0.0,0.0,0.0,0.0,0.0,0.0,0.0,0.0,0.0,0.0,0.0,0.0,0.0,0.0,0.0,0.0,0.0,0.0,0.0,0.0,0.0,0.0,0.0,0.0,0.0,0.0,0.0,0.0,0.0,0.0,0.0,0.0,0.0,0.0,0.0,0.0,0.0,0.0,0.0,0.0,0.0,0.0,0.0,0.0,0.0,0.0,0.0,0.0,0.0,0.0,0.0,0.0,0.0,0.0,0.0,0.0,0.0,0.0,0.0,0.0,0.0,0.0,0.0,0.0,0.0,0.0,0.0,0.0,0.0,0.0,0.0,0.0,0.0,0.0,-5.8217,-5.8877,-5.9024,-5.829,-5.8877,-5.8988,-5.818,-5.8107,-5.807,-5.7997,0.0,0.0,0.0,0.0,0.0,0.0,0.0,0.0,0.0,0.0,0.0,0.0,0.0,0.0,0.0,0.0,0.0,0.0,0.0,0.0,0.0,0.0,0.0,0.0,0.0,0.0,0.0,0.0,0.0,0.0,0.0,0.0,0.0,0.0,0.0,0.0,0.0,0.0,0.0,0.0,0.0,0.0,0.0,0.0,0.0,0.0,0.0,0.0,0.0,0.0,0.0,0.0,0.0,0.0,0.0,0.0,0.0,0.0,0.0,0.0,-5.4436,-5.4142,0.0,0.0,0.0,0.0,0.0,0.0,0.0,0.0,0.0,0.0,0.0,0.0,0.0,0.0,0.0,0.0,0.0,0.0,0.0,0.0,0.0,0.0,0.0,0.0,0.0,0.0,0.0,0.0,0.0,0.0,0.0,0.0,0.0,0.0,0.0,0.0,0.0,0.0,0.0,0.0,-5.9795,-6.0052,-6.0089,-5.9905,-6.0052,-5.9832,-5.9001,-5.8927,-5.8694,-5.8033,-5.7997,0.0,0.0,0.0,0.0,0.0,0.0,0.0,0.0,0.0,0.0,0.0,0.0,0.0,0.0,0.0,0.0,0.0,0.0,0.0,0.0,0.0,0.0,0.0,0.0,0.0,0.0,0.0,0.0,0.0,0.0,0.0,0.0,0.0,0.0,0.0,0.0,0.0,0.0,0.0,0.0,0.0,0.0,0.0,0.0,0.0,0.0,0.0,0.0,0.0,0.0,0.0,0.0,0.0,0.0,0.0,0.0,0.0,0.0,0.0,-5.5647,-5.4766,0.0,0.0,0.0,0.0,0.0,0.0,0.0,0.0,0.0,0.0,0.0,0.0,0.0,0.0,0.0,0.0,0.0,0.0,0.0,0.0,0.0,0.0,0.0,0.0,0.0,0.0,0.0,0.0,0.0,0.0,0.0,0.0,0.0,0.0,0.0,0.0,0.0,0.0,0.0,0.0,-6.0346,-6.075,-6.0823,-6.0456,-6.075,-6.0639,-5.9869,-5.9795,-5.9428,-5.8621,-5.8584,0.0,0.0,0.0,0.0,0.0,0.0,0.0,0.0,0.0,0.0,0.0,0.0,0.0,0.0,0.0,0.0,0.0,0.0,0.0,0.0,0.0,0.0,0.0,0.0,0.0,0.0,0.0,0.0,0.0,0.0,0.0,0.0,0.0,0.0,0.0,0.0,0.0,0.0,0.0,0.0,0.0,0.0,0.0,0.0,0.0,0.0,0.0,0.0,0.0,0.0,0.0,0.0,0.0,-5.7813,-5.8217,-5.8217,-5.8364,-5.8767,-5.9294,-5.7299,-5.5978,-5.528,-5.5794,0.0,0.0,0.0,0.0,0.0,0.0,0.0,0.0,0.0,0.0,0.0,0.0,0.0,0.0,0.0,0.0,0.0,0.0,0.0,0.0,0.0,0.0,-5.6418,-5.8033,-5.8437,-5.8437,-5.8437,0.0,0.0,0.0,0.0,0.0,0.0,0.0,0.0,0.0,0.0,0.0,-6.0823,-6.141,-6.1557,-6.0896,-6.141,-6.1484,-6.0676,-6.0603,-6.0272,-5.9441,-5.9258,-5.8891,0.0,0.0,0.0,0.0,0.0,0.0,0.0,0.0,0.0,0.0,0.0,0.0,0.0,0.0,0.0,0.0,0.0,0.0,0.0,0.0,0.0,0.0,0.0,0.0,0.0,0.0,0.0,0.0,0.0,0.0,0.0,0.0,-5.5023,-5.4326,0.0,0.0,0.0,0.0,0.0,0.0,0.0,0.0,0.0,0.0,0.0,0.0,0.0,-5.6492,-5.6492,-5.7373,-5.785,-5.785,-5.8657,-5.9038,-5.9074,-5.9795,-6.0162,-6.0236,-5.9905,0.0,-5.8524,-5.7923,0.0,0.0,0.0,0.0,0.0,0.0,0.0,0.0,0.0,0.0,0.0,0.0,0.0,0.0,0.0,0.0,0.0,0.0,0.0,0.0,0.0,0.0,-5.807,-5.9722,-6.0089,-6.0089,-6.0089,-5.9538,-5.9245,-5.9942,-6.0089,-6.0126,0.0,0.0,0.0,0.0,0.0,0.0,-6.2401,-6.2585,-6.2622,-6.2487,-6.2585,-6.2328,-6.152,-6.1447,-6.108,-6.0309,-5.9588,-5.9148,-5.9038,-5.8364,0.0,0.0,0.0,0.0,0.0,0.0,0.0,0.0,0.0,0.0,0.0,0.0,0.0,0.0,0.0,0.0,0.0,0.0,0.0,0.0,0.0,0.0,0.0,0.0,0.0,0.0,0.0,0.0,0.0,-5.4436,-5.462,-5.3812,-5.4106,-5.4069,0.0,0.0,0.0,0.0,0.0,0.0,0.0,0.0,0.0,-5.6418,-5.7556,-5.8157,-5.8157,-5.9391,-6.0015,-6.0015,-6.086,-6.1202,-6.1239,-6.1594,-6.1777,-6.1777,-6.1777,-6.1557,-6.1129,-5.9869,-5.8877,-5.8157,0.0,0.0,0.0,0.0,-5.7336,-5.6932,-5.6932,-5.6932,-5.6932,-5.6932,0.0,0.0,0.0,0.0,0.0,0.0,0.0,-5.6528,-5.7703,-5.8327,-5.8988,-6.0126,-6.0419,-6.0529,-6.097,-6.0786,-6.0529,-6.0419,-6.0419,-6.0529,-6.1006,-6.108,0.0,0.0,0.0,-6.2401,-6.2743,-6.278,-6.278,-6.278,-6.278,-6.2658,-6.2291,-6.2291,-6.1924,-6.1117,-6.075,-6.0346,-5.9905,-5.9098,-5.8694,0.0,0.0,0.0,0.0,0.0,0.0,0.0,0.0,0.0,0.0,0.0,0.0,0.0,0.0,0.0,0.0,0.0,0.0,0.0,0.0,0.0,0.0,0.0,0.0,0.0,0.0,0.0,0.0,-5.4399,-5.4656,-5.3628,-5.4216,-5.4399,0.0,0.0,0.0,0.0,0.0,0.0,-5.6161,-5.6969,-5.7703,-5.829,-5.9281,-5.9832,-5.9832,-6.1227,-6.1924,-6.1924,-6.2511,-6.278,-6.278,-6.278,-6.278,-6.278,-6.278,-6.278,-6.267,-6.13,-6.0346,-5.9869,-6.0272,-6.0052,-5.9515,-5.9515,-5.9134,-5.8621,-5.8621,-5.8621,-5.8621,-5.8621,-5.8621,-5.8621,-5.8621,0.0,0.0,0.0,0.0,-5.7923,-5.8694,-5.9391,-6.0089,-6.1117,-6.1337,-6.1557,-6.2365,-6.2548,-6.2254,-6.1227,-6.1006,-6.119,-6.1814,-6.1924,0.0,-6.2732,-6.278,-6.278,-6.278,-6.278,-6.278,-6.278,-6.278,-6.278,-6.278,-6.278,-6.2548,-6.1924,-6.1704,-6.1337,-6.075,-5.9942,-5.9404,-5.9184,0.0,0.0,0.0,0.0,0.0,0.0,0.0,0.0,0.0,0.0,0.0,0.0,0.0,0.0,0.0,0.0,0.0,0.0,0.0,0.0,0.0,0.0,0.0,0.0,0.0,0.0,0.0,0.0,0.0,-5.4546,-5.506,0.0,0.0,0.0,0.0,-5.6492,-5.6675,-5.7042,-5.785,-5.8657,-5.9074,-5.9148,-6.0676,-6.1484,-6.1484,-6.2328,-6.2768,-6.2743,-6.278,-6.278,-6.278,-6.278,-6.278,-6.278,-6.278,-6.278,-6.2732,-6.1887,-6.152,-6.141,-6.0676,-6.0382,-6.0346,-6.0346,-6.0309,-6.0272,-6.0272,-6.0272,-6.0272,-6.0272,-6.0272,-6.0272,-6.0272,-6.0272,0.0,0.0,-6.0199,-6.0419,-6.119,-6.1447,-6.1887,-6.3539,-6.3906,-6.4127,-6.4934,-6.5118,-6.464,-6.3,-6.2695,-6.267,-6.2732,0.0,-6.2743,-6.278,-6.278,-6.278,-6.278,-6.278,-6.278,-6.278,-6.278,-6.278,-6.278,-6.278,-6.278,-6.2743,-6.2034,-6.1557,-6.152,-6.0786,-5.9979,-5.9184,-5.9148,0.0,0.0,0.0,0.0,0.0,0.0,0.0,0.0,0.0,0.0,0.0,0.0,0.0,0.0,0.0,0.0,0.0,0.0,0.0,0.0,0.0,0.0,0.0,0.0,0.0,0.0,0.0,0.0,-5.6785,-5.7446,0.0,-5.6785,-5.6712,-5.6969,-5.7519,-5.807,-5.8694,-5.9501,-6.0309,-6.097,-6.1496,-6.2071,-6.2365,-6.2365,-6.2658,-6.278,-6.278,-6.278,-6.278,-6.278,-6.278,-6.278,-6.278,-6.278,-6.278,-6.278,-6.2511,-6.2365,-6.2365,-6.2071,-6.1961,-6.1961,-6.1961,-6.1961,-6.1961,-6.1961,-6.1961,-6.1961,-6.1961,-6.1961,-6.1851,-6.1337,-6.152,-6.1851,-6.1337,-6.1961,-6.2842,-6.3135,-6.3576,-6.4127,-6.4751,-6.4861,-6.4971,-6.5264,-6.5301,-6.5118,-6.453,-6.442,-6.442,-6.442,-6.442,-6.442,-6.442,-6.442,-6.442,-6.442,-6.442,-6.442,-6.442,-6.3943,-6.3649,-6.3649,-6.3135,-6.278,-6.278,-6.2548,-6.2365,-6.2365,-6.1594,-6.1043,-6.075,-5.9735,-5.9038,0.0,0.0,0.0,0.0,0.0,0.0,0.0,0.0,0.0,0.0,0.0,0.0,0.0,0.0,0.0,0.0,0.0,0.0,0.0,0.0,0.0,0.0,0.0,0.0,0.0,-5.774,-5.829,-5.8033,-5.8731,-5.8964,-5.8474,-5.84,-5.8621,-5.9171,-5.9722,-6.0382,-6.119,-6.1704,-6.2254,-6.278,-6.278,-6.278,-6.278,-6.278,-6.278,-6.278,-6.278,-6.278,-6.278,-6.278,-6.278,-6.278,-6.278,-6.278,-6.278,-6.278,-6.278,-6.278,-6.278,-6.278,-6.278,-6.278,-6.278,-6.278,-6.278,-6.278,-6.2879,-6.3135,-6.3246,-6.3209,-6.2915,-6.3209,-6.3539,-6.2989,-6.3649,-6.4494,-6.4494,-6.4897,-6.5375,-6.5632,-6.5705,-6.5778,-6.6035,-6.6109,-6.6109,-6.6109,-6.5668,-6.5301,-6.5301,-6.5301,-6.5301,-6.5301,-6.5301,-6.5301,-6.5301,-6.5301,-6.5301,-6.5301,-6.4824,-6.4383,-6.4127,-6.3576,-6.3135,-6.2817,-6.278,-6.278,-6.278,-6.2291,-6.1887,-6.1594,-6.0309,-5.9478,-5.9184,0.0,0.0,0.0,0.0,0.0,0.0,0.0,0.0,0.0,0.0,0.0,0.0,0.0,0.0,0.0,0.0,0.0,0.0,0.0,0.0,0.0,0.0,0.0,-5.7189,-5.8267,-5.9024,-5.8253,-5.8841,-5.9294,-5.9294,-5.9294,-5.9979,-6.152,-6.163,-6.1998,-6.2768,-6.278,-6.278,-6.278,-6.278,-6.278,-6.278,-6.278,-6.278,-6.2842,-6.2842,-6.2853,-6.2853,-6.2853,-6.2853,-6.2853,-6.2853,-6.2853,-6.2853,-6.2853,-6.2853,-6.2853,-6.2817,-6.278,-6.278,-6.278,-6.2817,-6.2842,-6.2879,-6.2853,-6.3025,-6.387,-6.4127,-6.4273,-6.5081,-6.5338,-6.5338,-6.5338,-6.5375,-6.5375,-6.5375,-6.5375,-6.5595,-6.6366,-6.6549,-6.6733,-6.7504,-6.7687,-6.7687,-6.7687,-6.6439,-6.5375,-6.5375,-6.5375,-6.5375,-6.5375,-6.5375,0.0,-6.5375,-6.5375,-6.5375,-6.5375,-6.5375,-6.5007,-6.4237,-6.4127,-6.3723,-6.289,-6.2842,-6.278,-6.278,-6.278,-6.2438,-6.163,-6.0823,-6.0052,-5.9221,0.0,0.0,0.0,0.0,0.0,0.0,0.0,0.0,0.0,0.0,0.0,0.0,0.0,0.0,0.0,0.0,0.0,0.0,0.0,0.0,0.0,-6.0199,-6.0786,-6.0346,-6.0676,-6.108,-6.1447,-6.1679,-6.1789,-6.1789,-6.1789,-6.1998,-6.2438,-6.2475,-6.2585,-6.278,-6.278,-6.278,-6.278,-6.278,-6.278,-6.278,-6.278,-6.3135,-6.3723,-6.3723,-6.4053,-6.4604,-6.4604,-6.4604,-6.4604,-6.4604,-6.4604,-6.4604,-6.4604,-6.4604,-6.4494,-6.3257,-6.278,-6.278,-6.278,-6.3209,-6.3833,-6.442,-6.4604,-6.4677,-6.4897,-6.4971,-6.5007,-6.5228,-6.5705,-6.6182,-6.6182,-6.6586,-6.7026,-6.7026,-6.7026,-6.71,-6.732,-6.7357,-6.743,-6.7677,-6.7687,-6.7687,-6.7687,-6.732,-6.7026,-6.7026,-6.7026,-6.7026,-6.7026,-6.7026,-6.7026,-6.7026,-6.7026,-6.7026,-6.7026,-6.6512,-6.6072,-6.5852,-6.4751,-6.398,-6.3759,-6.3172,-6.278,-6.278,-6.278,-6.2438,-6.163,-6.1374,-6.086,0.0,0.0,0.0,0.0,0.0,0.0,0.0,0.0,0.0,0.0,0.0,0.0,0.0,0.0,0.0,0.0,0.0,0.0,0.0,0.0,0.0,0.0,-6.0786,-6.1704,-6.2071,-6.2108,-6.2291,-6.2743,-6.278,-6.278,-6.278,-6.278,-6.278,-6.278,-6.278,-6.278,-6.278,-6.278,-6.278,-6.278,-6.3172,-6.3356,-6.3356,-6.3686,-6.4127,-6.4604,-6.4604,-6.4861,-6.5301,-6.5301,-6.5301,-6.5301,-6.5301,-6.5301,-6.5301,-6.5301,-6.5301,-6.5228,0.0,0.0,0.0,0.0,-6.4163,-6.4677,-6.5154,-6.5301,-6.5375,-6.5705,-6.5815,-6.5888,-6.6219,-6.6623,-6.699,-6.699,-6.732,-6.7687,-6.7687,-6.7687,-6.7687,-6.7687,-6.7687,-6.7687,-6.7687,-6.7687,-6.7687,-6.7687,-6.7687,0.0,-6.7687,-6.7687,-6.7687,-6.7687,-6.7687,-6.7687,-6.7687,-6.7687,-6.7687,-6.7687,-6.7283,-6.688,-6.6512,-6.5632,0.0,0.0,0.0,-6.3172,-6.2842,-6.278,0.0,0.0,0.0,-6.1704,-6.0896,-6.0896,0.0,0.0,-5.9024,-5.9024,0.0,0.0,0.0,0.0,0.0,0.0,0.0,0.0,0.0,0.0,0.0,0.0,0.0,0.0,0.0,0.0,-6.1153,-6.1998,-6.267,-6.278,-6.278,-6.278,-6.278,-6.278,-6.278,-6.278,-6.278,-6.278,-6.278,-6.2842,-6.2952,-6.2952,0.0,0.0,0.0,-6.4237,-6.4237,-6.4934,-6.5375,-6.5448,-6.5448,-6.5485,-6.5595,-6.5595,-6.5595,-6.5595,-6.5595,-6.5595,-6.5595,-6.5595,-6.5595,-6.5558,-6.5375,-6.5301,-6.5301,-6.5411,-6.5448,-6.5448,-6.5558,0.0,0.0,-6.6402,-6.6623,-6.6769,-6.7467,-6.7687,-6.7687,-6.7687,-6.7687,-6.7687,-6.7687,-6.7687,-6.7687,-6.7687,-6.7687,-6.7687,-6.7687,-6.7687,-6.7687,-6.7687,-6.7687,-6.7687,-6.7687,-6.7687,-6.7687,-6.7687,-6.7687,-6.7687,-6.7687,-6.7687,-6.7687,-6.7687,-6.7687,0.0,-6.6696,-6.6549,-6.6219,-6.5485,-6.4604,-6.3759,-6.2989,-6.2853,-6.278,-6.278,-6.278,-6.2438,-6.1741,-6.1741,-6.1374,-6.0676,-6.0493,-6.0419,0.0,0.0,0.0,0.0,0.0,0.0,0.0,0.0,0.0,0.0,0.0,0.0,0.0,0.0,0.0,-6.0382,-6.163,-6.2622,-6.278,-6.278,-6.278,-6.278,-6.278,-6.278,-6.278,-6.278,-6.278,-6.278,-6.278,-6.3099,-6.3796,-6.3833,-6.4163,-6.4824,-6.5007,-6.5081,-6.5081,-6.5228,-6.5632,-6.6256,-6.6256,0.0,-6.7247,-6.7247,-6.7247,-6.7247,-6.7247,-6.7247,-6.7247,-6.7247,-6.7247,-6.71,-6.5815,-6.5301,-6.5375,-6.6035,-6.6256,-6.6366,-6.699,-6.7247,-6.7247,-6.7393,-6.7467,-6.7504,-6.7677,-6.7687,0.0,-6.7687,-6.7687,-6.7687,-6.7687,-6.7687,-6.7687,-6.7687,-6.7687,-6.7687,-6.7687,-6.7687,-6.7687,-6.7687,-6.7687,-6.7687,-6.7687,-6.7687,-6.7687,-6.7687,-6.7687,-6.7687,-6.7687,-6.7687,-6.7687,-6.7687,-6.7687,-6.7614,-6.7467,-6.688,-6.6439,-6.6292,-6.4897,-6.4016,-6.387,-6.3172,-6.278,-6.278,-6.278,-6.2707,-6.2585,-6.2585,-6.2511,-6.2328,-6.1006,-6.0419,0.0,0.0,0.0,0.0,0.0,0.0,0.0,0.0,0.0,0.0,0.0,-5.9208,-5.9208,0.0,-6.1006,-6.1006,-6.2034,-6.278,-6.278,-6.3172,-6.3282,-6.2853,-6.278,-6.2989,-6.3429,-6.3466,-6.3613,-6.4016,-6.4053,-6.4237,-6.4677,-6.4714,-6.4897,-6.5301,-6.5705,-6.5888,-6.5888,-6.6292,-6.6696,-6.71,-6.71,-6.7283,-6.7687,-6.7687,-6.7687,-6.7687,-6.7687,-6.7687,-6.7687,-6.7687,-6.7687,-6.7614,-6.6806,-6.6512,-6.6549,-6.6953,-6.71,-6.7136,-6.754,-6.7687,-6.7687,-6.7687,-6.7687,-6.7687,-6.7687,-6.7687,-6.7687,-6.7687,-6.7687,-6.7797,-6.8201,-6.8311,-6.8385,-6.8788,-6.8898,-6.8898,-6.8898,-6.8568,-6.8311,-6.8311,-6.7981,-6.7687,-6.7687,-6.7687,-6.7687,-6.7687,-6.7687,-6.7687,-6.7687,-6.7687,-6.7687,-6.7687,-6.7687,-6.7687,-6.7687,-6.732,-6.6916,-6.6512,-6.5742,-6.4934,-6.4127,-6.3686,-6.3246,-6.278,-6.278,-6.278,-6.278,-6.278,-6.278,-6.278,-6.1998,-6.1594,0.0,0.0,0.0,0.0,0.0,0.0,0.0,0.0,-5.9625,-6.0272,-6.0419,-6.0419,-6.0419,-6.1043,-6.1594,-6.1594,-6.2438,-6.3062,-6.3062,-6.3796,-6.4053,-6.3392,-6.3319,-6.3576,-6.4273,-6.431,-6.4604,-6.5264,-6.5301,-6.5375,-6.5521,-6.5521,-6.5595,-6.5778,-6.6402,-6.6733,-6.6733,-6.7357,-6.7687,-6.7687,-6.7687,-6.7687,-6.7687,-6.7687,-6.7687,-6.7687,-6.7687,-6.7687,-6.7687,-6.7687,-6.7687,-6.7687,-6.7687,-6.7687,-6.7687,-6.7687,-6.7687,-6.7687,-6.7687,-6.7687,-6.7687,-6.7687,-6.7687,-6.7687,-6.7687,-6.7797,-6.7907,-6.7907,-6.8054,-6.8311,-6.8972,-6.9119,-6.9302,-6.9963,-7.011,-7.011,-7.011,-6.9596,-6.9082,-6.8935,-6.8385,-6.7871,-6.7724,-6.7687,-6.7687,-6.7687,-6.7687,-6.7687,-6.7687,-6.7687,-6.7687,-6.7687,-6.7687,-6.7687,-6.7687,-6.7687,-6.7393,-6.6769,-6.6586,-6.5925,-6.4604,-6.442,-6.3943,-6.3062,-6.3062,-6.2989,-6.278,-6.278,-6.278,-6.278,-6.278,-6.278,-5.8033,-5.8657,-5.9294,-5.9221,-5.9758,-6.0272,0.0,0.0,-6.0309,-6.0382,-6.0419,-6.0419,-6.0419,-6.1043,-6.1594,-6.1594,-6.2915,-6.3943,-6.3943,-6.464,-6.5154,-6.5044,-6.5044,-6.5081,-6.5154,-6.5191,-6.5191,-6.5301,-6.5301,-6.5632,-6.6329,-6.6366,-6.6696,-6.7393,-6.7504,-6.7577,-6.7577,-6.765,-6.7687,-6.7687,-6.7687,-6.7687,-6.7687,-6.7687,-6.7687,-6.7687,-6.7687,-6.7687,-6.7687,-6.7687,-6.7687,-6.7687,-6.7687,-6.7687,-6.7687,-6.7687,-6.7687,-6.7687,-6.7687,-6.7687,-6.7687,-6.7687,-6.7687,-6.7687,-6.7687,-6.8201,-6.8788,-6.8788,-6.9265,-6.9853,-6.9926,-6.9963,-7.0,-7.0073,-7.011,-7.011,-7.011,-7.0036,-6.9743,-6.9045,-6.8825,-6.8531,-6.7797,-6.7687,-6.7687,-6.7687,-6.7687,-6.7687,-6.7687,-6.7687,-6.7687,-6.7687,-6.7687,-6.7687,-6.7687,-6.7687,-6.765,-6.7577,-6.688,-6.6402,-6.6219,-6.5558,-6.4787,-6.398,-6.3943,-6.3576,-6.278,-6.278,-6.278,-6.278,-6.278,-6.278,-5.9979,-6.0015,-6.0015,0.0,-6.086,-6.108,-6.108,-6.108,-6.1227,-6.1704,-6.1814,-6.1814,-6.1814,-6.2475,-6.3025,0.0,-6.4053,-6.4787,-6.4787,-6.5485,-6.5999,-6.5999,-6.6402,-6.6512,-6.6035,-6.5999,-6.6182,-6.6659,-6.6696,-6.6843,-6.7173,-6.7173,-6.7357,-6.7687,-6.7687,-6.7687,-6.7687,-6.7687,-6.7687,-6.7687,-6.7687,-6.7687,-6.7687,-6.7687,-6.7687,-6.7687,-6.7687,-6.7687,-6.7687,-6.7687,-6.7687,-6.7687,-6.7687,-6.7687,-6.7687,-6.7687,-6.7687,-6.7687,-6.7687,-6.7687,-6.7687,-6.7687,-6.8017,-6.8385,-6.8385,-6.8972,-6.9596,-6.9596,-6.9853,-7.022,-7.0697,-7.0807,-7.0917,-7.1394,-7.1505,-7.1505,-7.1505,-7.1138,-7.0697,-7.0367,-6.9559,-6.8788,-6.8458,-6.8017,-6.7687,-6.7687,-6.7687,-6.7687,-6.7687,-6.7687,-6.7687,-6.7687,-6.7687,-6.7687,-6.7687,-6.7687,-6.7687,-6.7687,-6.7357,-6.699,-6.6512,-6.6182,-6.5632,-6.4824,-6.4787,-6.4383,-6.3576,-6.3576,-6.3319,-6.278,-6.278,-6.278,-6.0713,0.0,0.0,-6.141,-6.1777,-6.1924,-6.1924,-6.1924,-6.2108,-6.2695,-6.2989,-6.3172,-6.3172,-6.387,-6.442,-6.442,-6.5118,-6.5632,-6.5632,-6.6329,-6.6843,-6.6843,-6.7357,-6.7467,-6.688,-6.6843,-6.7063,-6.765,-6.7687,-6.7687,-6.7687,-6.7687,-6.7687,-6.7687,-6.7687,-6.7687,-6.7687,-6.7687,-6.7687,-6.7687,-6.7687,-6.7687,-6.7687,-6.7687,-6.7687,-6.7687,-6.7687,-6.7687,-6.7687,-6.7687,-6.7687,-6.7687,-6.7687,-6.7687,-6.7724,-6.7944,-6.7871,-6.7724,-6.7944,-6.8017,-6.8054,-6.8274,-6.8752,-6.9229,-6.9229,-6.9779,-7.044,-7.044,-7.0587,-7.0881,-7.1505,-7.1651,-7.1798,-7.2349,-7.2496,-7.2496,-7.2496,-7.2055,-7.1578,-7.1329,-7.0367,-6.9412,-6.8972,-6.8421,-6.7944,-6.7724,-6.7687,-6.7687,-6.7687,-6.7687,-6.7687,-6.7687,-6.7687,-6.7687,-6.7687,-6.7687,-6.7687,-6.7687,-6.7687,-6.743,-6.6843,-6.6843,-6.6439,-6.5668,-6.5632,-6.5228,-6.442,-6.42,-6.3759,-6.3172,-6.2915,-6.278,0.0,0.0,-6.0603,-6.141,-6.2181,-6.2768,-6.2768,-6.2768,-6.2743,-6.278,-6.3466,-6.4053,-6.4053,-6.4714,-6.5264,-6.5264,-6.5925,-6.6476,-6.6476,-6.7136,-6.765,-6.765,-6.7687,-6.7687,0.0,-6.765,-6.765,-6.7687,-6.7687,-6.7687,-6.7687,-6.7687,-6.7687,-6.7687,-6.7687,-6.7687,-6.7687,-6.7687,-6.7687,-6.7687,-6.7687,-6.7687,-6.7687,-6.7687,-6.7687,-6.7687,-6.7687,-6.7687,-6.7687,-6.7687,-6.7687,-6.7687,-6.7687,-6.7687,-6.7797,-6.8568,-6.8385,-6.7797,-6.8605,-6.8862,-6.9009,-6.9779,-7.0036,-7.0073,-7.0073,-7.0624,-7.1284,-7.1284,-7.1835,-7.2422,-7.2459,-7.2459,-7.2459,-7.2496,-7.2496,-7.2496,-7.2496,-7.2496,-7.2239,-7.1439,-7.1256,-7.0706,-6.9192,-6.8898,-6.8605,-6.7797,-6.7687,-6.7687,-6.7687,-6.7687,-6.7687,-6.7687,-6.7687,-6.7687,-6.7687,-6.7687,-6.7687,-6.7687,-6.7687,-6.7687,-6.765,-6.765,-6.7283,-6.6476,-6.6476,-6.6072,-6.5264,-6.4494,-6.409,-6.4016,-6.3209,-6.278,0.0,0.0,-6.1374,-6.2218,-6.2622,-6.278,-6.278,-6.3246,-6.3649,-6.3649,-6.3906,-6.409,-6.409,-6.4751,-6.5301,-6.5301,-6.6402,-6.7283,-6.7283,-6.7504,-6.7687,-6.7687,-6.7687,0.0,0.0,0.0,0.0,-6.7687,-6.7687,-6.7687,-6.7687,-6.7687,-6.7687,-6.7687,-6.7687,-6.7687,-6.7687,-6.7687,-6.7687,-6.7687,-6.7687,-6.7687,-6.7687,-6.7687,-6.7687,-6.7687,-6.7687,-6.7687,-6.7724,-6.8274,-6.8495,-6.8568,-6.9082,-6.9265,-6.9339,-6.9596,-6.9522,-6.9339,-6.9596,-6.9706,-6.9743,-7.0,-7.0477,-7.0917,-7.0917,-7.1468,-7.2092,-7.2092,-7.2312,-7.2496,-7.2496,-7.2496,-7.2496,-7.2496,-7.2496,-7.2496,-7.2496,-7.2496,-7.2422,-7.2165,-7.1688,-7.1109,-7.0587,-6.9633,-6.8641,-6.7797,-6.7687,-6.7687,-6.7687,-6.7687,-6.7687,-6.7687,-6.7687,-6.7687,-6.7687,-6.7687,-6.7687,-6.7687,-6.7687,-6.7687,-6.7687,-6.7687,-6.7577,-6.7283,-6.7283,-6.688,-6.6109,-6.5815,-6.5411,-6.4897,-6.4053,-6.3649,0.0,-6.119,-6.1777,-6.2622,-6.278,-6.2853,-6.3209,-6.3686,-6.4163,-6.4457,-6.453,-6.453,-6.453,-6.4971,-6.5301,-6.5301,-6.6182,-6.6953,-6.721,-6.7247,-6.7357,-6.765,-6.7687,-6.7687,0.0,0.0,0.0,-6.7687,-6.7687,-6.7687,-6.7687,-6.7687,-6.7687,-6.7687,-6.7687,-6.7687,-6.7687,-6.7687,-6.7834,-6.8128,-6.8421,-6.8531,-6.8531,-6.8531,-6.8531,-6.8531,-6.8531,-6.8531,-6.8605,-6.9119,-6.9339,-6.9376,-6.9889,-7.011,-7.011,-7.0403,-7.055,-7.055,-7.055,-7.055,-7.0587,-7.0844,-7.1321,-7.1725,-7.1725,-7.2092,-7.2496,-7.2496,-7.2496,-7.2496,-7.2496,-7.2496,-7.2496,-7.2496,-7.2496,-7.2496,-7.2496,-7.2496,-7.2496,-7.2496,-7.2092,-7.1651,-7.1329,-6.9963,-6.8641,-6.7797,-6.7687,-6.7687,-6.7687,-6.7687,-6.7687,-6.7687,-6.7687,-6.7687,-6.7687,-6.7687,-6.7687,-6.7687,-6.7687,-6.7687,-6.7687,-6.7687,-6.7687,-6.7687,-6.7687,-6.743,-6.6916,-6.6623,-6.6219,-6.5705,-6.4897,-6.4347,-6.119,-6.163,-6.1851,-6.2622,-6.2817,-6.3099,-6.3906,-6.4163,-6.442,-6.5154,-6.5301,-6.5301,0.0,0.0,-6.5301,-6.5301,-6.5375,-6.5705,-6.6439,-6.6549,-6.6843,0.0,0.0,0.0,0.0,0.0,0.0,-6.7787,-6.7724,-6.7687,-6.7687,-6.7724,-6.776,-6.776,-6.7797,-6.7797,-6.7797,-6.7797,-6.8201,-6.8972,-6.9743,-7.011,-7.011,-7.011,-7.011,-7.011,-7.011,-7.011,-7.011,-7.0146,-7.0146,-7.0183,-7.022,-7.022,-7.033,-7.1101,-7.1329,-7.1329,-7.1329,-7.1329,-7.1505,-7.2275,-7.2496,-7.2496,-7.2496,-7.2496,-7.2496,-7.2496,-7.2496,-7.2496,-7.2496,-7.2496,-7.2496,-7.2496,-7.2496,-7.2496,-7.2496,-7.2496,-7.2496,-7.2496,-7.2496,-7.2239,-7.1394,-6.9963,-6.8678,-6.7834,-6.7687,-6.7687,-6.7687,-6.7687,-6.7687,-6.7687,-6.7687,-6.7687,-6.7687,-6.7687,-6.7687,-6.7687,-6.7687,-6.7687,-6.7687,-6.7687,-6.7687,-6.7687,-6.7687,-6.7687,-6.7687,-6.6916,-6.6549,-6.6549,-6.5742,-6.4934,-6.1484,-6.2034,-6.2548,-6.2743,-6.3282,-6.3833,-6.4053,-6.5007,-6.5778,-6.5375,-6.5301,-6.5118,0.0,0.0,0.0,-6.5301,-6.6329,0.0,-6.7357,-6.7393,0.0,-6.7677,0.0,-6.7687,-6.7687,-6.7687,0.0,-6.8568,-6.8017,-6.7687,-6.7687,-6.8274,-6.8605,-6.8605,-6.9192,-6.9486,-6.9486,-6.9486,-6.9596,-6.9816,-7.0,-7.011,-7.011,-7.011,-7.011,-7.011,-7.011,-7.011,-7.0146,-7.077,-7.0991,-7.1064,-7.1651,-7.1908,-7.1908,-7.2129,-7.2202,-7.2202,-7.2202,-7.2202,-7.2239,-7.2422,-7.2496,-7.2496,-7.2496,-7.2496,-7.2496,-7.2496,-7.2496,-7.2496,-7.2496,-7.2496,-7.2496,-7.2496,-7.2496,-7.2496,-7.2496,-7.2496,-7.2496,-7.2496,-7.2496,-7.2055,-7.066,-7.0073,-6.9302,-6.7907,-6.7687,-6.7687,-6.7687,-6.7687,-6.7687,-6.7687,-6.7687,-6.7687,-6.7687,-6.7687,-6.7687,-6.7687,-6.7687,-6.7687,-6.7687,-6.7687,-6.7687,-6.7687,-6.7687,-6.7687,-6.7687,-6.7467,-6.7393,-6.7357,-6.6549,-6.5778,-6.2034,-6.2475,-6.289,-6.3282,-6.3723,-6.42,-6.453,-6.5338,-6.5852,-6.5411,-6.5007,-6.464,-6.4163,-6.4457,0.0,0.0,0.0,0.0,-6.71,-6.7173,-6.7283,0.0,-6.8017,0.0,-6.8238,-6.8531,-6.8935,-6.9376,-6.8678,-6.8385,-6.8715,-6.9192,-6.9449,-6.9449,-6.9853,-7.011,-7.011,-7.044,-7.0624,-7.0624,-7.0991,-7.1138,-7.1138,-7.1138,-7.1138,-7.1138,-7.1138,-7.1138,-7.1174,-7.1651,-7.1835,-7.1872,-7.2312,-7.2496,-7.2496,-7.2496,-7.2496,-7.2496,-7.2496,-7.2496,-7.2496,-7.2496,-7.2496,-7.2496,-7.2496,-7.2496,-7.2496,-7.2496,-7.2496,-7.2496,-7.2496,-7.2496,-7.2496,-7.2496,-7.2496,-7.2496,-7.2496,-7.2496,-7.2496,-7.2496,-7.2496,-7.2092,-7.0844,-7.033,-6.9669,-6.8421,-6.7907,-6.7687,-6.7687,-6.7687,-6.7687,-6.7687,-6.7687,-6.7687,-6.7687,-6.7687,-6.7687,-6.7687,-6.7687,-6.7687,-6.7687,-6.7687,-6.7687,-6.7687,-6.7687,-6.7687,-6.7687,-6.7687,-6.7687,-6.7687,-6.7247,-6.6402,-6.2622,-6.2853,-6.3172,-6.3906,-6.4237,-6.4567,-6.5191,-6.5375,-6.5411,-6.5191,-6.4604,-6.4053,-6.3943,-6.4016,-6.4127,-6.4237,0.0,-6.5778,-6.6696,-6.6806,-6.71,-6.7907,-6.8641,-6.9082,-6.9082,-6.9706,-7.0146,-7.0257,-6.9633,-6.9486,-7.0073,-7.0183,-7.0293,-7.0403,-7.0403,-7.0403,-7.0403,-7.1101,-7.1468,-7.1439,-7.2165,-7.2496,-7.2496,-7.2496,-7.2496,-7.2496,-7.2496,-7.2496,-7.2496,-7.2496,-7.2496,-7.2496,-7.2496,-7.2496,-7.2496,-7.2496,-7.2496,-7.2496,-7.2496,-7.2496,-7.2496,-7.2496,-7.2496,-7.2496,-7.2496,-7.2496,-7.2496,-7.2496,-7.2496,-7.2496,-7.2496,-7.2496,-7.2496,-7.2496,-7.2496,-7.2496,-7.2496,-7.2496,-7.2496,-7.2496,-7.2496,-7.2239,-7.1439,-7.0624,-6.9816,-6.9009,-6.8201,-6.7687,-6.7687,-6.7687,-6.7687,-6.7687,-6.7687,-6.7687,-6.7687,-6.7687,-6.7687,-6.7687,-6.7687,-6.7687,-6.7687,-6.7687,-6.7687,-6.7687,-6.7687,-6.7687,-6.7687,-6.7687,-6.7687,-6.7687,-6.7687,-6.6843,-6.2768,-6.3319,-6.3906,-6.4053,-6.5081,-6.5962,-6.5411,-6.5815,0.0,0.0,-6.42,-6.387,-6.3172,-6.3613,-6.431,-6.4971,-6.5778,-6.6806,-6.8274,-6.8495,-6.8788,0.0,-6.9816,-6.9889,-6.9889,-7.0,0.0,0.0,-7.0991,-7.066,-7.011,-7.0734,-7.1394,-7.2055,-7.2092,-7.2092,-7.2092,-7.2239,-7.2312,-7.2312,-7.2422,-7.2496,-7.2496,-7.2496,-7.2496,-7.2496,-7.2496,-7.2496,-7.2496,-7.2496,-7.2496,-7.2496,-7.2496,-7.2496,-7.2496,-7.2496,-7.2496,-7.2496,-7.2496,-7.2496,-7.2496,-7.2496,-7.2496,-7.2496,-7.2496,-7.2496,-7.2496,-7.2496,-7.2496,-7.2496,-7.2496,-7.2496,-7.2496,-7.2496,-7.2496,-7.2496,-7.2496,-7.2496,-7.2496,-7.2496,-7.2496,-7.2239,-7.1439,-7.0624,-6.9816,-6.9009,-6.8201,-6.7687,-6.7687,-6.7687,-6.7687,-6.7687,-6.7687,-6.7687,-6.7687,-6.7687,-6.7687,-6.7687,-6.7687,-6.7687,-6.7687,-6.7687,-6.7687,-6.7687,-6.7687,-6.7687,-6.7687,-6.7687,-6.7687,-6.7687,-6.7687,-6.6843,-6.3356,-6.3759,-6.431,-6.5118,-6.5925,-6.6292,-6.5485,0.0,0.0,0.0,-6.3429,-6.3319,-6.2879,-6.3503,0.0,-6.4604,-6.5705,-6.6916,-6.8091,-6.8641,0.0,-7.0,-7.0477,-7.0734,-7.0734,-7.1101,-7.1505,-7.1908,-7.1945,-7.1762,-7.1358,-7.1725,-7.2092,-7.2496,-7.2496,-7.2496,-7.2496,-7.2496,-7.2496,-7.2496,-7.2496,-7.2496,-7.2496,-7.2496,-7.2496,-7.2496,-7.2496,-7.2496,-7.2496,-7.2496,-7.2496,-7.2496,-7.2496,-7.2496,-7.2496,-7.2496,-7.2496,-7.2496,-7.2496,-7.2496,-7.2496,-7.2496,-7.2496,-7.2496,-7.2496,-7.2496,-7.2496,-7.2496,-7.2496,-7.2496,-7.2496,-7.2496,-7.2496,-7.2496,-7.2496,-7.2496,-7.2496,-7.2496,-7.2496,-7.2496,-7.2496,-7.2386,-7.1982,-7.0917,-6.9963,-6.9596,-6.8458,-6.7687,-6.7687,-6.7687,-6.7687,-6.7687,-6.7687,-6.7687,-6.7687,-6.7687,-6.7687,-6.7687,-6.7687,-6.7836,-6.8097,-6.8123,-6.8123,-6.8123,-6.8123,-6.7982,-6.7687,-6.7687,-6.7687,-6.7687,-6.7687,-6.6843,-6.387,-6.4347,-6.4897,-6.6182,-6.6623,-6.6512,-6.5521,-6.5301,0.0,-6.3172,-6.278,-6.278,-6.278,-6.3356,-6.387,0.0,-6.5301,-6.6623,-6.7797,-6.8641,-6.9522,0.0,-7.1174,0.0,-7.155,-7.2129,0.0,-7.2496,-7.2496,-7.2496,-7.2496,-7.2496,-7.2496,-7.2496,-7.2496,-7.2496,-7.2496,-7.2496,-7.2496,-7.2496,-7.2496,-7.2496,-7.2496,-7.2496,-7.2496,-7.2496,-7.2496,-7.2496,-7.2496,-7.2496,-7.2496,-7.2496,-7.2496,-7.2496,-7.2496,-7.2496,-7.2496,-7.2496,-7.2496,-7.2496,-7.2496,-7.2496,-7.2496,-7.2496,-7.2496,-7.2496,-7.2496,-7.2496,-7.2496,-7.2496,-7.2496,-7.2496,-7.2496,-7.2496,-7.2496,-7.2496,-7.2496,-7.2496,-7.2496,-7.2496,-7.2496,-7.2459,-7.2275,-7.1064,-7.0036,-6.9853,-6.8605,-6.7687,-6.7687,-6.7687,-6.7687,-6.7687,-6.7687,-6.7687,-6.7687,-6.7687,-6.7687,-6.7687,-6.7687,-6.7878,-6.8333,-6.844,-6.844,-6.832,-6.8544,-6.8392,-6.7889,-6.8007,-6.7982,-6.7889,-6.7889,-6.6964,-6.387,-6.5154,-6.6292,-6.6476,-6.7026,-6.7173,-6.5668,0.0,-6.4824,-6.3172,-6.278,-6.278,-6.278,-6.2879,-6.3172,-6.398,0.0,-6.6219,0.0,0.0,0.0,0.0,0.0,0.0,-7.2386,-7.2459,-7.2496,-7.2496,-7.2496,-7.2496,-7.2496,-7.2496,-7.2496,-7.2496,-7.2496,-7.2496,-7.2496,-7.2496,-7.2496,-7.2496,-7.2496,-7.2496,-7.2496,-7.2496,-7.2496,-7.2496,-7.2496,-7.2496,-7.2496,-7.2496,-7.2496,-7.2496,-7.2496,-7.2496,-7.2496,-7.2496,-7.2496,-7.2496,-7.2496,-7.2496,-7.2496,-7.2496,-7.2496,-7.2496,-7.2496,-7.2496,-7.2496,-7.2496,-7.2496,-7.2496,-7.2496,-7.2496,-7.2496,-7.2496,-7.2496,-7.2496,-7.2496,-7.2496,-7.2496,-7.2496,-7.2496,-7.2275,-7.1541,-7.0697,-6.9853,-6.9119,-6.8238,-6.7687,-6.7687,-6.7687,-6.7687,-6.7687,-6.7687,-6.7687,-6.7687,-6.7687,-6.7687,-6.7687,-6.7687,-6.7741,-6.7757,-6.8235,-6.8284,-6.7784,-6.8728,-6.8956,-6.8416,-6.8913,-6.8891,-6.8416,-6.8416,-6.7284,-6.5044,-6.5999,-6.6623,-6.71,-6.71,-6.6659,-6.5558,0.0,-6.4237,-6.3062,-6.278,-6.278,-6.278,-6.278,-6.2915,-6.3282,0.0,0.0,-6.7173,0.0,0.0,0.0,-7.1798,0.0,0.0,0.0,-7.2658,-7.3024,-7.3013,-7.3198,-7.3566,-7.325,-7.2899,-7.2496,-7.2871,-7.2871,-7.2496,-7.2496,-7.2496,-7.2496,-7.2496,-7.2496,-7.2496,-7.2496,-7.2496,-7.2496,-7.2496,-7.2496,-7.2496,-7.2496,-7.2496,-7.2496,-7.2496,-7.2496,-7.2496,-7.2496,-7.2496,-7.2496,-7.2496,-7.2496,-7.2496,-7.2496,-7.2496,-7.2496,-7.2496,-7.2496,-7.2496,-7.2496,-7.2496,-7.2496,-7.2496,-7.2496,-7.2496,-7.2496,-7.2496,-7.2496,-7.2496,-7.2496,-7.2496,-7.2496,-7.2496,-7.2239,-7.1439,-7.0624,-6.9816,-6.9009,-6.8201,-6.7687,-6.7687,-6.7687,-6.7687,-6.7687,-6.7687,-6.7687,-6.7687,-6.7687,-6.7687,-6.7687,-6.7687,-6.7863,-6.8161,-6.8368,-6.8521,-6.866,-6.8773,-6.8847,-6.8978,-6.8847,-6.8705,-6.8511,-6.884,-6.7808,-6.5558,-6.6476,-6.699,-6.754,-6.71,-6.6292,0.0,0.0,-6.3833,-6.2989,-6.278,-6.278,-6.278,-6.278,-6.278,-6.278,0.0,-6.4567,-6.5962,0.0,0.0,0.0,0.0,-7.1284,-7.2092,-7.2511,-7.3024,-7.3602,-7.3651,-7.3934,-7.4527,-7.4124,-7.3553,-7.2789,-7.3198,-7.3093,-7.2496,-7.2496,-7.2496,-7.2496,-7.2496,-7.2496,-7.2496,-7.2496,-7.2496,-7.2496,-7.2496,-7.2496,-7.2496,-7.2496,-7.2496,-7.2496,-7.2496,-7.2496,-7.2496,-7.2496,-7.2496,-7.2496,-7.2496,-7.2496,-7.2496,-7.2496,-7.2496,-7.2496,-7.2496,-7.2496,-7.2496,-7.2496,-7.2496,-7.2496,-7.2496,-7.2496,-7.2496,-7.2496,-7.2496,-7.2496,-7.2496,-7.2496,-7.2496,-7.2496,-7.2496,-7.2165,-7.1138,-7.0477,-6.9743,-6.8715,-6.8054,-6.7687,-6.7687,-6.7687,-6.7687,-6.7687,-6.7687,-6.7687,-6.7687,-6.7687,-6.7687,-6.7687,-6.7687,-6.7889,-6.8235,-6.8416,-6.8682,-6.9064,-6.8999,-6.9169,-6.955,-6.9333,-6.9042,-6.875,-6.9028,-6.7889,-6.4861,-6.6476,-6.7687,-6.7687,-6.71,-6.6292,0.0,0.0,-6.3833,-6.2989,-6.278,-6.278,-6.278,-6.278,-6.278,-6.278,-6.3539,0.0,-6.5191,-6.6696,0.0,0.0,0.0,-7.044,-7.1219,-7.2569,-7.3626,-7.4249,-7.4293,-7.4547,-7.5073,-7.5091,-7.4571,-7.3442,-7.3391,-7.3093,-7.2496,-7.2496,-7.2496,-7.2496,-7.2496,-7.2496,-7.2496,-7.2496,-7.2496,-7.2496,-7.2496,-7.2496,-7.2496,-7.2496,-7.2496,-7.2496,-7.2496,-7.2496,-7.2496,-7.2496,-7.2496,-7.2496,-7.2496,-7.2496,-7.2496,-7.2496,-7.2496,-7.2496,-7.2496,-7.2496,-7.2496,-7.2496,-7.2496,-7.2496,-7.2496,-7.2496,-7.2496,-7.2496,-7.2496,-7.2496,-7.2496,-7.2496,-7.2496,-7.2496,-7.2496,-7.1982,-7.0403,-7.011,-6.9559,-6.7944,-6.7714,-6.7687,-6.7687,-6.7687,-6.7687,-6.7687,-6.7687,-6.7687,-6.7687,-6.7687,-6.7687,-6.7687,-6.7687,-6.7714,-6.7714,-6.821,-6.8511,-6.8511,-6.9569,-7.0095,-7.0095,-7.0622,-7.0314,-6.9275,-6.8937,-6.7373,-6.4835,-6.5668,-6.6072,-6.6072,-6.5448,-6.4787,-6.453,0.0,-6.3135,-6.2853,-6.278,-6.278,-6.278,-6.278,-6.278,-6.278,-6.3025,0.0,0.0,0.0,0.0,-6.8678,-7.0587,-7.1996,0.0,0.0,-7.378,-7.4751,-7.4866,-7.5111,-7.5686,-7.5718,-7.5183,-7.4049,-7.4363,-7.4101,-7.3119,-7.3119,-7.2889,-7.2496,-7.2496,-7.2496,-7.2496,-7.2496,-7.2496,-7.2496,-7.2496,-7.2496,-7.2496,-7.2496,-7.2496,-7.2496,-7.2496,-7.2496,-7.2496,-7.2496,-7.2496,-7.2496,-7.2496,-7.2496,-7.2496,-7.2496,-7.2496,-7.2496,-7.2496,-7.2496,-7.2496,-7.2496,-7.2496,-7.2496,-7.2496,-7.2496,-7.2496,-7.2496,-7.2496,-7.2496,-7.2496,-7.2496,-7.2496,-7.2496,-7.2496,-7.1982,-7.0367,-7.011,-6.9559,-6.7944,-6.7687,-6.7687,-6.7687,-6.7687,-6.7687,-6.7687,-6.7687,-6.7687,-6.7687,-6.7687,-6.7687,-6.7687,-6.7687,-6.7687,-6.7687,-6.7863,-6.8308,-6.9021,-6.866,-6.919,-7.0652,-7.0078,-6.9742,-6.952,-6.7552,-6.635,0.0,-6.5081,-6.5301,-6.5301,-6.4714,0.0,0.0,0.0,-6.278,-6.278,-6.278,-6.278,-6.278,-6.278,-6.278,-6.278,-6.278,0.0,0.0,0.0,0.0,-6.8201,0.0,0.0,0.0,-7.2457,-7.316,-7.4083,-7.4372,-7.4664,-7.5038,-7.5053,-7.4734,-7.401,-7.4731,-7.4672,-7.3747,-7.3516,-7.3224,-7.2844,-7.2602,-7.2496,-7.2496,-7.2496,-7.2496,-7.2496,-7.2496,-7.2496,0.0,-7.2496,-7.2496,-7.2496,-7.2496,-7.2496,-7.2496,-7.2496,-7.2496,-7.2496,-7.2496,-7.2496,-7.2496,-7.2496,-7.2496,-7.2496,-7.2496,-7.2496,-7.2496,-7.2496,-7.2496,-7.2496,-7.2496,-7.2496,-7.2496,-7.2496,-7.2496,-7.2496,-7.2496,-7.2496,-7.2496,-7.2496,-7.2496,-7.1982,-7.0367,-7.011,-6.9559,-6.7944,-6.7687,-6.7687,-6.7687,-6.7687,-6.7687,-6.7687,-6.7687,-6.7687,-6.7687,-6.7687,-6.7687,-6.7687,-6.7687,-6.7687,-6.7687,-6.7687,-6.8123,-6.8978,-6.832,-6.8847,-7.0608,-6.9596,-6.9167,-6.9154,-6.6907,-6.5883,0.0,0.0,0.0,0.0,0.0,0.0,0.0,0.0,0.0,-6.278,-6.278,-6.278,-6.278,-6.278,-6.278,-6.278,-6.278,0.0,0.0,-6.4897,0.0,0.0,-6.8495,0.0,-6.9742,-7.0983,-7.1968,-7.2505,-7.3076,-7.3433,-7.3433,-7.35,-7.3514,-7.3514,-7.4489,-7.4714,-7.4169,-7.3597,-7.3255,-7.3205,-7.2641,-7.2349,-7.2349,-7.2349,-7.2349,-7.2349,-7.2349,-7.2349,-7.2422,-7.2422,-7.2459,-7.2496,-7.2496,-7.2496,-7.2496,-7.2496,-7.2496,-7.2496,-7.2496,-7.2496,-7.2496,-7.2496,-7.2496,-7.2496,-7.2496,-7.2496,-7.2496,-7.2496,-7.2496,-7.2496,-7.2496,-7.2496,-7.2496,-7.2496,-7.2496,-7.2496,-7.2496,-7.2496,-7.2496,-7.2496,-7.2459,-7.1908,-7.0367,-7.0036,-6.9486,-6.7907,-6.7687,-6.7687,-6.7687,-6.7687,-6.7687,-6.7687,-6.7687,-6.7687,-6.7687,-6.7687,-6.7687,-6.7687,-6.7687,-6.7687,-6.7687,-6.7687,-6.7982,-6.8558,-6.8637,-6.911,-7.0019,-6.9175,-6.8618,-6.8269,-6.6873,-6.5824,0.0,0.0,-6.3392,-6.3392,-6.3246,-6.3099,0.0,0.0,0.0,0.0,0.0,0.0,0.0,0.0,-6.278,-6.278,0.0,-6.3099,-6.398,-6.5852,0.0,-6.8495,-6.9339,-7.0042,-7.0623,-7.0989,-7.1411,-7.195,-7.2485,-7.2821,-7.2821,-7.3238,-7.3514,-7.3514,-7.372,-7.3587,-7.3003,-7.2453,-7.1929,-7.1479,-7.0917,-7.066,-7.066,-7.066,-7.066,-7.066,-7.066,-7.1027,-7.1578,-7.1578,-7.1945,-7.2496,-7.2496,-7.2496,-7.2496,-7.2496,-7.2496,-7.2496,-7.2496,-7.2496,-7.2496,-7.2496,-7.2496,-7.2496,-7.2496,-7.2496,-7.2496,-7.2496,-7.2496,-7.2496,-7.2496,-7.2496,-7.2496,-7.2496,-7.2496,-7.2496,-7.2496,-7.2496,-7.2496,-7.2496,-7.2018,-7.1284,-7.0257,-6.9596,-6.8825,-6.7834,-6.7687,-6.7687,-6.7687,-6.7687,-6.7687,-6.7687,-6.7687,-6.7687,-6.7687,-6.7687,-6.7687,-6.7687,-6.7687,-6.7687,-6.7687,-6.7687,-6.8148,-6.9085,-6.9939,-6.9922,-6.9103,-6.8693,-6.8125,-6.7359,-6.6024,-6.5497,-6.278,-6.278,-6.278,-6.278,-6.278,-6.278,0.0,0.0,0.0,0.0,0.0,0.0,0.0,0.0,-6.278,-6.278,-6.3135,0.0,0.0,0.0,-6.6916,-6.7687,-6.8164,-6.8826,-6.9767,-6.9876,-7.0097,-7.0612,-7.0914,-7.1178,-7.143,-7.1519,-7.1696,-7.1942,-7.1942,-7.2294,-7.3013,-7.245,-7.2008,-7.1659,-7.0871,-7.0486,-7.046,-7.0211,-7.011,-7.011,-7.011,-7.033,-7.077,-7.077,-7.1211,-7.1945,-7.1945,-7.2165,-7.2496,-7.2496,-7.2496,-7.2496,-7.2496,-7.2496,-7.2496,-7.2496,-7.2496,-7.2496,-7.2496,-7.2496,-7.2496,-7.2496,-7.2496,-7.2496,-7.2496,-7.2496,-7.2496,-7.2496,-7.2496,-7.2496,-7.2496,-7.2496,-7.2496,-7.2496,-7.1872,-7.1064,-7.022,-6.9449,-6.8641,-6.7797,-6.7687,-6.7687,-6.7687,-6.7687,-6.7687,-6.7687,-6.7687,-6.7687,-6.7687,-6.7687,-6.7687,-6.7687,-6.7687,-6.7687,-6.7687,-6.7687,-6.8097,-6.8913,-6.9738,-6.9709,-6.8782,-6.8513,-6.7936,-6.7051,-6.5981,-6.5597,-6.278,-6.2915,-6.2989,-6.2817,-6.278,-6.278,-6.278,0.0,0.0,0.0,0.0,0.0,0.0,-6.278,-6.278,-6.278,0.0,0.0,-6.5375,-6.5595,-6.5925,-6.6586,-6.6659,-6.7115,-6.8283,-6.8368,-6.8581,-6.9021,-6.921,-6.9511,-6.9936,-6.9701,-6.972,-7.0095,-7.0112,-7.1041,-7.2952,-7.2456,-7.2178,-7.2088,-7.1036,-7.0487,-7.04,-6.9942,-6.9706,-6.9706,-6.9706,-6.9779,-6.9926,-6.9926,-7.0403,-7.1138,-7.1219,-7.1725,-7.2349,-7.2459,-7.2496,-7.2496,-7.2496,-7.2496,-7.2496,-7.2496,-7.2496,-7.2496,-7.2496,-7.2496,-7.2496,-7.2496,-7.2496,-7.2496,-7.2496,-7.2496,-7.2496,-7.2496,-7.2496,-7.2496,-7.2496,-7.2496,-7.2496,-7.2496,-7.1762,-7.0917,-7.022,-6.9339,-6.8495,-6.7797,-6.7687,-6.7687,-6.7687,-6.7687,-6.7687,-6.7687,-6.7687,-6.7687,-6.7687,-6.7687,-6.7687,-6.7687,-6.7687,-6.7687,-6.7687,-6.7757,-6.8021,-6.8511,-6.8993,-6.9038,-6.8629,-6.8321,-6.7744,-6.6898,-6.6205,-6.5897,-6.278,-6.3356,-6.3723,-6.2989,-6.278,-6.278,-6.278,-6.278,0.0,0.0,0.0,0.0,0.0,-6.278,-6.278,-6.278,-6.4127,-6.5411,0.0,0.0,-6.7357,-6.7504,-6.7504,-6.7594,-6.781,-6.7836,-6.7863,-6.793,-6.8795,-6.9333,-6.9433,-7.0217,-7.0478,-7.0112,-7.0112,-7.0243,-7.0632,-7.051,-7.0284,-6.9791,-6.9192,-6.863,-6.8178,-6.8108,-6.8054,-6.8054,-6.8054,-6.8458,-6.9082,-6.9082,-6.9559,-7.033,-7.1027,-7.1366,-7.1578,-7.2275,-7.2496,-7.2496,-7.2496,-7.2496,-7.2496,-7.2496,-7.2496,-7.2496,-7.2496,-7.2496,-7.2496,-7.2496,-7.2496,-7.2496,-7.2496,-7.2496,-7.2496,-7.2496,-7.2496,-7.2496,-7.2496,-7.2496,-7.2496,-7.2496,-7.1284,-7.022,-7.011,-6.8862,-6.7834,-6.7724,-6.7687,-6.7687,-6.7687,-6.7687,-6.7687,-6.7687,-6.7687,-6.7687,-6.7687,-6.7687,-6.7687,-6.7687,-6.7687,-6.7687,-6.7687,-6.8148,-6.8416,-6.8511,-6.8753,-6.8524,-6.779,-6.7453,-6.6859,-6.609,-6.5974,-6.5897,-6.278,-6.3099,-6.3429,-6.3466,-6.3833,-6.4138,-6.4138,-6.4138,0.0,0.0,0.0,0.0,0.0,0.0,-6.3796,-6.4677,-6.5081,-6.5595,-6.6402,-6.6439,-6.6549,-6.699,-6.7026,-6.721,-6.765,-6.7687,-6.781,-6.8123,-6.8567,-6.9127,-6.9701,-6.9939,-6.9901,-6.9683,-6.9664,-6.953,-6.9251,-6.9811,-7.0112,-7.0145,-6.9333,-6.8818,-6.8521,-6.7956,-6.7687,-6.7687,-6.7687,-6.7907,-6.8238,-6.8238,-6.8715,-6.9522,-7.033,-7.0917,-7.1431,-7.2202,-7.2496,-7.2496,-7.2496,-7.2496,-7.2496,-7.2496,-7.2496,-7.2496,-7.2496,-7.2496,-7.2496,-7.2496,-7.2496,-7.2496,-7.2496,-7.2496,-7.2496,-7.2496,-7.2496,-7.2496,-7.2496,-7.2496,-7.2496,-7.2496,-7.1211,-7.011,-7.011,-6.8752,-6.7687,-6.7687,-6.7687,-6.7687,-6.7687,-6.7687,-6.7687,-6.7687,-6.7687,-6.7687,-6.7687,-6.7687,-6.7687,-6.7687,-6.7687,-6.7687,-6.7687,-6.793,-6.8185,-6.8511,-6.8602,-6.83,-6.76,-6.7447,-6.6849,-6.5897,-6.5897,-6.573,-6.278,-6.2952,-6.3282,-6.3906,-6.442,-6.4824,-6.5228,-6.5154,-6.4897,-6.4457,0.0,0.0,0.0,-6.3649,-6.4567,-6.5999,-6.5852,-6.5852,-6.6659,-6.6256,-6.6109,-6.6696,-6.6769,-6.7026,-6.7614,-6.781,-6.8047,-6.8464,-6.875,-6.9214,-7.0061,-6.9829,-6.9626,-6.9492,-6.9373,-6.9106,-6.8682,-6.9393,-7.0009,-7.0509,-6.9683,-6.9231,-6.9085,-6.8148,-6.7687,-6.7687,-6.7687,-6.7687,-6.7687,-6.7687,-6.8054,-6.8715,-6.9706,-7.0697,-7.1688,-7.2275,-7.2496,-7.2496,-7.2496,-7.2496,-7.2496,-7.2496,-7.2496,-7.2496,-7.2496,-7.2496,-7.2496,-7.2496,-7.2496,-7.2496,-7.2496,-7.2496,-7.2496,-7.2496,-7.2496,-7.2496,-7.2496,-7.2496,-7.2496,-7.2496,-7.1211,-7.011,-7.011,-6.8752,-6.7687,-6.7687,-6.7687,-6.7687,-6.7687,-6.7687,-6.7687,-6.7687,-6.7687,-6.7687,-6.7687,-6.7687,-6.7687,-6.7687,-6.7687,-6.7687,-6.7687,-6.7687,-6.7878,-6.8308,-6.8358,-6.8048,-6.7393,-6.7458,-6.6955,-6.5897,-6.5781,-6.5475,-6.278,-6.3392,-6.4016,-6.409,-6.3539,-6.3392,-6.4971,-6.4714,-6.4383,-6.5081,-6.5228,-6.4971,-6.4163,-6.4053,-6.4383,-6.5264,-6.5962,-6.6696,-6.7504,-6.754,-6.754,-6.7614,-6.7614,-6.7614,-6.7687,-6.8173,-6.8464,-6.8511,-6.9395,-7.0026,-7.0095,-7.0524,-7.0578,-7.0061,-6.9569,-6.9292,-6.9251,-6.884,-6.8869,-6.9413,-6.9333,-6.9042,-6.8558,-6.7956,-6.7687,-6.7687,-6.7687,-6.7687,-6.7687,-6.7687,-6.7724,-6.7944,-6.9486,-7.1064,-7.2422,-7.2496,-7.2496,-7.2496,-7.2496,-7.2496,-7.2496,-7.2496,-7.2496,-7.2496,-7.2496,-7.2496,-7.2496,-7.2496,-7.2496,-7.2496,-7.2496,-7.2496,-7.2496,-7.2496,-7.2496,-7.2496,-7.2496,-7.2496,-7.2496,-7.2496,-7.1211,-7.011,-7.011,-6.8752,-6.7687,-6.7687,-6.7687,-6.7687,-6.7687,-6.7687,-6.7687,-6.7687,-6.7687,-6.7687,-6.7687,-6.7687,-6.7687,-6.7687,-6.7687,-6.7687,-6.7687,-6.7687,-6.7714,-6.7767,-6.7943,-6.765,-6.686,-6.7042,-6.6718,-6.5897,-6.5403,-6.513,-6.278,-6.3429,-6.409,-6.409,-6.3833,0.0,-6.5668,-6.5815,-6.5668,-6.5999,-6.6035,-6.5815,-6.5007,-6.5264,-6.5705,-6.5999,-6.6733,-6.7357,-6.765,-6.7687,-6.7687,-6.7687,-6.7687,-6.7687,-6.7687,-6.8161,-6.8637,-6.8956,-6.9683,-7.0266,-7.0593,-7.0791,-7.0494,-6.9645,-6.9738,-6.9333,-6.8296,-6.8773,-6.9106,-6.9313,-6.9313,-6.919,-6.8978,-6.844,-6.8033,-6.7687,-6.7687,-6.7687,-6.7687,-6.7687,-6.7687,-6.7834,-6.9449,-7.1064,-7.2496,-7.2496,-7.2496,-7.2496,-7.2496,-7.2496,-7.2496,-7.2496,-7.2496,-7.2496,-7.2496,-7.2496,-7.2496,-7.2496,-7.2496,-7.2496,-7.2496,-7.2496,-7.2496,-7.2496,-7.2496,-7.2496,-7.2496,-7.2496,-7.2496,-7.2496,-7.1211,-7.011,-7.011,-6.8752,-6.7687,-6.7687,-6.7687,-6.7687,-6.7687,-6.7687,-6.7687,-6.7687,-6.7687,-6.7687,-6.7687,-6.7687,-6.7687,-6.7687,-6.7687,-6.7687,-6.7687,-6.7687,-6.7863,-6.8185,-6.7926,-6.7613,-6.7288,-6.7054,-6.6567,-6.5897,-6.5335,-6.4916,-6.278,-6.3246,-6.3759,-6.4016,0.0,0.0,-6.6109,-6.6292,-6.6256,-6.6769,-6.6659,-6.6329,-6.5778,-6.6145,-6.6512,-6.6512,-6.7173,-6.7687,-6.7687,-6.7687,-6.7687,-6.7687,-6.7687,-6.7687,-6.7687,-6.8357,-6.8891,-6.9272,-6.9936,-7.0509,-7.0885,-7.0898,-7.0539,-6.9811,-7.0009,-6.9511,-6.821,-6.8773,-6.9042,-6.9042,-6.9231,-6.9313,-6.9292,-6.875,-6.8185,-6.7687,-6.7687,-6.7687,-6.7687,-6.7687,-6.7834,-6.8201,-6.9559,-7.0917,-7.2165,-7.2422,-7.2496,-7.2496,-7.2496,-7.2496,-7.2496,-7.2496,-7.2496,-7.2496,-7.2496,-7.2496,-7.2496,-7.2496,-7.2496,-7.2496,-7.2496,-7.2496,-7.2496,-7.2496,-7.2496,-7.2496,-7.2496,-7.2496,-7.2496,-7.2496,-7.1211,-7.011,-7.011,-6.8752,-6.7687,-6.7687,-6.7687,-6.7687,-6.7687,-6.7687,-6.7687,-6.7687,-6.7687,-6.7687,-6.7687,-6.7687,-6.7687,-6.7687,-6.7687,-6.7687,-6.7687,-6.7687,-6.7852,-6.8235,-6.8047,-6.7761,-6.7341,-6.7144,-6.6679,-6.5885,-6.5199,-6.4782,-6.278,-6.278,-6.3025,-6.387,0.0,0.0,-6.6145,-6.5888,-6.5778,-6.7357,-6.7063,-6.6512,-6.6512,-6.6512,-6.6512,-6.6512,-6.7173,-6.7687,-6.7687,-6.7687,-6.7687,-6.7687,-6.7687,-6.7687,-6.7687,-6.866,-6.9313,-6.9313,-7.0298,-7.0898,-7.0898,-7.0898,-7.0898,-7.0898,-7.0362,-6.9847,-6.9313,-6.8773,-6.8511,-6.8535,-6.9042,-6.9292,-6.9292,-6.875,-6.821,-6.7714,-6.7714,-6.7687,-6.7687,-6.7687,-6.8164,-6.8972,-6.9779,-7.0587,-7.1431,-7.2202,-7.2496,-7.2496,-7.2496,-7.2496,-7.2496,-7.2496,-7.2496,-7.2496,-7.2496,-7.2496,-7.2496,-7.2496,-7.2496,-7.2496,-7.2496,-7.2496,-7.2496,-7.2496,-7.2496,-7.2496,-7.2496,-7.2496,-7.2496,-7.2496,-7.1211,-7.011,-7.011,-6.8752,-6.7687,-6.7687,-6.7687,-6.7687,-6.7687,-6.7687,-6.7687,-6.7687,-6.7687,-6.7687,-6.7687,-6.7687,-6.7687,-6.7687,-6.7687,-6.7687,-6.7687,-6.7687,-6.7714,-6.7714,-6.821,-6.7928,-6.6821,-6.7324,-6.7003,-6.5885,-6.4871,-6.4643,-6.278,-6.3661,-6.4494,-6.4163,0.0,0.0,0.0,-6.6329,0.0,0.0,-6.7504,-6.7173,-6.6586,-6.6953,-6.7136,-6.6586,-6.7173,-6.7687,-6.7687,-6.7687,-6.7687,-6.7687,-6.7687,-6.7687,-6.7687,-6.866,-6.9313,-6.9313,-7.0298,-7.0898,-7.0898,-7.0898,-7.0734,-7.0346,-7.0539,-7.0233,-6.9313,-6.9148,-6.9064,-6.9064,-6.8825,-6.8913,-6.9292,-6.9127,-6.8773,-6.8235,-6.7863,-6.7687,-6.7687,-6.7687,-6.8164,-6.8972,-6.9779,-7.0587,-7.1431,-7.2202,-7.2496,-7.2496,-7.2496,-7.2496,-7.2496,-7.2496,-7.2496,-7.2496,-7.2496,-7.2496,-7.2496,-7.2496,-7.2496,-7.2496,-7.2496,-7.2496,-7.2496,-7.2496,-7.2496,-7.2496,-7.2496,-7.2496,-7.2496,-7.2496,-7.1211,-7.011,-7.011,-6.8752,-6.7687,-6.7687,-6.7687,-6.7687,-6.7687,-6.7687,-6.7687,-6.7687,-6.7687,-6.7687,-6.7687,-6.7687,-6.7687,-6.7687,-6.7687,-6.7687,-6.7687,-6.7687,-6.7889,-6.8259,-6.8047,-6.7738,-6.7341,-6.7144,-6.6662,-6.5885,-6.5215,-6.4987,-6.3209,-6.4053,-6.4861,-6.5007,-6.5778,-6.6586,-6.688,-6.699,-6.71,-6.7577,-6.7687,-6.754,-6.7063,-6.7357,-6.754,-6.7063,-6.7357,-6.7687,-6.7687,-6.7687,-6.7687,-6.7687,-6.7687,-6.7687,-6.7687,-6.8487,-6.9064,-6.9292,-7.0095,-7.0666,-7.0885,-7.0898,-7.0762,-7.0448,-7.0748,-7.0478,-6.9626,-6.9626,-6.9413,-6.8978,-6.8847,-6.8978,-6.9292,-6.9085,-6.8818,-6.8487,-6.793,-6.7687,-6.7687,-6.7687,-6.7981,-6.8531,-6.9669,-7.0403,-7.0954,-7.2092,-7.2496,-7.2496,-7.2496,-7.2496,-7.2496,-7.2496,-7.2496,-7.2496,-7.2496,-7.2496,-7.2496,-7.2496,-7.2496,-7.2496,-7.2496,-7.2496,-7.2496,-7.2496,-7.2496,-7.2496,-7.2496,-7.2496,-7.2496,-7.2496,-7.1211,-7.011,-7.011,-6.8752,-6.7687,-6.7687,-6.7687,-6.7687,-6.7687,-6.7687,-6.7687,-6.7687,-6.7687,-6.7687,-6.7687,-6.7687,-6.7687,-6.7687,-6.7687,-6.7687,-6.7687,-6.7687,-6.7863,-6.8198,-6.7852,-6.7564,-6.7271,-6.6976,-6.6488,-6.5885,-6.5168,-6.5035,-6.3906,-6.42,-6.4677,-6.6109,-6.6549,-6.6806,-6.7504,-6.7687,-6.7687,-6.7687,-6.7687,-6.7687,-6.7687,-6.7687,-6.7687,-6.7687,-6.7687,-6.7687,-6.7687,-6.7687,-6.7687,-6.7687,-6.7687,-6.7687,-6.7687,-6.8235,-6.8795,-6.9272,-6.9829,-7.0378,-7.0885,-7.0898,-7.0898,-7.0898,-7.0898,-7.0652,-7.0162,-7.0129,-6.9607,-6.8567,-6.9021,-6.9231,-6.921,-6.8728,-6.8487,-6.8392,-6.7904,-6.7687,-6.7687,-6.7687,-6.7687,-6.7834,-6.9449,-7.011,-7.0293,-7.1908,-7.2496,-7.2496,-7.2496,-7.2496,-7.2496,-7.2496,-7.2496,-7.2496,-7.2496,-7.2496,-7.2496,-7.2496,-7.2496,-7.2496,-7.2496,-7.2496,-7.2496,-7.2496,-7.2496,-7.2496,-7.2496,-7.2496,-7.2496,-7.2496,-7.1211,-7.011,-7.011,-6.8752,-6.7687,-6.7687,-6.7687,-6.7687,-6.7687,-6.7687,-6.7687,-6.7687,-6.7687,-6.7687,-6.7687,-6.7687,-6.7687,-6.7687,-6.7687,-6.7687,-6.7687,-6.7687,-6.7687,-6.7687,-6.7694,-6.7345,-6.6801,-6.6785,-6.6463,-6.5885,-6.4904,-6.4938,-6.42,-6.5007,0.0,-6.6402,-6.6953,-6.7467,-6.765,-6.7687,-6.7687,-6.7687,-6.7687,-6.7687,-6.7687,-6.7687,-6.7687,-6.7687,-6.7687,-6.7687,-6.7687,-6.7687,-6.7687,-6.7687,-6.7687,-6.7687,-6.7687,-6.8581,-6.9169,-6.9292,-7.02,-7.0777,-7.0898,-7.0898,-7.0898,-7.0898,-7.0898,-7.0819,-7.0748,-7.0314,-6.9775,-6.9127,-6.884,-6.8682,-6.866,-6.8544,-6.8284,-6.7889,-6.7767,-6.7687,-6.7687,-6.7687,-6.7687,-6.7834,-6.9449,-7.011,-7.0293,-7.1908,-7.2496,-7.2496,-7.2496,-7.2496,-7.2496,-7.2496,-7.2496,-7.2496,-7.2496,-7.2496,-7.2496,-7.2496,-7.2496,-7.2496,-7.2496,-7.2496,-7.2496,-7.2496,-7.2496,-7.2496,-7.2496,-7.2496,-7.2496,-7.2496,-7.1211,-7.011,-7.011,-6.8752,-6.7687,-6.7687,-6.7687,-6.7687,-6.7687,-6.7687,-6.7687,-6.7687,-6.7687,-6.7687,-6.7687,-6.7687,-6.7687,-6.7687,-6.7687,-6.7687,-6.7687,-6.7687,-6.7687,-6.7687,-6.7444,-6.7135,-6.6801,-6.6516,-6.6223,-6.5897,-6.5245,-6.5067,0.0,0.0,0.0,-6.688,0.0,-6.7687,-6.7687,-6.7687,-6.7687,-6.7687,-6.7687,-6.7687,-6.7687,-6.7687,-6.7687,-6.7687,-6.7687,-6.7687,-6.7687,-6.7687,-6.7687,-6.7687,-6.7687,-6.7687,-6.7687,-6.8185,-6.875,-6.9272,-6.9811,-7.0346,-7.0885,-7.0898,-7.0898,-7.0898,-7.0898,-7.0898,-7.0898,-7.0622,-7.0078,-6.9292,-6.9021,-6.875,-6.8511,-6.8511,-6.8185,-6.7687,-6.7687,-6.7687,-6.7687,-6.7687,-6.7687,-6.7797,-6.9045,-6.9743,-7.0257,-7.1468,-7.2165,-7.2496,-7.2496,-7.2496,-7.2496,-7.2496,-7.2496,-7.2496,-7.2496,-7.2496,-7.2496,-7.2496,-7.2496,-7.2496,-7.2496,-7.2496,-7.2496,-7.2496,-7.2496,-7.2496,-7.2496,-7.2496,-7.2496,-7.2496,-7.1211,-7.011,-7.011,-6.8752,-6.7687,-6.7687,-6.7687,-6.7687,-6.7687,-6.7687,-6.7687,-6.7687,-6.7687,-6.7687,-6.7687,-6.7687,-6.7687,-6.7687,-6.7687,-6.7687,-6.7687,-6.7687,-6.7687,-6.7687,-6.737,-6.706,-6.6801,-6.647,-6.6032,-6.5527,-6.5245,-6.5099,0.0,0.0,-6.5852,-6.732,-6.7687,0.0,-6.7687,-6.7687,-6.7687,-6.7687,-6.7687,-6.7687,-6.7687,-6.7687,-6.7687,-6.7687,-6.7687,-6.7687,-6.7687,-6.7577,-6.754,-6.7677,-6.7577,-6.754,-6.7687,-6.7784,-6.8185,-6.9085,-6.9333,-6.9811,-7.0695,-7.0871,-7.0898,-7.0898,-7.0898,-7.0898,-7.0898,-7.0898,-7.0346,-6.9313,-6.921,-6.8913,-6.8511,-6.859,-6.8357,-6.7836,-6.7836,-6.7784,-6.7687,-6.7687,-6.7687,-6.776,-6.8605,-6.9376,-7.0183,-7.1027,-7.1835,-7.2496,-7.2496,-7.2496,-7.2496,-7.2496,-7.2496,-7.2496,-7.2496,-7.2496,-7.2496,-7.2496,-7.2496,-7.2496,-7.2496,-7.2496,-7.2496,-7.2496,-7.2496,-7.2496,-7.2496,-7.2496,-7.2496,-7.2496,-7.1211,-7.0,-6.9706,-6.8568,-6.7687,-6.7687,-6.7687,-6.7687,-6.7687,-6.7687,-6.7687,-6.7687,-6.7687,-6.7687,-6.7687,-6.7687,-6.7687,-6.7687,-6.7687,-6.7687,-6.7687,-6.7687,-6.7687,-6.7687,-6.7319,-6.7021,-6.6821,-6.6404,-6.5879,-6.5245,-6.5146,-6.5099,0.0,0.0,-6.6549,0.0,-6.7687,-6.7687,0.0,0.0,-6.7687,0.0,-6.7687,-6.7687,-6.7687,-6.7687,-6.7687,-6.7687,-6.7687,-6.7687,-6.7687,-6.71,-6.6916,-6.7614,-6.7063,-6.6916,-6.7614,-6.8123,-6.8464,-6.859,-6.9492,-7.0061,-7.0179,-7.0652,-7.0898,-7.0898,-7.0898,-7.0898,-7.0898,-7.0898,-7.0346,-6.9292,-6.884,-6.8544,-6.8535,-6.8978,-6.8891,-6.8392,-6.8392,-6.8148,-6.7687,-6.7687,-6.7687,-6.776,-6.8605,-6.9376,-7.0183,-7.1027,-7.1835,-7.2496,-7.2496,-7.2496,-7.2496,-7.2496,-7.2496,-7.2496,-7.2496,-7.2496,-7.2496,-7.2496,-7.2496,-7.2496,-7.2496,-7.2496,-7.2496,-7.2496,-7.2496,-7.2496,-7.2496,-7.2496,-7.2496,-7.2496,-7.1211,-6.9669,-6.8238,-6.7834,-6.7687,-6.7687,-6.7687,-6.7687,-6.7687,-6.7687,-6.7687,-6.7687,-6.7687,-6.7687,-6.7687,-6.7687,-6.7687,-6.7687,-6.7687,-6.7687,-6.7687,-6.7687,-6.7687,-6.7687,-6.7143,-6.6854,-6.6821,-6.6231,-6.591,-6.5781,-6.5306,-6.5099,-6.5411,-6.5888,-6.6696,0.0,-6.7687,-6.7687,-6.7687,-6.7687,-6.7687,-6.7687,-6.7687,-6.7687,-6.7687,-6.7687,-6.7687,-6.7687,-6.732,-6.7026,-6.7026,-6.6329,-6.5962,-6.6329,-6.6035,-6.6145,-6.6953,-6.7241,-6.7679,-6.845,-6.8935,-6.9315,-6.9645,-7.0145,-7.0463,-7.0463,-7.0748,-7.0898,-7.0898,-7.0898,-7.0346,-6.9292,-6.9064,-6.8935,-6.8956,-6.9511,-6.9313,-6.8511,-6.8511,-6.8185,-6.7687,-6.7687,-6.7687,-6.7751,-6.8091,-6.8715,-6.9522,-7.033,-7.1138,-7.1908,-7.2349,-7.2496,-7.2496,-7.2496,-7.2496,-7.2496,-7.2496,-7.2496,-7.2496,-7.2496,-7.2733,-7.2916,-7.261,-7.2733,-7.2916,-7.2582,-7.2496,-7.2496,-7.2496,-7.2496,-7.2239,-7.1321,-7.022,-6.9045,-6.7907,-6.7687,-6.7687,-6.7687,-6.7687,-6.7687,-6.7687,-6.7687,-6.7687,-6.7687,-6.7687,-6.7687,-6.7687,-6.7687,-6.7687,-6.7687,-6.7687,-6.7687,-6.7687,-6.7687,-6.7687,-6.7687,-6.7098,-6.6801,-6.6821,-6.62,-6.5768,-6.5446,-6.5527,-6.5403,0.0,0.0,-6.6109,-6.7136,-6.7393,-6.743,0.0,0.0,-6.7687,-6.7687,-6.7687,-6.7687,-6.7687,-6.7687,-6.7687,-6.7687,-6.7026,-6.6512,-6.6512,-6.5632,-6.5081,-6.5301,-6.5118,-6.5301,-6.6109,-6.6366,-6.6905,-6.7926,-6.8304,-6.8682,-6.9085,-6.9738,-7.0112,-7.0112,-7.0622,-7.0898,-7.0898,-7.0762,-7.0233,-6.9313,-6.9452,-6.9433,-6.9333,-7.0009,-6.9793,-6.8891,-6.8773,-6.8392,-6.7878,-6.7767,-6.7687,-6.7687,-6.7687,-6.8201,-6.8972,-6.9559,-7.044,-7.1366,-7.1982,-7.2349,-7.2496,-7.2496,-7.2496,-7.2496,-7.2496,-7.2496,-7.2496,-7.2496,-7.2916,-7.3238,-7.2658,-7.2943,-7.3275,-7.263,-7.2496,-7.2496,-7.2496,-7.2349,-7.1798,-7.0367,-6.9449,-6.8641,-6.7834,-6.7687,-6.7687,-6.7687,-6.7687,-6.7687,-6.7687,-6.7687,-6.7687,-6.7687,-6.7687,-6.7687,-6.7687,-6.7687,-6.7687,-6.7687,-6.7687,-6.7687,-6.7687,-6.7687,-6.7687,-6.7687,-6.7098,-6.6801,-6.6821,-6.607,-6.5556,-6.5306,-6.5703,-6.569,0.0,-6.4787,0.0,-6.6182,-6.6549,0.0,0.0,0.0,-6.7687,-6.7687,-6.7687,-6.7687,-6.7687,-6.7687,-6.7687,-6.7687,-6.7026,-6.6512,-6.6512,-6.5154,-6.4457,-6.5228,-6.464,-6.4494,-6.5301,-6.6035,-6.6539,-6.6602,-6.7802,-6.8535,-6.8558,-6.955,-7.0112,-7.0112,-7.0622,-7.0898,-7.0898,-7.0416,-6.9847,-6.9313,-6.9811,-6.9793,-6.9333,-7.0362,-7.0539,-7.0009,-6.9492,-6.8935,-6.8416,-6.7904,-6.7687,-6.7687,-6.7687,-6.8201,-6.8898,-6.8972,-6.9963,-7.1293,-7.1329,-7.1872,-7.2496,-7.2496,-7.2496,-7.2496,-7.2496,-7.2496,-7.2496,-7.2496,-7.2916,-7.3238,-7.2658,-7.2943,-7.3275,-7.263,-7.2496,-7.2496,-7.2496,-7.1908,-7.1138,-7.0257,-6.9449,-6.8641,-6.7834,-6.7687,-6.7687,-6.7687,-6.7687,-6.7687,-6.7687,-6.7687,-6.7687,-6.7687,-6.7687,-6.7687,-6.7687,-6.7687,-6.7687,-6.7687,-6.7687,-6.7687,-6.7687,-6.7687,-6.7687,-6.7687,-6.7098,-6.6801,-6.6821,-6.5686,-6.5403,-6.5872,-6.5897,-6.5897,0.0,0.0,0.0,-6.5448,-6.6109,-6.6586,-6.6843,-6.732,-6.7687,-6.7687,-6.7687,-6.7687,-6.7687,-6.7687,-6.7504,-6.699,-6.6256,-6.5558,-6.5007,-6.398,-6.3392,-6.3661,-6.3466,-6.3613,-6.4457,-6.5264,-6.5925,-6.6476,-6.741,-6.8148,-6.8487,-6.919,-6.9738,-7.0095,-7.0622,-7.0898,-7.0898,-7.0695,-7.033,-6.9811,-7.0026,-7.0009,-6.9829,-7.0195,-7.0478,-7.0539,-6.9683,-6.8999,-6.8464,-6.7904,-6.7687,-6.7687,-6.7687,-6.7871,-6.8201,-6.8715,-6.9265,-6.9926,-7.0926,-7.1505,-7.1835,-7.2349,-7.2496,-7.2496,-7.2496,-7.2496,-7.261,-7.297,-7.3516,-7.3934,-7.3699,-7.3818,-7.3723,-7.2742,-7.2496,-7.2496,-7.2496,-7.1468,-7.044,-7.0146,-6.9009,-6.8017,-6.7724,-6.7687,-6.7687,-6.7687,-6.7687,-6.7687,-6.7687,-6.7687,-6.7687,-6.7687,-6.7687,-6.7687,-6.7687,-6.7687,-6.7687,-6.7687,-6.7687,-6.7687,-6.7687,-6.7687,-6.7863,-6.8185,-6.7485,-6.7,-6.6821,-6.5985,-6.5703,-6.5897,-6.5897,-6.5897,-6.431,0.0,0.0,0.0,0.0,-6.5852,-6.6366,-6.6916,-6.7357,-6.7614,-6.7687,-6.7687,-6.7687,-6.7687,-6.743,-6.6623,-6.5815,-6.5007,-6.42,-6.3356,-6.278,-6.278,-6.278,-6.3025,-6.3613,-6.4677,-6.5521,-6.6072,-6.71,-6.7863,-6.821,-6.8891,-6.9626,-7.0346,-7.0695,-7.0898,-7.0898,-7.0898,-7.0637,-7.0112,-7.0112,-7.0112,-7.0112,-7.0112,-7.0378,-7.0857,-6.9757,-6.9106,-6.8728,-6.8007,-6.7687,-6.7687,-6.7687,-6.7687,-6.776,-6.8311,-6.8678,-6.9045,-7.0146,-7.0697,-7.1027,-7.1835,-7.2092,-7.2186,-7.266,-7.2789,-7.2916,-7.3541,-7.4101,-7.4547,-7.4336,-7.4161,-7.3723,-7.277,-7.2496,-7.2496,-7.2496,-7.1248,-7.011,-7.011,-6.8788,-6.7687,-6.7687,-6.7687,-6.7687,-6.7687,-6.7687,-6.7687,-6.7687,-6.7687,-6.7687,-6.7687,-6.7687,-6.7687,-6.7687,-6.7687,-6.7687,-6.7687,-6.7687,-6.7687,-6.7687,-6.7687,-6.7956,-6.8487,-6.786,-6.7405,-6.707,-6.6369,-6.601,-6.5897,-6.5897,-6.5897,0.0,0.0,0.0,0.0,0.0,0.0,-6.6072,0.0,-6.6696,-6.7504,-6.765,-6.765,-6.7687,-6.7687,-6.743,-6.6623,-6.5815,-6.5007,-6.42,-6.3356,-6.278,-6.278,-6.278,-6.278,-6.278,-6.4347,-6.5301,-6.5301,-6.6769,-6.7714,-6.7741,-6.875,-6.9793,-7.0871,-7.0898,-7.0898,-7.0898,-7.0898,-7.0637,-7.0129,-7.0112,-7.0112,-7.0129,-7.0112,-7.0378,-7.0857,-6.9775,-6.9313,-6.9231,-6.8148,-6.7687,-6.7687,-6.7687,-6.7687,-6.7687,-6.7687,-6.8201,-6.8862,-6.8898,-6.9412,-7.0183,-7.1027,-7.1284,-7.16,-7.2927,-7.3379,-7.3529,-7.4161,-7.471,-7.4999,-7.4464,-7.3888,-7.3264,-7.2658,-7.2496,-7.2496,-7.2496,-7.1248,-7.011,-7.011,-6.8825,-6.7724,-6.7687,-6.7687,-6.7687,-6.7687,-6.7687,-6.7687,-6.7687,-6.7687,-6.7687,-6.7687,-6.7687,-6.7687,-6.7687,-6.7687,-6.7687,-6.7687,-6.7687,-6.7687,-6.7687,-6.7687,-6.7956,-6.8535,-6.8194,-6.7884,-6.7616,-6.6793,-6.6245,-6.5897,-6.5897,-6.5897,-6.3392,0.0,0.0,0.0,0.0,0.0,-6.464,0.0,-6.5852,-6.6659,-6.6843,-6.699,-6.7577,-6.7687,-6.743,-6.6623,-6.5815,-6.5007,-6.42,-6.3356,-6.278,-6.278,-6.278,-6.278,-6.278,-6.4347,-6.5301,-6.5301,-6.6769,-6.7889,-6.8259,-6.9313,-7.0179,-7.0885,-7.0898,-7.0898,-7.0898,-7.0898,-7.0843,-7.0666,-7.0298,-7.0314,-7.0652,-7.0282,-7.0378,-7.0871,-7.0162,-6.9664,-6.9231,-6.8148,-6.7687,-6.7687,-6.7687,-6.7687,-6.7687,-6.7687,-6.7834,-6.8128,-6.8715,-6.9045,-6.9376,-7.0183,-7.1129,-7.2009,-7.241,-7.325,-7.4183,-7.4711,-7.4999,-7.5073,-7.4924,-7.4447,-7.3888,-7.329,-7.2816,-7.2496,-7.2496,-7.1248,-7.011,-7.011,-6.9265,-6.8385,-6.7797,-6.7687,-6.7687,-6.7687,-6.7687,-6.7687,-6.7687,-6.7687,-6.7687,-6.7687,-6.7687,-6.7687,-6.7687,-6.7687,-6.7687,-6.7687,-6.7687,-6.7687,-6.7687,-6.7687,-6.8148,-6.9064,-6.9005,-6.8713,-6.8196,-6.7327,-6.6575,-6.5897,-6.5897,-6.5897,-6.3062,-6.278,0.0,-6.278,0.0,0.0,-6.442,-6.4971,-6.5632,-6.6769,-6.699,-6.7136,-6.7614,-6.7687,-6.754,-6.7063,-6.6329,-6.5521,-6.4714,-6.4163,-6.3844,-6.3844,-6.3844,-6.3844,-6.3844,-6.5044,-6.5815,-6.5815,-6.699,-6.8021,-6.8795,-6.9433,-7.0112,-7.0885,-7.0898,-7.0898,-7.0898,-7.0898,-7.0898,-7.0898,-7.0346,-7.0362,-7.0885,-7.0346,-7.0378,-7.0885,-7.033,-6.9901,-6.9569,-6.8728,-6.8097,-6.7687,-6.7687,-6.7687,-6.7687,-6.7687,-6.7687,-6.776,-6.8238,-6.8385,-6.8531,-6.9339,-7.0302,-7.1242,-7.1865,-7.3037,-7.4218,-7.4792,-7.5195,-7.543,-7.5145,-7.4886,-7.4468,-7.3911,-7.3516,-7.3172,-7.2916,-7.1864,-7.0786,-7.0202,-6.9192,-6.8238,-6.776,-6.7687,-6.7687,-6.7687,-6.7687,-6.7687,-6.7687,-6.7687,-6.7687,-6.7687,-6.7687,-6.7687,-6.7687,-6.7687,-6.7687,-6.7687,-6.7687,-6.7687,-6.7687,-6.7904,-6.844,-6.9292,-6.953,-6.9243,-6.8385,-6.7898,-6.7051,-6.5897,-6.5897,-6.5897,-6.3062,-6.278,0.0,-6.278,-6.278,0.0,-6.4677,-6.5044,-6.5448,-6.699,-6.7283,-6.732,-6.7393,-6.743,-6.743,-6.743,-6.6916,-6.6256,-6.5521,-6.5375,-6.5301,-6.5301,-6.5301,-6.5301,-6.5301,-6.6035,-6.6512,-6.6512,-6.7247,-6.8148,-6.9148,-6.9272,-6.9757,-7.0777,-7.0871,-7.0898,-7.0898,-7.0898,-7.0898,-7.0898,-7.0432,-7.0448,-7.0885,-7.0432,-7.0463,-7.0885,-7.0416,-7.0145,-7.0078,-6.9588,-6.8773,-6.7784,-6.7784,-6.7731,-6.7687,-6.7687,-6.7687,-6.7687,-6.7687,-6.7687,-6.7824,-6.8576,-6.9258,-7.0028,-7.1363,-7.2719,-7.3951,-7.4527,-7.5322,-7.5902,-7.5323,-7.5145,-7.498,-7.4506,-7.4336,-7.4161,-7.3602,-7.2758,-7.1714,-7.0431,-6.8916,-6.7797,-6.7724,-6.7687,-6.7687,-6.7687,-6.7687,-6.7687,-6.7687,-6.7687,-6.7687,-6.7687,-6.7687,-6.7687,-6.7687,-6.7687,-6.7687,-6.7687,-6.7687,-6.7687,-6.7687,-6.821,-6.8773,-6.9292,-6.9789,-6.9552,-6.8552,-6.8359,-6.7436,-6.5897,-6.5897,-6.5897,-6.3062,-6.278,-6.278,-6.278,-6.278,0.0,-6.3184,-6.3294,-6.3576,-6.4567,-6.4787,-6.5007,-6.5668,-6.5778,-6.5778,-6.5778,-6.6182,-6.6439,-6.6292,-6.5705,-6.5301,-6.5301,-6.5301,-6.5301,-6.5301,-6.6035,-6.6512,-6.6512,-6.7247,-6.7982,-6.8614,-6.9064,-6.9607,-7.025,-7.0666,-7.0898,-7.0898,-7.0898,-7.0898,-7.0898,-7.0791,-7.0791,-7.0898,-7.0791,-7.0791,-7.0898,-7.0791,-7.0494,-7.0095,-7.0009,-6.9333,-6.832,-6.832,-6.8072,-6.7687,-6.7687,-6.7687,-6.7687,-6.7687,-6.7687,-6.7794,-6.8371,-6.9438,-7.0554,-7.1256,-7.2456,-7.372,-7.4486,-7.5322,-7.5962,-7.5848,-7.5446,-7.5073,-7.498,-7.4591,-7.4271,-7.4161,-7.2585,-7.1132,-7.0859,-6.9669,-6.8458,-6.7797,-6.7687,-6.7687,-6.7687,-6.7687,-6.7687,-6.7687,-6.7687,-6.7687,-6.7687,-6.7687,-6.7687,-6.7687,-6.7687,-6.7687,-6.7687,-6.7687,-6.7687,-6.7687,-6.821,-6.8773,-6.9292,-6.96,-6.9676,-6.9436,-6.8052,-6.6859,-6.5897,-6.5897,-6.5897,-6.3062,-6.278,-6.278,-6.278,-6.278,0.0,0.0,-6.3466,-6.3686,-6.453,-6.4714,-6.4824,-6.5228,-6.5301,-6.5301,-6.5301,-6.5999,-6.6366,-6.5962,-6.6256,-6.6512,-6.6512,-6.6512,-6.6512,-6.6512,-6.6843,-6.71,-6.71,-6.7467,-6.793,-6.8487,-6.8999,-6.955,-7.0095,-7.0622,-7.0898,-7.0898,-7.0898,-7.0898,-7.0898,-7.0898,-7.0898,-7.0898,-7.0898,-7.0898,-7.0898,-7.0898,-7.0762,-7.0494,-7.0494,-7.0044,-6.9214,-6.8728,-6.8357,-6.8072,-6.7784,-6.7889,-6.8047,-6.7784,-6.7889,-6.8148,-6.8416,-6.9364,-7.0402,-7.0674,-7.1742,-7.3129,-7.4361,-7.5014,-7.5438,-7.5899,-7.5787,-7.5551,-7.5551,-7.5344,-7.5055,-7.4769,-7.2935,-7.132,-7.1067,-6.9551,-6.8164,-6.776,-6.7687,-6.7687,-6.7687,-6.7687,-6.7687,-6.7687,-6.7687,-6.7687,-6.7687,-6.7687,-6.7687,-6.7687,-6.7687,-6.7687,-6.7687,-6.7687,-6.781,-6.8097,-6.8614,-6.9292,-7.0078,-7.0239,-7.009,-6.9706,-6.8821,-6.7744,-6.6474,-6.609,-6.5897,-6.3099,-6.278,-6.278,-6.278,-6.278,-6.2989,0.0,0.0,0.0,-6.4677,-6.4824,-6.4824,0.0,0.0,-6.4787,-6.4604,-6.5411,-6.5742,-6.4934,-6.6219,-6.7247,-6.7247,-6.7504,-6.7614,-6.7467,-6.7467,-6.7504,-6.7687,-6.754,-6.7731,-6.8296,-6.8935,-6.9511,-6.9918,-7.0578,-7.0898,-7.0898,-7.0898,-7.0898,-7.0898,-7.0898,-7.0898,-7.0898,-7.0898,-7.0898,-7.0898,-7.0898,-7.0898,-7.0898,-7.0791,-7.0494,-7.0026,-6.9148,-6.875,-6.8567,-6.8047,-6.8148,-6.844,-6.797,-6.8148,-6.8521,-6.875,-6.9434,-7.0266,-7.0266,-7.1153,-7.2476,-7.386,-7.4437,-7.4861,-7.5553,-7.5861,-7.6015,-7.6015,-7.6015,-7.581,-7.5166,-7.3383,-7.1752,-7.1179,-6.9311,-6.781,-6.7714,-6.7687,-6.7687,-6.7687,-6.7687,-6.7687,-6.7687,-6.7687,-6.7687,-6.7687,-6.7687,-6.7687,-6.7687,-6.7687,-6.7687,-6.7687,-6.7687,-6.793,-6.8487,-6.9127,-6.9921,-7.0885,-7.0898,-7.0591,-6.9937,-6.9783,-6.8783,-6.709,-6.6436,-6.6051,-6.3246,-6.278,-6.278,-6.278,-6.278,-6.2817,-6.2952,0.0,-6.2964,-6.3099,0.0,-6.3074,-6.3074,0.0,0.0,-6.2144,-6.3319,-6.4053,-6.3209,-6.453,-6.5595,-6.5595,-6.6843,-6.7393,-6.6696,-6.6623,-6.6916,-6.7677,-6.7026,-6.6969,-6.7747,-6.875,-6.9333,-6.9393,-7.0362,-7.0898,-7.0898,-7.0898,-7.0898,-7.0898,-7.0898,-7.0898,-7.0898,-7.0898,-7.0898,-7.0898,-7.0898,-7.0898,-7.0871,-7.0378,-7.0145,-7.0095,-6.9992,-6.9645,-6.9148,-6.859,-6.844,-6.8511,-6.844,-6.844,-6.866,-6.9626,-7.0314,-7.0805,-7.0805,-7.1448,-7.2245,-7.2437,-7.3553,-7.4707,-7.4822,-7.5438,-7.6015,-7.6015,-7.6015,-7.5769,-7.4918,-7.3554,-7.2274,-7.1517,-6.9767,-6.8259,-6.7784,-6.7687,-6.7687,-6.7687,-6.7687,-6.7687,-6.7687,-6.7687,-6.7687,-6.7687,-6.7687,-6.7687,-6.7687,-6.7687,-6.7687,-6.7687,-6.7687,-6.793,-6.8487,-6.9492,-7.0298,-7.0885,-7.0898,-7.086,-7.0744,-7.0052,-6.8783,-6.709,-6.7013,-6.659,-6.3135,-6.3172,-6.3429,-6.2952,-6.3172,-6.3429,-6.289,-6.278,-6.278,-6.278,0.0,0.0,0.0,0.0,0.0,0.0,-6.3319,-6.3796,-6.289,-6.4237,-6.5301,-6.5301,-6.5888,-6.6366,-6.6476,-6.6512,-6.6843,-6.7614,-6.6953,-6.6843,-6.765,-6.8728,-6.9313,-6.9313,-7.033,-7.0898,-7.0898,-7.0898,-7.0898,-7.0898,-7.0898,-7.0898,-7.0898,-7.0898,-7.0898,-7.0898,-7.0898,-7.0734,-7.0432,-7.0179,-6.9901,-6.9645,-6.9645,-6.9511,-6.9272,-6.9042,-6.8956,-6.8956,-6.8956,-6.9169,-6.9569,-7.0314,-7.0734,-7.0898,-7.0898,-7.1168,-7.1552,-7.2052,-7.2706,-7.336,-7.386,-7.4284,-7.4553,-7.4553,-7.4553,-7.4437,-7.4091,-7.2892,-7.1703,-7.1048,-6.9644,-6.8357,-6.7784,-6.7687,-6.7687,-6.7687,-6.7687,-6.7687,-6.7687,-6.7687,-6.7687,-6.7687,-6.7687,-6.7687,-6.7687,-6.7687,-6.7687,-6.7687,-6.8284,-6.8847,-6.9433,-7.0145,-7.0666,-7.0898,-7.0898,-7.0898,-7.0898,-7.0552,-6.9783,-6.859,-6.7552,-6.6667,-6.3466,-6.3613,-6.387,-6.3025,-6.3282,-6.3576,-6.2952,-6.278,-6.278,-6.278,-6.278,0.0,0.0,0.0,-6.2732,0.0,0.0,-6.3466,-6.2585,-6.3723,-6.4604,-6.4604,-6.4824,-6.5301,-6.6109,-6.5962,-6.6256,-6.7283,-6.6623,-6.6665,-6.7867,-6.8818,-6.9373,-6.953,-7.0432,-7.0898,-7.0898,-7.0898,-7.0898,-7.0898,-7.0898,-7.0898,-7.0898,-7.0898,-7.0898,-7.0898,-7.0898,-7.0666,-7.0298,-7.0009,-6.9738,-6.9492,-6.921,-6.9085,-6.9085,-6.9085,-6.9085,-6.9085,-6.9085,-6.953,-7.0179,-7.0734,-7.0898,-7.0898,-7.0898,-7.0898,-7.1014,-7.1668,-7.2014,-7.236,-7.2976,-7.3322,-7.3514,-7.3514,-7.3514,-7.3437,-7.3206,-7.2333,-7.1417,-7.0799,-6.9625,-6.859,-6.8185,-6.7878,-6.7687,-6.7687,-6.7687,-6.7687,-6.7687,-6.7687,-6.7687,-6.7687,-6.7687,-6.7687,-6.7687,-6.7687,-6.7757,-6.7904,-6.8795,-6.955,-7.0078,-7.0622,-7.0898,-7.0898,-7.0898,-7.0898,-7.0898,-7.0898,-7.0475,-6.9667,-6.8167,-6.7013,-6.4494,-6.4053,-6.387,-6.3025,-6.2817,-6.2817,-6.278,-6.278,-6.278,-6.278,-6.278,-6.278,-6.278,-6.278,0.0,0.0,0.0,0.0,0.0,-6.2365,-6.2853,-6.2853,-6.3613,-6.4457,-6.5264,-6.464,-6.4824,-6.6402,-6.5778,-6.6245,-6.8366,-6.8999,-6.955,-7.0061,-7.0622,-7.0898,-7.0898,-7.0898,-7.0898,-7.0898,-7.0898,-7.0898,-7.0898,-7.0898,-7.0898,-7.0898,-7.0898,-7.0885,-7.0791,-6.9738,-6.9626,-6.9954,-6.8935,-6.8535,-6.8535,-6.8535,-6.8535,-6.8535,-6.8535,-6.9231,-7.0179,-7.0734,-7.0898,-7.0898,-7.0898,-7.0898,-7.0898,-7.0937,-7.1552,-7.2206,-7.2206,-7.286,-7.3514,-7.3514,-7.3514,-7.3283,-7.2399,-7.2206,-7.1923,-7.1063,-7.0009,-6.9272,-6.9251,-6.8368,-6.7687,-6.7687,-6.7687,-6.7687,-6.7687,-6.7687,-6.7687,-6.7687,-6.7687,-6.7687,-6.7687,-6.7687,-6.7904,-6.844,-6.8978,-6.955,-7.0078,-7.0622,-7.0898,-7.0898,-7.0898,-7.0898,-7.0898,-7.0898,-7.0475,-6.9667,-6.8783,-6.7898,-6.5044,-6.5264,-6.5375,-6.4016,-6.4053,-6.4163,-6.3037,-6.278,-6.278,-6.278,-6.278,-6.278,-6.278,-6.278,0.0,0.0,0.0,0.0,0.0,-6.2658,-6.278,-6.278,-6.3576,-6.42,-6.4494,-6.4751,-6.5338,-6.6402,-6.658,-6.7182,-6.8413,-6.9353,-6.9901,-7.0095,-7.0622,-7.0898,-7.0898,-7.0898,-7.0898,-7.0898,-7.0898,-7.0898,-7.0898,-7.0898,-7.0898,-7.0898,-7.0898,-7.0681,-7.0314,-6.9607,-6.921,-6.8978,-6.8259,-6.7982,-6.8047,-6.8773,-6.8818,-6.8521,-6.8891,-6.9511,-7.0129,-7.0314,-7.0622,-7.0898,-7.0898,-7.0898,-7.0898,-7.0898,-7.1091,-7.1321,-7.1321,-7.1552,-7.1783,-7.1783,-7.1783,-7.1706,-7.1398,-7.1321,-7.1137,-7.0486,-6.9793,-6.919,-6.884,-6.8198,-6.7687,-6.7687,-6.7687,-6.7687,-6.7687,-6.7687,-6.7687,-6.7687,-6.7687,-6.7687,-6.7687,-6.8058,-6.8464,-6.8999,-6.955,-7.0078,-7.0622,-7.0791,-7.0898,-7.0898,-7.0898,-7.0898,-7.0898,-7.0898,-7.0744,-7.0475,-6.9667,-6.8475,-6.5815,-6.6109,-6.6182,-6.4861,-6.4934,-6.4934,-6.3576,-6.3282,-6.3172,-6.2853,-6.278,-6.278,-6.278,-6.278,0.0,0.0,0.0,0.0,0.0,-6.278,-6.278,-6.278,-6.3319,-6.3759,-6.4053,-6.431,-6.4897,-6.5999,-6.6408,-6.7104,-6.8309,-6.9263,-7.0009,-7.0362,-7.0734,-7.0898,-7.0898,-7.0898,-7.0898,-7.0898,-7.0898,-7.0898,-7.0898,-7.0898,-7.0898,-7.0898,-7.0898,-7.0681,-7.0346,-6.9793,-6.9393,-6.8999,-6.8284,-6.8007,-6.8021,-6.8558,-6.8535,-6.8308,-6.884,-6.9251,-6.9607,-6.9992,-7.033,-7.0652,-7.0857,-7.0898,-7.0821,-7.0552,-7.0667,-7.0821,-7.0552,-7.0706,-7.0898,-7.0898,-7.0898,-7.0898,-7.0898,-7.0898,-7.0791,-7.0463,-6.9936,-6.9433,-6.8869,-6.832,-6.7904,-6.7741,-6.7687,-6.7687,-6.7687,-6.7687,-6.7687,-6.7687,-6.7687,-6.7757,-6.7982,-6.8308,-6.8818,-6.955,-6.9901,-7.033,-7.0885,-7.0898,-7.0898,-7.0898,-7.0898,-7.0898,-7.0898,-7.0898,-7.0898,-7.0898,-7.0052,-6.909]},{"header":{"parameterUnit":"m.s-1","parameterCategory":1,"la1":30.6,"la2":29.2853,"lo1":-89.7004,"lo2":-87.6739,"dy":0.0162,"dx":0.0183,"nx":112,"ny":82,"refTime":"2023-03-08T06:00:00:Z","depth":0,"parameterNumber":3,"parameterNumberName":"V-component_of_WINDS"},"data":[0.0,0.0,0.0,0.0,0.0,0.0,0.0,0.0,0.0,0.0,0.0,0.0,0.0,0.0,0.0,0.0,0.0,0.0,0.0,0.0,0.0,0.0,0.0,0.0,0.0,0.0,0.0,0.0,0.0,0.0,0.0,0.0,0.0,0.0,0.0,0.0,0.0,0.0,0.0,0.0,0.0,0.0,0.0,0.0,0.0,0.0,0.0,0.0,0.0,0.0,0.0,0.0,0.0,0.0,0.0,0.0,0.0,0.0,0.0,0.0,0.0,0.0,0.0,0.0,0.0,0.0,0.0,0.0,0.0,0.0,0.0,0.0,0.0,0.0,0.0,0.0,0.0,0.0,0.0,0.0,0.0,0.0,0.0,0.0,0.0,0.0,0.0,0.0,0.0,0.0,-1.896,-1.5459,-1.3774,-1.2865,-1.2865,-1.3128,-1.4036,-1.5784,0.0,0.0,0.0,0.0,0.0,0.0,0.0,0.0,0.0,0.0,0.0,0.0,0.0,0.0,0.0,0.0,0.0,0.0,0.0,0.0,0.0,0.0,0.0,0.0,0.0,0.0,0.0,0.0,0.0,0.0,0.0,0.0,0.0,0.0,0.0,0.0,0.0,0.0,0.0,0.0,0.0,0.0,0.0,0.0,0.0,0.0,0.0,0.0,0.0,0.0,0.0,0.0,0.0,0.0,0.0,0.0,0.0,0.0,0.0,0.0,0.0,0.0,0.0,0.0,0.0,0.0,0.0,0.0,0.0,0.0,0.0,0.0,0.0,0.0,0.0,0.0,0.0,0.0,0.0,0.0,0.0,0.0,0.0,0.0,0.0,0.0,0.0,0.0,0.0,0.0,0.0,0.0,0.0,0.0,0.0,0.0,0.0,0.0,0.0,0.0,0.0,0.0,0.0,0.0,-1.5329,-1.1828,-1.124,-1.1108,-1.1108,-1.2479,-1.4036,-1.5784,0.0,0.0,0.0,0.0,0.0,0.0,0.0,0.0,0.0,0.0,0.0,0.0,0.0,0.0,0.0,0.0,0.0,0.0,0.0,0.0,0.0,0.0,0.0,0.0,0.0,0.0,0.0,0.0,0.0,0.0,0.0,0.0,0.0,0.0,0.0,0.0,0.0,0.0,0.0,0.0,0.0,0.0,0.0,0.0,0.0,0.0,0.0,0.0,0.0,0.0,0.0,0.0,0.0,0.0,0.0,0.0,0.0,0.0,0.0,0.0,0.0,0.0,0.0,0.0,0.0,0.0,0.0,0.0,0.0,0.0,0.0,0.0,0.0,0.0,0.0,0.0,0.0,0.0,0.0,0.0,0.0,0.0,0.0,0.0,0.0,0.0,0.0,0.0,0.0,0.0,0.0,0.0,0.0,0.0,0.0,0.0,0.0,0.0,0.0,0.0,0.0,0.0,0.0,-1.8896,-1.6689,-1.507,-1.4939,-1.4939,-1.4939,-1.4819,-1.5848,-1.8576,-1.6947,0.0,0.0,0.0,0.0,0.0,0.0,0.0,0.0,0.0,0.0,0.0,0.0,0.0,0.0,0.0,0.0,0.0,0.0,0.0,0.0,0.0,0.0,0.0,0.0,0.0,0.0,0.0,0.0,0.0,0.0,0.0,0.0,0.0,0.0,0.0,0.0,0.0,0.0,0.0,0.0,0.0,0.0,0.0,0.0,0.0,0.0,0.0,0.0,0.0,0.0,0.0,0.0,0.0,0.0,0.0,0.0,0.0,0.0,0.0,0.0,0.0,0.0,0.0,0.0,0.0,0.0,0.0,0.0,0.0,0.0,0.0,0.0,0.0,0.0,0.0,0.0,0.0,0.0,0.0,0.0,0.0,0.0,0.0,0.0,0.0,0.0,0.0,0.0,0.0,0.0,0.0,0.0,0.0,0.0,0.0,0.0,0.0,0.0,0.0,0.0,0.0,0.0,-1.9355,-1.8308,-1.7923,-1.7859,-1.7859,-1.7859,-1.7012,-1.7667,-2.0322,-1.8372,0.0,0.0,0.0,0.0,0.0,0.0,0.0,0.0,0.0,0.0,0.0,0.0,0.0,0.0,0.0,0.0,0.0,0.0,0.0,0.0,0.0,0.0,0.0,0.0,0.0,0.0,0.0,0.0,0.0,0.0,0.0,0.0,0.0,0.0,0.0,0.0,0.0,0.0,0.0,0.0,0.0,0.0,0.0,0.0,0.0,0.0,0.0,0.0,0.0,0.0,0.0,0.0,0.0,0.0,0.0,0.0,0.0,0.0,0.0,0.0,0.0,0.0,0.0,0.0,0.0,0.0,0.0,0.0,0.0,0.0,0.0,0.0,0.0,0.0,0.0,0.0,0.0,0.0,0.0,0.0,0.0,0.0,0.0,0.0,0.0,0.0,0.0,0.0,0.0,0.0,0.0,0.0,0.0,0.0,0.0,0.0,0.0,0.0,0.0,0.0,0.0,0.0,-1.8576,-1.7859,-1.6237,-1.6108,-1.6108,-1.6108,-1.7474,-1.8436,-1.8704,-2.0005,0.0,0.0,0.0,0.0,0.0,0.0,0.0,0.0,0.0,0.0,0.0,0.0,0.0,0.0,0.0,0.0,0.0,0.0,0.0,0.0,0.0,0.0,0.0,0.0,0.0,0.0,0.0,0.0,0.0,0.0,0.0,0.0,0.0,0.0,0.0,0.0,0.0,0.0,0.0,0.0,0.0,0.0,0.0,0.0,0.0,0.0,0.0,0.0,0.0,0.0,0.0,0.0,0.0,0.0,0.0,0.0,0.0,0.0,0.0,0.0,0.0,0.0,0.0,0.0,0.0,0.0,0.0,0.0,0.0,0.0,0.0,0.0,0.0,0.0,0.0,0.0,0.0,0.0,0.0,0.0,0.0,0.0,0.0,0.0,0.0,0.0,0.0,0.0,0.0,0.0,0.0,0.0,0.0,0.0,0.0,0.0,0.0,0.0,0.0,0.0,0.0,0.0,-2.0132,-1.9877,-1.9228,-1.818,-1.7988,-1.9024,-1.7731,-1.7795,-2.0005,0.0,0.0,0.0,0.0,0.0,0.0,0.0,0.0,0.0,0.0,0.0,0.0,0.0,0.0,0.0,0.0,0.0,0.0,0.0,0.0,0.0,0.0,0.0,0.0,0.0,0.0,0.0,0.0,0.0,0.0,0.0,0.0,0.0,0.0,0.0,0.0,0.0,0.0,0.0,0.0,0.0,0.0,0.0,0.0,0.0,0.0,0.0,0.0,0.0,0.0,0.0,0.0,0.0,0.0,0.0,0.0,0.0,0.0,0.0,0.0,0.0,0.0,0.0,0.0,0.0,0.0,0.0,0.0,0.0,0.0,0.0,0.0,0.0,0.0,0.0,0.0,0.0,0.0,0.0,0.0,0.0,0.0,0.0,0.0,0.0,0.0,0.0,0.0,0.0,0.0,0.0,0.0,0.0,0.0,0.0,0.0,0.0,0.0,0.0,0.0,0.0,0.0,-2.1109,-2.1109,-2.1109,-2.1109,-2.0068,-1.9801,-2.0982,-1.8896,-1.8576,-2.0982,0.0,0.0,0.0,0.0,0.0,0.0,0.0,0.0,0.0,0.0,0.0,0.0,0.0,0.0,0.0,0.0,0.0,0.0,0.0,0.0,0.0,0.0,0.0,0.0,0.0,0.0,0.0,0.0,0.0,0.0,0.0,0.0,0.0,0.0,0.0,0.0,0.0,0.0,0.0,0.0,0.0,0.0,0.0,0.0,0.0,0.0,0.0,0.0,0.0,0.0,0.0,0.0,0.0,0.0,0.0,0.0,0.0,0.0,0.0,0.0,0.0,0.0,0.0,0.0,0.0,0.0,0.0,0.0,0.0,0.0,0.0,0.0,0.0,0.0,0.0,0.0,0.0,0.0,0.0,0.0,0.0,0.0,0.0,0.0,0.0,0.0,0.0,0.0,0.0,0.0,0.0,0.0,0.0,0.0,0.0,0.0,0.0,0.0,0.0,0.0,0.0,0.0,-2.1109,-2.1109,-2.1109,-2.1109,-2.1109,-2.1109,-2.1109,-2.1109,-2.1109,0.0,0.0,0.0,0.0,0.0,0.0,0.0,0.0,0.0,0.0,0.0,0.0,0.0,0.0,0.0,0.0,0.0,0.0,0.0,0.0,0.0,0.0,0.0,0.0,0.0,0.0,0.0,0.0,0.0,0.0,0.0,0.0,0.0,0.0,0.0,0.0,0.0,0.0,0.0,0.0,0.0,0.0,0.0,0.0,0.0,0.0,0.0,0.0,0.0,0.0,0.0,0.0,0.0,0.0,0.0,0.0,0.0,0.0,0.0,0.0,0.0,0.0,0.0,0.0,0.0,0.0,0.0,0.0,0.0,0.0,0.0,0.0,0.0,0.0,0.0,0.0,0.0,0.0,0.0,0.0,0.0,0.0,0.0,0.0,0.0,0.0,0.0,0.0,0.0,0.0,0.0,0.0,0.0,0.0,0.0,0.0,0.0,0.0,0.0,0.0,0.0,0.0,0.0,-2.1109,-2.1109,-2.1109,-2.1109,-2.0005,-1.9737,-2.0982,-2.0005,-1.9801,-2.1046,0.0,0.0,0.0,0.0,0.0,0.0,0.0,0.0,0.0,0.0,0.0,0.0,0.0,0.0,0.0,0.0,0.0,0.0,0.0,0.0,0.0,0.0,0.0,0.0,0.0,0.0,0.0,0.0,0.0,0.0,0.0,0.0,0.0,0.0,0.0,0.0,0.0,0.0,0.0,0.0,0.0,0.0,0.0,0.0,0.0,0.0,0.0,0.0,0.0,0.0,0.0,0.0,0.0,0.0,0.0,0.0,0.0,0.0,0.0,0.0,0.0,0.0,0.0,0.0,0.0,0.0,0.0,0.0,0.0,0.0,0.0,0.0,0.0,0.0,0.0,0.0,0.0,0.0,0.0,0.0,0.0,0.0,0.0,0.0,0.0,0.0,0.0,0.0,0.0,0.0,0.0,0.0,0.0,0.0,0.0,0.0,0.0,0.0,0.0,0.0,0.0,0.0,-2.1109,-2.1216,-2.1243,-2.1122,-2.0298,-2.0119,-2.0996,-2.0132,-2.0005,-2.1046,0.0,0.0,0.0,0.0,0.0,0.0,0.0,0.0,0.0,0.0,0.0,0.0,0.0,0.0,0.0,0.0,0.0,0.0,0.0,0.0,0.0,0.0,0.0,0.0,0.0,0.0,0.0,0.0,0.0,0.0,0.0,0.0,0.0,0.0,0.0,0.0,0.0,0.0,0.0,0.0,0.0,0.0,0.0,0.0,0.0,0.0,0.0,0.0,0.0,0.0,0.0,0.0,0.0,0.0,0.0,0.0,0.0,0.0,0.0,0.0,0.0,0.0,0.0,0.0,0.0,0.0,0.0,0.0,0.0,0.0,0.0,0.0,0.0,0.0,0.0,0.0,0.0,0.0,0.0,0.0,0.0,0.0,0.0,0.0,0.0,0.0,0.0,0.0,0.0,0.0,0.0,0.0,0.0,0.0,0.0,0.0,0.0,0.0,0.0,0.0,0.0,0.0,-2.1189,-2.143,-2.1483,-2.1216,-2.143,-2.147,-2.1176,-2.1149,-2.1136,-2.1109,0.0,0.0,0.0,0.0,0.0,0.0,0.0,0.0,0.0,0.0,0.0,0.0,0.0,0.0,0.0,0.0,0.0,0.0,0.0,0.0,0.0,0.0,0.0,0.0,0.0,0.0,0.0,0.0,0.0,0.0,0.0,0.0,0.0,0.0,0.0,0.0,0.0,0.0,0.0,0.0,0.0,0.0,0.0,0.0,0.0,0.0,0.0,0.0,0.0,0.0,0.0,0.0,0.0,0.0,0.0,0.0,0.0,0.0,0.0,0.0,-1.9813,-1.9706,0.0,0.0,0.0,0.0,0.0,0.0,0.0,0.0,0.0,0.0,0.0,0.0,0.0,0.0,0.0,0.0,0.0,0.0,0.0,0.0,0.0,0.0,0.0,0.0,0.0,0.0,0.0,0.0,0.0,0.0,0.0,0.0,0.0,0.0,0.0,0.0,0.0,0.0,0.0,0.0,-2.1764,-2.1857,-2.1871,-2.1804,-2.1857,-2.1777,-2.1547,-2.1521,-2.1363,-2.1122,-2.1109,0.0,0.0,0.0,0.0,0.0,0.0,0.0,0.0,0.0,0.0,0.0,0.0,0.0,0.0,0.0,0.0,0.0,0.0,0.0,0.0,0.0,0.0,0.0,0.0,0.0,0.0,0.0,0.0,0.0,0.0,0.0,0.0,0.0,0.0,0.0,0.0,0.0,0.0,0.0,0.0,0.0,0.0,0.0,0.0,0.0,0.0,0.0,0.0,0.0,0.0,0.0,0.0,0.0,0.0,0.0,0.0,0.0,0.0,0.0,-2.0254,-1.9933,0.0,0.0,0.0,0.0,0.0,0.0,0.0,0.0,0.0,0.0,0.0,0.0,0.0,0.0,0.0,0.0,0.0,0.0,0.0,0.0,0.0,0.0,0.0,0.0,0.0,0.0,0.0,0.0,0.0,0.0,0.0,0.0,0.0,0.0,0.0,0.0,0.0,0.0,0.0,0.0,-2.1964,-2.2111,-2.2138,-2.2004,-2.2111,-2.2071,-2.179,-2.1764,-2.163,-2.1336,-2.1323,0.0,0.0,0.0,0.0,0.0,0.0,0.0,0.0,0.0,0.0,0.0,0.0,0.0,0.0,0.0,0.0,0.0,0.0,0.0,0.0,0.0,0.0,0.0,0.0,0.0,0.0,0.0,0.0,0.0,0.0,0.0,0.0,0.0,0.0,0.0,0.0,0.0,0.0,0.0,0.0,0.0,0.0,0.0,0.0,0.0,0.0,0.0,0.0,0.0,0.0,0.0,0.0,0.0,-2.1042,-2.1189,-2.1189,-2.1243,-2.139,-2.1655,-2.0855,-2.0374,-2.012,-2.0307,0.0,0.0,0.0,0.0,0.0,0.0,0.0,0.0,0.0,0.0,0.0,0.0,0.0,0.0,0.0,0.0,0.0,0.0,0.0,0.0,0.0,0.0,-2.0535,-2.1122,-2.1269,-2.1269,-2.1269,0.0,0.0,0.0,0.0,0.0,0.0,0.0,0.0,0.0,0.0,0.0,-2.2138,-2.2352,-2.2405,-2.2164,-2.2352,-2.2378,-2.2084,-2.2058,-2.1937,-2.1708,-2.1641,-2.1507,0.0,0.0,0.0,0.0,0.0,0.0,0.0,0.0,0.0,0.0,0.0,0.0,0.0,0.0,0.0,0.0,0.0,0.0,0.0,0.0,0.0,0.0,0.0,0.0,0.0,0.0,0.0,0.0,0.0,0.0,0.0,0.0,-2.0027,-1.9773,0.0,0.0,0.0,0.0,0.0,0.0,0.0,0.0,0.0,0.0,0.0,0.0,0.0,-2.0561,-2.0561,-2.0882,-2.1056,-2.1056,-2.1349,-2.1561,-2.1574,-2.1764,-2.1897,-2.1924,-2.1804,0.0,-2.1373,-2.1082,0.0,0.0,0.0,0.0,0.0,0.0,0.0,0.0,0.0,0.0,0.0,0.0,0.0,0.0,0.0,0.0,0.0,0.0,0.0,0.0,0.0,0.0,-2.1136,-2.1737,-2.1871,-2.1871,-2.1871,-2.167,-2.1563,-2.1817,-2.1871,-2.1884,0.0,0.0,0.0,0.0,0.0,0.0,-2.2712,-2.2779,-2.2792,-2.282,-2.2779,-2.2686,-2.2392,-2.2365,-2.2231,-2.1951,-2.1762,-2.1601,-2.1561,-2.1243,0.0,0.0,0.0,0.0,0.0,0.0,0.0,0.0,0.0,0.0,0.0,0.0,0.0,0.0,0.0,0.0,0.0,0.0,0.0,0.0,0.0,0.0,0.0,0.0,0.0,0.0,0.0,0.0,0.0,-1.9813,-1.988,-1.9586,-1.9693,-1.9679,0.0,0.0,0.0,0.0,0.0,0.0,0.0,0.0,0.0,-2.0535,-2.0949,-2.1239,-2.1239,-2.1617,-2.1844,-2.1844,-2.2151,-2.2351,-2.2365,-2.2418,-2.2485,-2.2485,-2.2485,-2.2405,-2.2325,-2.179,-2.143,-2.1239,0.0,0.0,0.0,0.0,-2.0869,-2.0722,-2.0722,-2.0722,-2.0722,-2.0722,0.0,0.0,0.0,0.0,0.0,0.0,0.0,-2.0575,-2.1002,-2.1229,-2.147,-2.1884,-2.1991,-2.2031,-2.2191,-2.2124,-2.2031,-2.1991,-2.1991,-2.2031,-2.2205,-2.2231,0.0,0.0,0.0,-2.2712,-2.2914,-2.2928,-2.2928,-2.2928,-2.2928,-2.2806,-2.2672,-2.2672,-2.2539,-2.2245,-2.2111,-2.1964,-2.1804,-2.151,-2.1363,0.0,0.0,0.0,0.0,0.0,0.0,0.0,0.0,0.0,0.0,0.0,0.0,0.0,0.0,0.0,0.0,0.0,0.0,0.0,0.0,0.0,0.0,0.0,0.0,0.0,0.0,0.0,0.0,-1.98,-1.9893,-1.9519,-1.9733,-1.98,0.0,0.0,0.0,0.0,0.0,0.0,-2.0441,-2.0735,-2.1002,-2.1216,-2.1577,-2.1777,-2.1777,-2.2285,-2.2539,-2.2539,-2.2752,-2.2928,-2.2928,-2.2928,-2.2928,-2.2928,-2.2928,-2.2928,-2.2887,-2.2311,-2.1964,-2.179,-2.1937,-2.1857,-2.1735,-2.1735,-2.1523,-2.1336,-2.1336,-2.1336,-2.1336,-2.1336,-2.1336,-2.1336,-2.1336,0.0,0.0,0.0,0.0,-2.1082,-2.1363,-2.1617,-2.1871,-2.2245,-2.2325,-2.2405,-2.2699,-2.2766,-2.2659,-2.2285,-2.2205,-2.2271,-2.2498,-2.2539,0.0,-2.2832,-2.2928,-2.2928,-2.2928,-2.2928,-2.2928,-2.2928,-2.2928,-2.2928,-2.2928,-2.2928,-2.2766,-2.2539,-2.2458,-2.2325,-2.2111,-2.1817,-2.1695,-2.1614,0.0,0.0,0.0,0.0,0.0,0.0,0.0,0.0,0.0,0.0,0.0,0.0,0.0,0.0,0.0,0.0,0.0,0.0,0.0,0.0,0.0,0.0,0.0,0.0,0.0,0.0,0.0,0.0,0.0,-1.9853,-2.004,0.0,0.0,0.0,0.0,-2.0561,-2.0628,-2.0762,-2.1056,-2.1349,-2.1574,-2.1601,-2.2084,-2.2378,-2.2378,-2.2686,-2.2846,-2.2914,-2.2928,-2.2928,-2.2928,-2.2928,-2.2928,-2.2928,-2.2928,-2.2928,-2.2832,-2.2525,-2.2392,-2.2352,-2.2084,-2.1977,-2.1964,-2.1964,-2.1951,-2.1937,-2.1937,-2.1937,-2.1937,-2.1937,-2.1937,-2.1937,-2.1937,-2.1937,0.0,0.0,-2.1911,-2.1991,-2.2271,-2.2365,-2.2525,-2.3126,-2.326,-2.334,-2.3634,-2.3701,-2.3527,-2.3008,-2.2819,-2.2887,-2.2832,0.0,-2.2914,-2.2928,-2.2928,-2.2928,-2.2928,-2.2928,-2.2928,-2.2928,-2.2928,-2.2928,-2.2928,-2.2928,-2.2928,-2.2914,-2.2579,-2.2405,-2.2392,-2.2124,-2.183,-2.1614,-2.1601,0.0,0.0,0.0,0.0,0.0,0.0,0.0,0.0,0.0,0.0,0.0,0.0,0.0,0.0,0.0,0.0,0.0,0.0,0.0,0.0,0.0,0.0,0.0,0.0,0.0,0.0,0.0,0.0,-2.0668,-2.0909,0.0,-2.0668,-2.0641,-2.0735,-2.0935,-2.1136,-2.1363,-2.1657,-2.1951,-2.2191,-2.2459,-2.2592,-2.2699,-2.2699,-2.2806,-2.2928,-2.2928,-2.2928,-2.2928,-2.2928,-2.2928,-2.2928,-2.2928,-2.2928,-2.2928,-2.2928,-2.2752,-2.2699,-2.2699,-2.2592,-2.2552,-2.2552,-2.2552,-2.2552,-2.2552,-2.2552,-2.2552,-2.2552,-2.2552,-2.2552,-2.2512,-2.2325,-2.2392,-2.2512,-2.2325,-2.2552,-2.2873,-2.2979,-2.314,-2.334,-2.3567,-2.3607,-2.3647,-2.3754,-2.3768,-2.3701,-2.3487,-2.3447,-2.3447,-2.3447,-2.3447,-2.3447,-2.3447,-2.3447,-2.3447,-2.3447,-2.3447,-2.3447,-2.3447,-2.3273,-2.3166,-2.3166,-2.2979,-2.2928,-2.2928,-2.2766,-2.2699,-2.2699,-2.2418,-2.2218,-2.2111,-2.1815,-2.1561,0.0,0.0,0.0,0.0,0.0,0.0,0.0,0.0,0.0,0.0,0.0,0.0,0.0,0.0,0.0,0.0,0.0,0.0,0.0,0.0,0.0,0.0,0.0,0.0,0.0,-2.1015,-2.1216,-2.1122,-2.1376,-2.1534,-2.1283,-2.1256,-2.1336,-2.1537,-2.1737,-2.1977,-2.2271,-2.2458,-2.2659,-2.2928,-2.2928,-2.2928,-2.2928,-2.2928,-2.2928,-2.2928,-2.2928,-2.2928,-2.2928,-2.2928,-2.2928,-2.2928,-2.2928,-2.2928,-2.2928,-2.2928,-2.2928,-2.2928,-2.2928,-2.2928,-2.2928,-2.2928,-2.2928,-2.2928,-2.2928,-2.2928,-2.2886,-2.2979,-2.302,-2.3006,-2.2899,-2.3006,-2.3126,-2.2926,-2.3166,-2.3474,-2.3474,-2.3621,-2.3794,-2.3888,-2.3915,-2.3941,-2.4035,-2.4062,-2.4062,-2.4062,-2.3901,-2.3768,-2.3768,-2.3768,-2.3768,-2.3768,-2.3768,-2.3768,-2.3768,-2.3768,-2.3768,-2.3768,-2.3594,-2.3434,-2.334,-2.314,-2.2979,-2.2941,-2.2928,-2.2928,-2.2928,-2.2672,-2.2525,-2.2418,-2.1951,-2.1722,-2.1614,0.0,0.0,0.0,0.0,0.0,0.0,0.0,0.0,0.0,0.0,0.0,0.0,0.0,0.0,0.0,0.0,0.0,0.0,0.0,0.0,0.0,0.0,0.0,-2.0815,-2.1279,-2.1483,-2.1203,-2.1416,-2.1655,-2.1655,-2.1655,-2.183,-2.2392,-2.2432,-2.2565,-2.2846,-2.2928,-2.2928,-2.2928,-2.2928,-2.2928,-2.2928,-2.2928,-2.2928,-2.2873,-2.2873,-2.2954,-2.2954,-2.2954,-2.2954,-2.2954,-2.2954,-2.2954,-2.2954,-2.2954,-2.2954,-2.2954,-2.2941,-2.2928,-2.2928,-2.2928,-2.2941,-2.2873,-2.2886,-2.2954,-2.2939,-2.3247,-2.334,-2.3394,-2.3688,-2.3781,-2.3781,-2.3781,-2.3794,-2.3794,-2.3794,-2.3794,-2.3875,-2.4155,-2.4222,-2.4289,-2.4569,-2.4636,-2.4636,-2.4636,-2.4182,-2.3794,-2.3794,-2.3794,-2.3794,-2.3794,-2.3794,0.0,-2.3794,-2.3794,-2.3794,-2.3794,-2.3794,-2.3661,-2.338,-2.334,-2.3193,-2.2968,-2.2873,-2.2928,-2.2928,-2.2928,-2.2726,-2.2432,-2.2138,-2.1857,-2.1628,0.0,0.0,0.0,0.0,0.0,0.0,0.0,0.0,0.0,0.0,0.0,0.0,0.0,0.0,0.0,0.0,0.0,0.0,0.0,0.0,0.0,-2.1911,-2.2124,-2.1964,-2.2084,-2.2231,-2.2365,-2.2526,-2.2566,-2.2566,-2.2566,-2.2565,-2.2726,-2.2739,-2.2779,-2.2928,-2.2928,-2.2928,-2.2928,-2.2928,-2.2928,-2.2928,-2.2928,-2.2979,-2.3193,-2.3193,-2.3313,-2.3514,-2.3514,-2.3514,-2.3514,-2.3514,-2.3514,-2.3514,-2.3514,-2.3514,-2.3474,-2.3102,-2.2928,-2.2928,-2.2928,-2.3006,-2.3233,-2.3447,-2.3514,-2.3541,-2.3621,-2.3647,-2.3661,-2.3741,-2.3915,-2.4088,-2.4088,-2.4235,-2.4396,-2.4396,-2.4396,-2.4422,-2.4502,-2.4516,-2.4543,-2.4549,-2.4636,-2.4636,-2.4636,-2.4502,-2.4396,-2.4396,-2.4396,-2.4396,-2.4396,-2.4396,-2.4396,-2.4396,-2.4396,-2.4396,-2.4396,-2.4209,-2.4048,-2.3968,-2.3567,-2.3287,-2.3207,-2.2993,-2.2928,-2.2928,-2.2928,-2.2726,-2.2432,-2.2338,-2.2151,0.0,0.0,0.0,0.0,0.0,0.0,0.0,0.0,0.0,0.0,0.0,0.0,0.0,0.0,0.0,0.0,0.0,0.0,0.0,0.0,0.0,0.0,-2.2124,-2.2458,-2.2592,-2.2605,-2.2672,-2.2914,-2.2928,-2.2928,-2.2928,-2.2928,-2.2928,-2.2928,-2.2928,-2.2928,-2.2928,-2.2928,-2.2928,-2.2928,-2.2993,-2.306,-2.306,-2.318,-2.334,-2.3514,-2.3514,-2.3607,-2.3768,-2.3768,-2.3768,-2.3768,-2.3768,-2.3768,-2.3768,-2.3768,-2.3768,-2.3741,0.0,0.0,0.0,0.0,-2.3354,-2.3541,-2.3714,-2.3768,-2.3794,-2.3915,-2.3955,-2.3981,-2.4102,-2.4249,-2.4382,-2.4382,-2.4502,-2.4636,-2.4636,-2.4636,-2.4636,-2.4636,-2.4636,-2.4636,-2.4636,-2.4636,-2.4636,-2.4636,-2.4636,0.0,-2.4636,-2.4636,-2.4636,-2.4636,-2.4636,-2.4636,-2.4636,-2.4636,-2.4636,-2.4636,-2.4489,-2.4342,-2.4209,-2.3888,0.0,0.0,0.0,-2.2993,-2.2873,-2.2928,0.0,0.0,0.0,-2.2458,-2.2164,-2.2164,0.0,0.0,-2.1483,-2.1483,0.0,0.0,0.0,0.0,0.0,0.0,0.0,0.0,0.0,0.0,0.0,0.0,0.0,0.0,0.0,0.0,-2.2258,-2.2565,-2.2887,-2.2928,-2.2928,-2.2928,-2.2928,-2.2928,-2.2928,-2.2928,-2.2928,-2.2928,-2.2928,-2.2873,-2.2913,-2.2913,0.0,0.0,0.0,-2.338,-2.338,-2.3634,-2.3794,-2.3821,-2.3821,-2.3834,-2.3875,-2.3875,-2.3875,-2.3875,-2.3875,-2.3875,-2.3875,-2.3875,-2.3875,-2.3861,-2.3794,-2.3768,-2.3768,-2.3808,-2.3821,-2.3821,-2.3861,0.0,0.0,-2.4168,-2.4249,-2.4302,-2.4556,-2.4636,-2.4636,-2.4636,-2.4636,-2.4636,-2.4636,-2.4636,-2.4636,-2.4636,-2.4636,-2.4636,-2.4636,-2.4636,-2.4636,-2.4636,-2.4636,-2.4636,-2.4636,-2.4636,-2.4636,-2.4636,-2.4636,-2.4636,-2.4636,-2.4636,-2.4636,-2.4636,-2.4636,0.0,-2.4275,-2.4222,-2.4102,-2.3834,-2.3514,-2.3207,-2.2926,-2.2954,-2.2928,-2.2928,-2.2928,-2.2726,-2.2472,-2.2472,-2.2338,-2.2084,-2.2017,-2.1991,0.0,0.0,0.0,0.0,0.0,0.0,0.0,0.0,0.0,0.0,0.0,0.0,0.0,0.0,0.0,-2.1977,-2.2432,-2.2792,-2.2928,-2.2928,-2.2928,-2.2928,-2.2928,-2.2928,-2.2928,-2.2928,-2.2928,-2.2928,-2.2928,-2.2966,-2.322,-2.3233,-2.3354,-2.3594,-2.3661,-2.3688,-2.3688,-2.3741,-2.3888,-2.4115,-2.4115,0.0,-2.4476,-2.4476,-2.4476,-2.4476,-2.4476,-2.4476,-2.4476,-2.4476,-2.4476,-2.4422,-2.3955,-2.3768,-2.3794,-2.4035,-2.4115,-2.4155,-2.4382,-2.4476,-2.4476,-2.4529,-2.4556,-2.4569,-2.4549,-2.4636,0.0,-2.4636,-2.4636,-2.4636,-2.4636,-2.4636,-2.4636,-2.4636,-2.4636,-2.4636,-2.4636,-2.4636,-2.4636,-2.4636,-2.4636,-2.4636,-2.4636,-2.4636,-2.4636,-2.4636,-2.4636,-2.4636,-2.4636,-2.4636,-2.4636,-2.4636,-2.4636,-2.4609,-2.4556,-2.4342,-2.4182,-2.4128,-2.3621,-2.33,-2.3247,-2.2993,-2.2928,-2.2928,-2.2928,-2.2901,-2.2779,-2.2779,-2.2752,-2.2686,-2.2205,-2.1991,0.0,0.0,0.0,0.0,0.0,0.0,0.0,0.0,0.0,0.0,0.0,-2.155,-2.155,0.0,-2.2205,-2.2205,-2.2579,-2.2928,-2.2928,-2.2993,-2.3033,-2.2954,-2.2928,-2.2926,-2.3086,-2.31,-2.3153,-2.33,-2.3313,-2.338,-2.3541,-2.3554,-2.3621,-2.3768,-2.3915,-2.3981,-2.3981,-2.4128,-2.4275,-2.4422,-2.4422,-2.4489,-2.4636,-2.4636,-2.4636,-2.4636,-2.4636,-2.4636,-2.4636,-2.4636,-2.4636,-2.4609,-2.4315,-2.4209,-2.4222,-2.4369,-2.4422,-2.4436,-2.4583,-2.4636,-2.4636,-2.4636,-2.4636,-2.4636,-2.4636,-2.4636,-2.4636,-2.4636,-2.4636,-2.4676,-2.4823,-2.4863,-2.489,-2.5037,-2.5077,-2.5077,-2.5077,-2.4957,-2.4863,-2.4863,-2.4743,-2.4636,-2.4636,-2.4636,-2.4636,-2.4636,-2.4636,-2.4636,-2.4636,-2.4636,-2.4636,-2.4636,-2.4636,-2.4636,-2.4636,-2.4502,-2.4356,-2.4209,-2.3928,-2.3634,-2.334,-2.318,-2.302,-2.2928,-2.2928,-2.2928,-2.2928,-2.2928,-2.2928,-2.2928,-2.2565,-2.2418,0.0,0.0,0.0,0.0,0.0,0.0,0.0,0.0,-2.1775,-2.1937,-2.1991,-2.1991,-2.1991,-2.2218,-2.2418,-2.2418,-2.2726,-2.2953,-2.2953,-2.322,-2.3313,-2.3073,-2.3046,-2.314,-2.3394,-2.3407,-2.3514,-2.3754,-2.3768,-2.3794,-2.3848,-2.3848,-2.3875,-2.3941,-2.4168,-2.4289,-2.4289,-2.4516,-2.4636,-2.4636,-2.4636,-2.4636,-2.4636,-2.4636,-2.4636,-2.4636,-2.4636,-2.4636,-2.4636,-2.4636,-2.4636,-2.4636,-2.4636,-2.4636,-2.4636,-2.4636,-2.4636,-2.4636,-2.4636,-2.4636,-2.4636,-2.4636,-2.4636,-2.4636,-2.4636,-2.4676,-2.4716,-2.4716,-2.477,-2.4863,-2.5104,-2.5157,-2.5224,-2.5464,-2.5518,-2.5518,-2.5518,-2.5331,-2.5144,-2.509,-2.489,-2.4703,-2.4649,-2.4636,-2.4636,-2.4636,-2.4636,-2.4636,-2.4636,-2.4636,-2.4636,-2.4636,-2.4636,-2.4636,-2.4636,-2.4636,-2.4529,-2.4302,-2.4235,-2.3995,-2.3514,-2.3447,-2.3273,-2.2953,-2.2953,-2.2926,-2.2928,-2.2928,-2.2928,-2.2928,-2.2928,-2.2928,-2.1122,-2.1349,-2.1655,-2.1628,-2.175,-2.1937,0.0,0.0,-2.1951,-2.1977,-2.1991,-2.1991,-2.1991,-2.2218,-2.2418,-2.2418,-2.2899,-2.3273,-2.3273,-2.3527,-2.3714,-2.3674,-2.3674,-2.3688,-2.3714,-2.3728,-2.3728,-2.3768,-2.3768,-2.3888,-2.4142,-2.4155,-2.4275,-2.4529,-2.4569,-2.4596,-2.4596,-2.4623,-2.4636,-2.4636,-2.4636,-2.4636,-2.4636,-2.4636,-2.4636,-2.4636,-2.4636,-2.4636,-2.4636,-2.4636,-2.4636,-2.4636,-2.4636,-2.4636,-2.4636,-2.4636,-2.4636,-2.4636,-2.4636,-2.4636,-2.4636,-2.4636,-2.4636,-2.4636,-2.4636,-2.4823,-2.5037,-2.5037,-2.5211,-2.5424,-2.5451,-2.5464,-2.5478,-2.5504,-2.5518,-2.5518,-2.5518,-2.5491,-2.5384,-2.513,-2.505,-2.4943,-2.4676,-2.4636,-2.4636,-2.4636,-2.4636,-2.4636,-2.4636,-2.4636,-2.4636,-2.4636,-2.4636,-2.4636,-2.4636,-2.4636,-2.4623,-2.4596,-2.4342,-2.4168,-2.4102,-2.3861,-2.3581,-2.3287,-2.3273,-2.314,-2.2928,-2.2928,-2.2928,-2.2928,-2.2928,-2.2928,-2.183,-2.1844,-2.1844,0.0,-2.2151,-2.2231,-2.2231,-2.2231,-2.2285,-2.2458,-2.2498,-2.2498,-2.2498,-2.2739,-2.2939,0.0,-2.3313,-2.3581,-2.3581,-2.3834,-2.4022,-2.4022,-2.4168,-2.4209,-2.4035,-2.4022,-2.4088,-2.4262,-2.4275,-2.4329,-2.4449,-2.4449,-2.4516,-2.4636,-2.4636,-2.4636,-2.4636,-2.4636,-2.4636,-2.4636,-2.4636,-2.4636,-2.4636,-2.4636,-2.4636,-2.4636,-2.4636,-2.4636,-2.4636,-2.4636,-2.4636,-2.4636,-2.4636,-2.4636,-2.4636,-2.4636,-2.4636,-2.4636,-2.4636,-2.4636,-2.4636,-2.4636,-2.4756,-2.489,-2.489,-2.5104,-2.5331,-2.5331,-2.5424,-2.5558,-2.5732,-2.5772,-2.5812,-2.5985,-2.6026,-2.6026,-2.6026,-2.5892,-2.5732,-2.5611,-2.5317,-2.5037,-2.4917,-2.4756,-2.4636,-2.4636,-2.4636,-2.4636,-2.4636,-2.4636,-2.4636,-2.4636,-2.4636,-2.4636,-2.4636,-2.4636,-2.4636,-2.4636,-2.4516,-2.4382,-2.4209,-2.4088,-2.3888,-2.3594,-2.3581,-2.3434,-2.314,-2.314,-2.3046,-2.2928,-2.2928,-2.2928,-2.2098,0.0,0.0,-2.2352,-2.2485,-2.2539,-2.2539,-2.2539,-2.2605,-2.2819,-2.2926,-2.2993,-2.2993,-2.3247,-2.3447,-2.3447,-2.3701,-2.3888,-2.3888,-2.4142,-2.4329,-2.4329,-2.4516,-2.4556,-2.4342,-2.4329,-2.4409,-2.4623,-2.4636,-2.4636,-2.4636,-2.4636,-2.4636,-2.4636,-2.4636,-2.4636,-2.4636,-2.4636,-2.4636,-2.4636,-2.4636,-2.4636,-2.4636,-2.4636,-2.4636,-2.4636,-2.4636,-2.4636,-2.4636,-2.4636,-2.4636,-2.4636,-2.4636,-2.4636,-2.4649,-2.473,-2.4703,-2.4649,-2.473,-2.4756,-2.477,-2.485,-2.5024,-2.5197,-2.5197,-2.5398,-2.5638,-2.5638,-2.5692,-2.5798,-2.6026,-2.6079,-2.6132,-2.6333,-2.6386,-2.6386,-2.6386,-2.6226,-2.6052,-2.605,-2.5611,-2.5264,-2.5104,-2.4903,-2.473,-2.4649,-2.4636,-2.4636,-2.4636,-2.4636,-2.4636,-2.4636,-2.4636,-2.4636,-2.4636,-2.4636,-2.4636,-2.4636,-2.4636,-2.4543,-2.4329,-2.4329,-2.4182,-2.3901,-2.3888,-2.3741,-2.3447,-2.3367,-2.3207,-2.2993,-2.2899,-2.2928,0.0,0.0,-2.2058,-2.2352,-2.2632,-2.2846,-2.2846,-2.2846,-2.2914,-2.2928,-2.31,-2.3313,-2.3313,-2.3554,-2.3754,-2.3754,-2.3995,-2.4195,-2.4195,-2.4436,-2.4623,-2.4623,-2.4636,-2.4636,0.0,-2.4623,-2.4623,-2.4636,-2.4636,-2.4636,-2.4636,-2.4636,-2.4636,-2.4636,-2.4636,-2.4636,-2.4636,-2.4636,-2.4636,-2.4636,-2.4636,-2.4636,-2.4636,-2.4636,-2.4636,-2.4636,-2.4636,-2.4636,-2.4636,-2.4636,-2.4636,-2.4636,-2.4636,-2.4636,-2.4676,-2.4957,-2.489,-2.4676,-2.497,-2.5064,-2.5117,-2.5398,-2.5491,-2.5504,-2.5504,-2.5705,-2.5945,-2.5945,-2.6146,-2.636,-2.6373,-2.6373,-2.6373,-2.6386,-2.6386,-2.6386,-2.6386,-2.6386,-2.6293,-2.609,-2.6023,-2.5822,-2.5184,-2.5077,-2.497,-2.4676,-2.4636,-2.4636,-2.4636,-2.4636,-2.4636,-2.4636,-2.4636,-2.4636,-2.4636,-2.4636,-2.4636,-2.4636,-2.4636,-2.4636,-2.4623,-2.4623,-2.4489,-2.4195,-2.4195,-2.4048,-2.3754,-2.3474,-2.3327,-2.33,-2.3006,-2.2928,0.0,0.0,-2.2338,-2.2645,-2.2792,-2.2928,-2.2928,-2.302,-2.3166,-2.3166,-2.326,-2.3327,-2.3327,-2.3567,-2.3768,-2.3768,-2.4168,-2.4489,-2.4489,-2.4569,-2.4636,-2.4636,-2.4636,0.0,0.0,0.0,0.0,-2.4636,-2.4636,-2.4636,-2.4636,-2.4636,-2.4636,-2.4636,-2.4636,-2.4636,-2.4636,-2.4636,-2.4636,-2.4636,-2.4636,-2.4636,-2.4636,-2.4636,-2.4636,-2.4636,-2.4636,-2.4636,-2.4649,-2.485,-2.493,-2.4957,-2.5144,-2.5211,-2.5237,-2.5331,-2.5304,-2.5237,-2.5331,-2.5371,-2.5384,-2.5478,-2.5651,-2.5812,-2.5812,-2.6012,-2.6239,-2.6239,-2.6319,-2.6386,-2.6386,-2.6386,-2.6386,-2.6386,-2.6386,-2.6386,-2.6386,-2.6386,-2.636,-2.6266,-2.6092,-2.597,-2.5692,-2.5344,-2.4983,-2.4676,-2.4636,-2.4636,-2.4636,-2.4636,-2.4636,-2.4636,-2.4636,-2.4636,-2.4636,-2.4636,-2.4636,-2.4636,-2.4636,-2.4636,-2.4636,-2.4636,-2.4596,-2.4489,-2.4489,-2.4342,-2.4062,-2.3955,-2.3808,-2.3621,-2.3313,-2.3166,0.0,-2.2271,-2.2485,-2.2792,-2.2928,-2.2954,-2.3006,-2.318,-2.3354,-2.346,-2.3487,-2.3487,-2.3487,-2.3647,-2.3768,-2.3768,-2.4088,-2.4369,-2.4462,-2.4476,-2.4516,-2.4623,-2.4636,-2.4636,0.0,0.0,0.0,-2.4636,-2.4636,-2.4636,-2.4636,-2.4636,-2.4636,-2.4636,-2.4636,-2.4636,-2.4636,-2.4636,-2.469,-2.4796,-2.4903,-2.4943,-2.4943,-2.4943,-2.4943,-2.4943,-2.4943,-2.4943,-2.497,-2.5157,-2.5237,-2.5251,-2.5438,-2.5518,-2.5518,-2.5625,-2.5678,-2.5678,-2.5678,-2.5678,-2.5692,-2.5785,-2.5959,-2.6106,-2.6106,-2.6239,-2.6386,-2.6386,-2.6386,-2.6386,-2.6386,-2.6386,-2.6386,-2.6386,-2.6386,-2.6386,-2.6386,-2.6386,-2.6386,-2.6386,-2.6239,-2.6079,-2.605,-2.5464,-2.4983,-2.4676,-2.4636,-2.4636,-2.4636,-2.4636,-2.4636,-2.4636,-2.4636,-2.4636,-2.4636,-2.4636,-2.4636,-2.4636,-2.4636,-2.4636,-2.4636,-2.4636,-2.4636,-2.4636,-2.4636,-2.4543,-2.4356,-2.4249,-2.4102,-2.3915,-2.3621,-2.342,-2.2271,-2.2432,-2.2512,-2.2792,-2.2941,-2.2966,-2.326,-2.3354,-2.3447,-2.3714,-2.3768,-2.3768,0.0,0.0,-2.3768,-2.3768,-2.3794,-2.3915,-2.4182,-2.4222,-2.4329,0.0,0.0,0.0,0.0,0.0,0.0,-2.4589,-2.4649,-2.4636,-2.4636,-2.4649,-2.4663,-2.4663,-2.4676,-2.4676,-2.4676,-2.4676,-2.4823,-2.5104,-2.5384,-2.5518,-2.5518,-2.5518,-2.5518,-2.5518,-2.5518,-2.5518,-2.5518,-2.5531,-2.5531,-2.5545,-2.5558,-2.5558,-2.5598,-2.5879,-2.605,-2.605,-2.605,-2.605,-2.6026,-2.6306,-2.6386,-2.6386,-2.6386,-2.6386,-2.6386,-2.6386,-2.6386,-2.6386,-2.6386,-2.6386,-2.6386,-2.6386,-2.6386,-2.6386,-2.6386,-2.6386,-2.6386,-2.6386,-2.6386,-2.6293,-2.5985,-2.5464,-2.4997,-2.469,-2.4636,-2.4636,-2.4636,-2.4636,-2.4636,-2.4636,-2.4636,-2.4636,-2.4636,-2.4636,-2.4636,-2.4636,-2.4636,-2.4636,-2.4636,-2.4636,-2.4636,-2.4636,-2.4636,-2.4636,-2.4636,-2.4356,-2.4222,-2.4222,-2.3928,-2.3634,-2.2378,-2.2579,-2.2766,-2.2914,-2.3033,-2.3233,-2.3313,-2.3661,-2.3941,-2.3794,-2.3768,-2.3701,0.0,0.0,0.0,-2.3768,-2.4142,0.0,-2.4516,-2.4529,0.0,-2.4549,0.0,-2.4636,-2.4636,-2.4636,0.0,-2.4957,-2.4756,-2.4636,-2.4636,-2.485,-2.497,-2.497,-2.5184,-2.5291,-2.5291,-2.5291,-2.5331,-2.5411,-2.5478,-2.5518,-2.5518,-2.5518,-2.5518,-2.5518,-2.5518,-2.5518,-2.5531,-2.5758,-2.5838,-2.5865,-2.6079,-2.6172,-2.6172,-2.6253,-2.6279,-2.6279,-2.6279,-2.6279,-2.6293,-2.636,-2.6386,-2.6386,-2.6386,-2.6386,-2.6386,-2.6386,-2.6386,-2.6386,-2.6386,-2.6386,-2.6386,-2.6386,-2.6386,-2.6386,-2.6386,-2.6386,-2.6386,-2.6386,-2.6386,-2.6226,-2.5718,-2.5504,-2.5224,-2.4716,-2.4636,-2.4636,-2.4636,-2.4636,-2.4636,-2.4636,-2.4636,-2.4636,-2.4636,-2.4636,-2.4636,-2.4636,-2.4636,-2.4636,-2.4636,-2.4636,-2.4636,-2.4636,-2.4636,-2.4636,-2.4636,-2.4556,-2.4529,-2.4516,-2.4222,-2.3941,-2.2579,-2.2739,-2.2968,-2.3033,-2.3193,-2.3367,-2.3487,-2.3781,-2.3968,-2.3808,-2.3661,-2.3527,-2.3354,-2.346,0.0,0.0,0.0,0.0,-2.4422,-2.4449,-2.4489,0.0,-2.4756,0.0,-2.4836,-2.4943,-2.509,-2.5251,-2.4997,-2.489,-2.501,-2.5184,-2.5277,-2.5277,-2.5424,-2.5518,-2.5518,-2.5638,-2.5705,-2.5705,-2.5838,-2.5892,-2.5892,-2.5892,-2.5892,-2.5892,-2.5892,-2.5892,-2.5905,-2.6079,-2.6146,-2.6159,-2.6319,-2.6386,-2.6386,-2.6386,-2.6386,-2.6386,-2.6386,-2.6386,-2.6386,-2.6386,-2.6386,-2.6386,-2.6386,-2.6386,-2.6386,-2.6386,-2.6386,-2.6386,-2.6386,-2.6386,-2.6386,-2.6386,-2.6386,-2.6386,-2.6386,-2.6386,-2.6386,-2.6386,-2.6386,-2.6239,-2.5785,-2.5598,-2.5358,-2.4903,-2.4716,-2.4636,-2.4636,-2.4636,-2.4636,-2.4636,-2.4636,-2.4636,-2.4636,-2.4636,-2.4636,-2.4636,-2.4636,-2.4636,-2.4636,-2.4636,-2.4636,-2.4636,-2.4636,-2.4636,-2.4636,-2.4636,-2.4636,-2.4636,-2.4476,-2.4168,-2.2792,-2.2954,-2.2993,-2.326,-2.338,-2.35,-2.3728,-2.3794,-2.3808,-2.3728,-2.3514,-2.3313,-2.3273,-2.33,-2.334,-2.338,0.0,-2.3941,-2.4275,-2.4315,-2.4422,-2.4716,-2.4983,-2.5144,-2.5144,-2.5371,-2.5531,-2.5571,-2.5344,-2.5291,-2.5504,-2.5545,-2.5585,-2.5625,-2.5625,-2.5625,-2.5625,-2.5879,-2.6012,-2.609,-2.6266,-2.6386,-2.6386,-2.6386,-2.6386,-2.6386,-2.6386,-2.6386,-2.6386,-2.6386,-2.6386,-2.6386,-2.6386,-2.6386,-2.6386,-2.6386,-2.6386,-2.6386,-2.6386,-2.6386,-2.6386,-2.6386,-2.6386,-2.6386,-2.6386,-2.6386,-2.6386,-2.6386,-2.6386,-2.6386,-2.6386,-2.6386,-2.6386,-2.6386,-2.6386,-2.6386,-2.6386,-2.6386,-2.6386,-2.6386,-2.6386,-2.6293,-2.609,-2.5705,-2.5411,-2.5117,-2.4823,-2.4636,-2.4636,-2.4636,-2.4636,-2.4636,-2.4636,-2.4636,-2.4636,-2.4636,-2.4636,-2.4636,-2.4636,-2.4636,-2.4636,-2.4636,-2.4636,-2.4636,-2.4636,-2.4636,-2.4636,-2.4636,-2.4636,-2.4636,-2.4636,-2.4329,-2.2846,-2.3046,-2.326,-2.3313,-2.3688,-2.4008,-2.3808,-2.3955,0.0,0.0,-2.3367,-2.3247,-2.2993,-2.3153,-2.3407,-2.3647,-2.3941,-2.4315,-2.485,-2.493,-2.5037,0.0,-2.5411,-2.5438,-2.5438,-2.5478,0.0,0.0,-2.5838,-2.5718,-2.5518,-2.5745,-2.5985,-2.6226,-2.6239,-2.6239,-2.6239,-2.6293,-2.6319,-2.6319,-2.636,-2.6386,-2.6386,-2.6386,-2.6386,-2.6386,-2.6386,-2.6386,-2.6386,-2.6386,-2.6386,-2.6386,-2.6386,-2.6386,-2.6386,-2.6386,-2.6386,-2.6386,-2.6386,-2.6386,-2.6386,-2.6386,-2.6386,-2.6386,-2.6386,-2.6386,-2.6386,-2.6386,-2.6386,-2.6386,-2.6386,-2.6386,-2.6386,-2.6386,-2.6386,-2.6386,-2.6386,-2.6386,-2.6386,-2.6386,-2.6386,-2.6293,-2.609,-2.5705,-2.5411,-2.5117,-2.4823,-2.4636,-2.4636,-2.4636,-2.4636,-2.4636,-2.4636,-2.4636,-2.4636,-2.4636,-2.4636,-2.4636,-2.4636,-2.4636,-2.4636,-2.4636,-2.4636,-2.4636,-2.4636,-2.4636,-2.4636,-2.4636,-2.4636,-2.4636,-2.4636,-2.4329,-2.306,-2.3207,-2.3407,-2.3701,-2.3995,-2.4128,-2.3834,0.0,0.0,0.0,-2.3086,-2.3046,-2.2886,-2.3113,0.0,-2.3514,-2.3915,-2.4356,-2.4783,-2.4983,0.0,-2.5478,-2.5651,-2.5745,-2.5745,-2.5879,-2.6026,-2.6172,-2.6186,-2.6119,-2.5972,-2.6106,-2.6239,-2.6386,-2.6386,-2.6386,-2.6386,-2.6386,-2.6386,-2.6386,-2.6386,-2.6386,-2.6386,-2.6386,-2.6386,-2.6386,-2.6386,-2.6386,-2.6386,-2.6386,-2.6386,-2.6386,-2.6386,-2.6386,-2.6386,-2.6386,-2.6386,-2.6386,-2.6386,-2.6386,-2.6386,-2.6386,-2.6386,-2.6386,-2.6386,-2.6386,-2.6386,-2.6386,-2.6386,-2.6386,-2.6386,-2.6386,-2.6386,-2.6386,-2.6386,-2.6386,-2.6386,-2.6386,-2.6386,-2.6386,-2.6386,-2.6346,-2.6199,-2.5812,-2.5464,-2.5331,-2.4917,-2.4636,-2.4636,-2.4636,-2.4636,-2.4636,-2.4636,-2.4636,-2.4636,-2.4636,-2.4636,-2.4636,-2.4636,-2.4105,-2.3116,-2.3042,-2.3042,-2.3042,-2.3042,-2.3574,-2.4636,-2.4636,-2.4636,-2.4636,-2.4636,-2.4329,-2.3247,-2.342,-2.3621,-2.4088,-2.4249,-2.4209,-2.3848,-2.3768,0.0,-2.2993,-2.2928,-2.2928,-2.2928,-2.306,-2.3247,0.0,-2.3768,-2.4249,-2.4676,-2.4983,-2.5304,0.0,-2.5905,0.0,-2.613,-2.6253,0.0,-2.6386,-2.6386,-2.6386,-2.6386,-2.6386,-2.6386,-2.6386,-2.6386,-2.6386,-2.6386,-2.6386,-2.6386,-2.6386,-2.6386,-2.6386,-2.6386,-2.6386,-2.6386,-2.6386,-2.6386,-2.6386,-2.6386,-2.6386,-2.6386,-2.6386,-2.6386,-2.6386,-2.6386,-2.6386,-2.6386,-2.6386,-2.6386,-2.6386,-2.6386,-2.6386,-2.6386,-2.6386,-2.6386,-2.6386,-2.6386,-2.6386,-2.6386,-2.6386,-2.6386,-2.6386,-2.6386,-2.6386,-2.6386,-2.6386,-2.6386,-2.6386,-2.6386,-2.6386,-2.6386,-2.6373,-2.6306,-2.5865,-2.5491,-2.5424,-2.497,-2.4636,-2.4636,-2.4636,-2.4636,-2.4636,-2.4636,-2.4636,-2.4636,-2.4636,-2.4636,-2.4636,-2.4636,-2.387,-2.2285,-2.1826,-2.1826,-2.2198,-2.1365,-2.1975,-2.3957,-2.35,-2.3574,-2.3957,-2.3957,-2.3878,-2.3247,-2.3714,-2.4128,-2.4195,-2.4396,-2.4449,-2.3901,0.0,-2.3594,-2.2993,-2.2928,-2.2928,-2.2928,-2.2886,-2.2993,-2.3287,0.0,-2.4102,0.0,0.0,0.0,0.0,0.0,0.0,-2.6346,-2.6373,-2.6386,-2.6386,-2.6386,-2.6386,-2.6386,-2.6386,-2.6386,-2.6386,-2.6386,-2.6386,-2.6386,-2.6386,-2.6386,-2.6386,-2.6386,-2.6386,-2.6386,-2.6386,-2.6386,-2.6386,-2.6386,-2.6386,-2.6386,-2.6386,-2.6386,-2.6386,-2.6386,-2.6386,-2.6386,-2.6386,-2.6386,-2.6386,-2.6386,-2.6386,-2.6386,-2.6386,-2.6386,-2.6386,-2.6386,-2.6386,-2.6386,-2.6386,-2.6386,-2.6386,-2.6386,-2.6386,-2.6386,-2.6386,-2.6386,-2.6386,-2.6386,-2.6386,-2.6386,-2.6386,-2.6386,-2.6306,-2.6039,-2.5732,-2.5424,-2.5157,-2.4836,-2.4636,-2.4636,-2.4636,-2.4636,-2.4636,-2.4636,-2.4636,-2.4636,-2.4636,-2.4636,-2.4636,-2.4636,-2.4488,-2.4327,-2.2583,-2.2434,-2.4253,-2.0767,-1.9854,-2.19,-2.0005,-2.008,-2.19,-2.19,-2.2595,-2.3674,-2.4022,-2.4249,-2.4422,-2.4422,-2.4262,-2.3861,0.0,-2.338,-2.2953,-2.2928,-2.2928,-2.2928,-2.2928,-2.2899,-2.3033,0.0,0.0,-2.4449,0.0,0.0,0.0,-2.6132,0.0,0.0,0.0,-2.5819,-2.4522,-2.443,-2.3872,-2.2579,-2.3712,-2.5012,-2.6386,-2.5092,-2.5092,-2.6386,-2.6386,-2.6386,-2.6386,-2.6386,-2.6386,-2.6386,-2.6386,-2.6386,-2.6386,-2.6386,-2.6386,-2.6386,-2.6386,-2.6386,-2.6386,-2.6386,-2.6386,-2.6386,-2.6386,-2.6386,-2.6386,-2.6386,-2.6386,-2.6386,-2.6386,-2.6386,-2.6386,-2.6386,-2.6386,-2.6386,-2.6386,-2.6386,-2.6386,-2.6386,-2.6386,-2.6386,-2.6386,-2.6386,-2.6386,-2.6386,-2.6386,-2.6386,-2.6386,-2.6386,-2.6293,-2.609,-2.5705,-2.5411,-2.5117,-2.4823,-2.4636,-2.4636,-2.4636,-2.4636,-2.4636,-2.4636,-2.4636,-2.4636,-2.4636,-2.4636,-2.4636,-2.4636,-2.4031,-2.2806,-2.2049,-2.144,-2.0991,-2.0617,-2.023,-1.9779,-2.023,-2.0841,-2.1601,-2.0391,-2.0569,-2.3861,-2.4195,-2.4382,-2.4583,-2.4422,-2.4128,0.0,0.0,-2.3233,-2.2926,-2.2928,-2.2928,-2.2928,-2.2928,-2.2928,-2.2928,0.0,-2.35,-2.4008,0.0,0.0,0.0,0.0,-2.5945,-2.6239,-2.5767,-2.4522,-2.2327,-2.2166,-2.12,-1.9014,-2.0382,-2.2487,-2.533,-2.3872,-2.4191,-2.6386,-2.6386,-2.6386,-2.6386,-2.6386,-2.6386,-2.6386,-2.6386,-2.6386,-2.6386,-2.6386,-2.6386,-2.6386,-2.6386,-2.6386,-2.6386,-2.6386,-2.6386,-2.6386,-2.6386,-2.6386,-2.6386,-2.6386,-2.6386,-2.6386,-2.6386,-2.6386,-2.6386,-2.6386,-2.6386,-2.6386,-2.6386,-2.6386,-2.6386,-2.6386,-2.6386,-2.6386,-2.6386,-2.6386,-2.6386,-2.6386,-2.6386,-2.6386,-2.6386,-2.6386,-2.6266,-2.5892,-2.5651,-2.5384,-2.501,-2.477,-2.4636,-2.4636,-2.4636,-2.4636,-2.4636,-2.4636,-2.4636,-2.4636,-2.4636,-2.4636,-2.4636,-2.4636,-2.3957,-2.2583,-2.19,-2.0916,-1.9478,-1.9704,-1.9101,-1.7663,-1.8497,-1.9553,-2.0692,-1.8577,-1.8747,-2.3607,-2.4195,-2.4636,-2.4636,-2.4422,-2.4128,0.0,0.0,-2.3233,-2.2926,-2.2928,-2.2928,-2.2928,-2.2928,-2.2928,-2.2928,-2.3126,0.0,-2.3728,-2.4275,0.0,0.0,0.0,-2.5638,-2.601,-2.4281,-2.2247,-2.0069,-1.9907,-1.8933,-1.6729,-1.6647,-1.8679,-2.298,-2.314,-2.4191,-2.6386,-2.6386,-2.6386,-2.6386,-2.6386,-2.6386,-2.6386,-2.6386,-2.6386,-2.6386,-2.6386,-2.6386,-2.6386,-2.6386,-2.6386,-2.6386,-2.6386,-2.6386,-2.6386,-2.6386,-2.6386,-2.6386,-2.6386,-2.6386,-2.6386,-2.6386,-2.6386,-2.6386,-2.6386,-2.6386,-2.6386,-2.6386,-2.6386,-2.6386,-2.6386,-2.6386,-2.6386,-2.6386,-2.6386,-2.6386,-2.6386,-2.6386,-2.6386,-2.6386,-2.6386,-2.6199,-2.5625,-2.5518,-2.5317,-2.473,-2.4562,-2.4636,-2.4636,-2.4636,-2.4636,-2.4636,-2.4636,-2.4636,-2.4636,-2.4636,-2.4636,-2.4636,-2.4636,-2.4562,-2.4562,-2.2657,-2.1601,-2.1601,-1.7588,-1.554,-1.554,-1.3568,-1.4705,-1.8562,-1.6391,-1.7189,-2.3678,-2.3901,-2.4048,-2.4048,-2.3821,-2.3581,-2.3487,0.0,-2.2979,-2.2954,-2.2928,-2.2928,-2.2928,-2.2928,-2.2928,-2.2928,-2.2939,0.0,0.0,0.0,0.0,-2.4997,-2.5692,-2.5583,0.0,0.0,-2.1592,-1.7946,-1.7629,-1.6738,-1.4541,-1.4375,-1.641,-2.0797,-1.9491,-2.0463,-2.4111,-2.4111,-2.492,-2.6386,-2.6386,-2.6386,-2.6386,-2.6386,-2.6386,-2.6386,-2.6386,-2.6386,-2.6386,-2.6386,-2.6386,-2.6386,-2.6386,-2.6386,-2.6386,-2.6386,-2.6386,-2.6386,-2.6386,-2.6386,-2.6386,-2.6386,-2.6386,-2.6386,-2.6386,-2.6386,-2.6386,-2.6386,-2.6386,-2.6386,-2.6386,-2.6386,-2.6386,-2.6386,-2.6386,-2.6386,-2.6386,-2.6386,-2.6386,-2.6386,-2.6386,-2.6199,-2.5611,-2.5518,-2.5317,-2.473,-2.4636,-2.4636,-2.4636,-2.4636,-2.4636,-2.4636,-2.4636,-2.4636,-2.4636,-2.4636,-2.4636,-2.4636,-2.4636,-2.4636,-2.4636,-2.4031,-2.236,-1.9629,-2.0991,-1.9025,-1.3414,-1.5616,-1.5861,-1.4302,-1.614,-1.6774,0.0,-2.3688,-2.3768,-2.3768,-2.3554,0.0,0.0,0.0,-2.2928,-2.2928,-2.2928,-2.2928,-2.2928,-2.2928,-2.2928,-2.2928,-2.2928,0.0,0.0,0.0,0.0,-2.4823,0.0,0.0,0.0,-2.2066,-2.0203,-1.6678,-1.5723,-1.4682,-1.3316,-1.3234,-1.4527,-1.7172,-1.6824,-1.8272,-2.1845,-2.274,-2.3792,-2.5171,-2.5977,-2.6386,-2.6386,-2.6386,-2.6386,-2.6386,-2.6386,-2.6386,0.0,-2.6386,-2.6386,-2.6386,-2.6386,-2.6386,-2.6386,-2.6386,-2.6386,-2.6386,-2.6386,-2.6386,-2.6386,-2.6386,-2.6386,-2.6386,-2.6386,-2.6386,-2.6386,-2.6386,-2.6386,-2.6386,-2.6386,-2.6386,-2.6386,-2.6386,-2.6386,-2.6386,-2.6386,-2.6386,-2.6386,-2.6386,-2.6386,-2.6199,-2.5611,-2.5518,-2.5317,-2.473,-2.4636,-2.4636,-2.4636,-2.4636,-2.4636,-2.4636,-2.4636,-2.4636,-2.4636,-2.4636,-2.4636,-2.4636,-2.4636,-2.4636,-2.4636,-2.4636,-2.3042,-1.9779,-2.2198,-2.023,-1.3645,-1.6148,-1.5572,-1.2271,-1.5293,-1.5893,0.0,0.0,0.0,0.0,0.0,0.0,0.0,0.0,0.0,-2.2928,-2.2928,-2.2928,-2.2928,-2.2928,-2.2928,-2.2928,-2.2928,0.0,0.0,-2.3621,0.0,0.0,-2.493,0.0,-2.2241,-2.0438,-1.8612,-1.6573,-1.4453,-1.3196,-1.3196,-1.3043,-1.2963,-1.2963,-1.5155,-1.7421,-1.9614,-2.18,-2.2922,-2.3081,-2.5279,-2.6333,-2.6333,-2.6333,-2.6333,-2.6333,-2.6333,-2.6333,-2.636,-2.636,-2.6373,-2.6386,-2.6386,-2.6386,-2.6386,-2.6386,-2.6386,-2.6386,-2.6386,-2.6386,-2.6386,-2.6386,-2.6386,-2.6386,-2.6386,-2.6386,-2.6386,-2.6386,-2.6386,-2.6386,-2.6386,-2.6386,-2.6386,-2.6386,-2.6386,-2.6386,-2.6386,-2.6386,-2.6386,-2.6386,-2.6373,-2.6172,-2.5611,-2.5491,-2.5291,-2.4716,-2.4636,-2.4636,-2.4636,-2.4636,-2.4636,-2.4636,-2.4636,-2.4636,-2.4636,-2.4636,-2.4636,-2.4636,-2.4636,-2.4636,-2.4636,-2.4636,-2.3574,-2.1452,-2.1066,-1.9166,-1.5523,-1.5177,-1.4038,-1.2115,-1.3986,-1.4593,0.0,0.0,-2.3073,-2.3073,-2.302,-2.2966,0.0,0.0,0.0,0.0,0.0,0.0,0.0,0.0,-2.2928,-2.2928,0.0,-2.2966,-2.3287,-2.3968,0.0,-2.493,-2.5237,-2.4546,-2.2437,-2.1788,-2.0646,-1.8524,-1.6485,-1.5313,-1.5313,-1.3822,-1.2963,-1.2963,-1.358,-1.4888,-1.7022,-1.9075,-2.0965,-2.2709,-2.4765,-2.5718,-2.5718,-2.5718,-2.5718,-2.5718,-2.5718,-2.5852,-2.6052,-2.6052,-2.6186,-2.6386,-2.6386,-2.6386,-2.6386,-2.6386,-2.6386,-2.6386,-2.6386,-2.6386,-2.6386,-2.6386,-2.6386,-2.6386,-2.6386,-2.6386,-2.6386,-2.6386,-2.6386,-2.6386,-2.6386,-2.6386,-2.6386,-2.6386,-2.6386,-2.6386,-2.6386,-2.6386,-2.6386,-2.6386,-2.6213,-2.5945,-2.5571,-2.5331,-2.505,-2.469,-2.4636,-2.4636,-2.4636,-2.4636,-2.4636,-2.4636,-2.4636,-2.4636,-2.4636,-2.4636,-2.4636,-2.4636,-2.4636,-2.4636,-2.4636,-2.4636,-2.2967,-1.9403,-1.6227,-1.4862,-1.532,-1.3664,-1.2473,-1.1877,-1.3658,-1.3698,-2.2928,-2.2928,-2.2928,-2.2928,-2.2928,-2.2928,0.0,0.0,0.0,0.0,0.0,0.0,0.0,0.0,-2.2928,-2.2928,-2.2979,0.0,0.0,0.0,-2.4356,-2.4636,-2.481,-2.4119,-2.2165,-2.1948,-2.1097,-1.9003,-1.7845,-1.676,-1.5836,-1.561,-1.5158,-1.4147,-1.4147,-1.438,-1.4772,-1.681,-1.8455,-1.9621,-2.2686,-2.4099,-2.4175,-2.5122,-2.5518,-2.5518,-2.5518,-2.5598,-2.5758,-2.5758,-2.5919,-2.6186,-2.6186,-2.6266,-2.6386,-2.6386,-2.6386,-2.6386,-2.6386,-2.6386,-2.6386,-2.6386,-2.6386,-2.6386,-2.6386,-2.6386,-2.6386,-2.6386,-2.6386,-2.6386,-2.6386,-2.6386,-2.6386,-2.6386,-2.6386,-2.6386,-2.6386,-2.6386,-2.6386,-2.6386,-2.6159,-2.5865,-2.5558,-2.5277,-2.4983,-2.4676,-2.4636,-2.4636,-2.4636,-2.4636,-2.4636,-2.4636,-2.4636,-2.4636,-2.4636,-2.4636,-2.4636,-2.4636,-2.4636,-2.4636,-2.4636,-2.4636,-2.3116,-2.0005,-1.6904,-1.5295,-1.5327,-1.3162,-1.1979,-1.1823,-1.2676,-1.2602,-2.2928,-2.2899,-2.2926,-2.2941,-2.2928,-2.2928,-2.2928,0.0,0.0,0.0,0.0,0.0,0.0,-2.2928,-2.2928,-2.2928,0.0,0.0,-2.3794,-2.3875,-2.3995,-2.4235,-2.4262,-2.3684,-2.2186,-2.2049,-2.1377,-1.9629,-1.895,-1.7815,-1.6066,-1.7056,-1.698,-1.554,-1.5463,-1.4857,-1.3439,-1.5153,-1.6249,-1.6643,-2.0537,-2.2478,-2.2874,-2.4596,-2.5371,-2.5371,-2.5371,-2.5398,-2.5451,-2.5451,-2.5625,-2.5892,-2.601,-2.6106,-2.6333,-2.6373,-2.6386,-2.6386,-2.6386,-2.6386,-2.6386,-2.6386,-2.6386,-2.6386,-2.6386,-2.6386,-2.6386,-2.6386,-2.6386,-2.6386,-2.6386,-2.6386,-2.6386,-2.6386,-2.6386,-2.6386,-2.6386,-2.6386,-2.6386,-2.6386,-2.6119,-2.5812,-2.5558,-2.5237,-2.493,-2.4676,-2.4636,-2.4636,-2.4636,-2.4636,-2.4636,-2.4636,-2.4636,-2.4636,-2.4636,-2.4636,-2.4636,-2.4636,-2.4636,-2.4636,-2.4636,-2.4327,-2.3339,-2.1601,-1.9296,-1.7133,-1.5293,-1.3126,-1.1945,-1.1796,-1.1674,-1.1619,-2.2928,-2.306,-2.3193,-2.2926,-2.2928,-2.2928,-2.2928,-2.2928,0.0,0.0,0.0,0.0,0.0,-2.2928,-2.2928,-2.2928,-2.334,-2.3808,0.0,0.0,-2.4516,-2.4569,-2.4569,-2.4435,-2.4179,-2.4105,-2.4031,-2.3722,-2.0542,-1.8497,-1.8118,-1.5165,-1.4099,-1.5463,-1.5463,-1.5412,-1.5094,-1.547,-1.6469,-1.8293,-2.0578,-2.2631,-2.4311,-2.4621,-2.477,-2.477,-2.477,-2.4917,-2.5144,-2.5144,-2.5317,-2.5598,-2.5852,-2.6063,-2.6052,-2.6306,-2.6386,-2.6386,-2.6386,-2.6386,-2.6386,-2.6386,-2.6386,-2.6386,-2.6386,-2.6386,-2.6386,-2.6386,-2.6386,-2.6386,-2.6386,-2.6386,-2.6386,-2.6386,-2.6386,-2.6386,-2.6386,-2.6386,-2.6386,-2.6386,-2.5945,-2.5558,-2.5518,-2.5064,-2.469,-2.4649,-2.4636,-2.4636,-2.4636,-2.4636,-2.4636,-2.4636,-2.4636,-2.4636,-2.4636,-2.4636,-2.4636,-2.4636,-2.4636,-2.4636,-2.4636,-2.2967,-2.19,-2.1601,-1.7781,-1.5584,-1.5106,-1.2883,-1.1789,-1.1653,-1.1633,-1.1619,-2.2928,-2.2966,-2.3086,-2.31,-2.3233,-2.3423,-2.3423,-2.3423,0.0,0.0,0.0,0.0,0.0,0.0,-2.322,-2.3541,-2.3688,-2.3875,-2.4168,-2.4182,-2.4222,-2.4382,-2.4396,-2.4462,-2.4623,-2.4636,-2.4179,-2.3042,-2.1291,-1.9252,-1.7056,-1.6227,-1.6218,-1.7132,-1.7208,-1.7739,-1.8799,-1.6599,-1.5463,-1.531,-1.8497,-2.0466,-2.144,-2.3648,-2.4636,-2.4636,-2.4636,-2.4716,-2.4836,-2.4836,-2.501,-2.5304,-2.5598,-2.5812,-2.5999,-2.6279,-2.6386,-2.6386,-2.6386,-2.6386,-2.6386,-2.6386,-2.6386,-2.6386,-2.6386,-2.6386,-2.6386,-2.6386,-2.6386,-2.6386,-2.6386,-2.6386,-2.6386,-2.6386,-2.6386,-2.6386,-2.6386,-2.6386,-2.6386,-2.6386,-2.5919,-2.5518,-2.5518,-2.5024,-2.4636,-2.4636,-2.4636,-2.4636,-2.4636,-2.4636,-2.4636,-2.4636,-2.4636,-2.4636,-2.4636,-2.4636,-2.4636,-2.4636,-2.4636,-2.4636,-2.4636,-2.3722,-2.2732,-2.1601,-1.9671,-1.7505,-1.5064,-1.4106,-1.2918,-1.1619,-1.1619,-1.2108,-2.2928,-2.2913,-2.3033,-2.326,-2.3447,-2.3594,-2.3741,-2.3714,-2.3621,-2.346,0.0,0.0,0.0,-2.3166,-2.35,-2.4022,-2.3968,-2.3968,-2.4262,-2.4115,-2.4062,-2.4275,-2.4302,-2.4396,-2.4609,-2.4179,-2.3264,-2.1751,-2.0692,-1.8789,-1.5693,-1.6523,-1.736,-1.7891,-1.8345,-1.9327,-2.0916,-1.827,-1.5922,-1.3945,-1.7132,-1.8874,-1.9403,-2.2967,-2.4636,-2.4636,-2.4636,-2.4636,-2.4636,-2.4636,-2.477,-2.501,-2.5371,-2.5732,-2.6092,-2.6306,-2.6386,-2.6386,-2.6386,-2.6386,-2.6386,-2.6386,-2.6386,-2.6386,-2.6386,-2.6386,-2.6386,-2.6386,-2.6386,-2.6386,-2.6386,-2.6386,-2.6386,-2.6386,-2.6386,-2.6386,-2.6386,-2.6386,-2.6386,-2.6386,-2.5919,-2.5518,-2.5518,-2.5024,-2.4636,-2.4636,-2.4636,-2.4636,-2.4636,-2.4636,-2.4636,-2.4636,-2.4636,-2.4636,-2.4636,-2.4636,-2.4636,-2.4636,-2.4636,-2.4636,-2.4636,-2.4636,-2.387,-2.236,-2.1307,-1.9192,-1.5791,-1.4801,-1.3394,-1.1619,-1.2043,-1.3024,-2.2928,-2.3073,-2.33,-2.3327,-2.3126,-2.3073,-2.3647,-2.3554,-2.3434,-2.3688,-2.3741,-2.3647,-2.3354,-2.3313,-2.3434,-2.3754,-2.4008,-2.4275,-2.4569,-2.4583,-2.4583,-2.4609,-2.4609,-2.4609,-2.4636,-2.2893,-2.1751,-2.1601,-1.8108,-1.5845,-1.554,-1.3868,-1.3799,-1.5693,-1.7588,-1.8648,-1.8799,-2.0391,-2.0155,-1.8194,-1.8497,-1.9553,-2.1452,-2.3648,-2.4636,-2.4636,-2.4636,-2.4636,-2.4636,-2.4636,-2.4649,-2.473,-2.5291,-2.5865,-2.636,-2.6386,-2.6386,-2.6386,-2.6386,-2.6386,-2.6386,-2.6386,-2.6386,-2.6386,-2.6386,-2.6386,-2.6386,-2.6386,-2.6386,-2.6386,-2.6386,-2.6386,-2.6386,-2.6386,-2.6386,-2.6386,-2.6386,-2.6386,-2.6386,-2.6386,-2.5919,-2.5518,-2.5518,-2.5024,-2.4636,-2.4636,-2.4636,-2.4636,-2.4636,-2.4636,-2.4636,-2.4636,-2.4636,-2.4636,-2.4636,-2.4636,-2.4636,-2.4636,-2.4636,-2.4636,-2.4636,-2.4636,-2.4562,-2.4414,-2.0529,-1.8285,-1.7915,-1.3945,-1.1914,-1.1619,-1.3381,-1.429,-2.2928,-2.3086,-2.3327,-2.3327,-2.3233,0.0,-2.3901,-2.3955,-2.3901,-2.4022,-2.4035,-2.3955,-2.3661,-2.3754,-2.3915,-2.4022,-2.4289,-2.4516,-2.4623,-2.4636,-2.4636,-2.4636,-2.4636,-2.4636,-2.4636,-2.2806,-2.1066,-1.9854,-1.7132,-1.4935,-1.3722,-1.2881,-1.4022,-1.7284,-1.6904,-1.8497,-2.2273,-2.0617,-1.9327,-1.8572,-1.8572,-1.9025,-1.9779,-2.1826,-2.3426,-2.4636,-2.4636,-2.4636,-2.4636,-2.4636,-2.4636,-2.469,-2.5277,-2.5865,-2.6386,-2.6386,-2.6386,-2.6386,-2.6386,-2.6386,-2.6386,-2.6386,-2.6386,-2.6386,-2.6386,-2.6386,-2.6386,-2.6386,-2.6386,-2.6386,-2.6386,-2.6386,-2.6386,-2.6386,-2.6386,-2.6386,-2.6386,-2.6386,-2.6386,-2.6386,-2.5919,-2.5518,-2.5518,-2.5024,-2.4636,-2.4636,-2.4636,-2.4636,-2.4636,-2.4636,-2.4636,-2.4636,-2.4636,-2.4636,-2.4636,-2.4636,-2.4636,-2.4636,-2.4636,-2.4636,-2.4636,-2.4636,-2.4031,-2.2732,-2.2399,-2.0269,-1.6232,-1.5866,-1.4301,-1.1619,-1.3515,-1.5062,-2.2928,-2.302,-2.3207,-2.33,0.0,0.0,-2.4062,-2.4128,-2.4115,-2.4302,-2.4262,-2.4142,-2.3941,-2.4075,-2.4209,-2.4209,-2.4449,-2.4636,-2.4636,-2.4636,-2.4636,-2.4636,-2.4636,-2.4636,-2.4636,-2.2211,-2.008,-1.8723,-1.6066,-1.3945,-1.2579,-1.2501,-1.3791,-1.6599,-1.5922,-1.7815,-2.2657,-2.0617,-1.9553,-1.9553,-1.8874,-1.8572,-1.8648,-2.0692,-2.2732,-2.4636,-2.4636,-2.4636,-2.4636,-2.4636,-2.469,-2.4823,-2.5317,-2.5812,-2.6266,-2.636,-2.6386,-2.6386,-2.6386,-2.6386,-2.6386,-2.6386,-2.6386,-2.6386,-2.6386,-2.6386,-2.6386,-2.6386,-2.6386,-2.6386,-2.6386,-2.6386,-2.6386,-2.6386,-2.6386,-2.6386,-2.6386,-2.6386,-2.6386,-2.6386,-2.5919,-2.5518,-2.5518,-2.5024,-2.4636,-2.4636,-2.4636,-2.4636,-2.4636,-2.4636,-2.4636,-2.4636,-2.4636,-2.4636,-2.4636,-2.4636,-2.4636,-2.4636,-2.4636,-2.4636,-2.4636,-2.4636,-2.3944,-2.2583,-2.3264,-2.1121,-1.6012,-1.6819,-1.5241,-1.1691,-1.4156,-1.5628,-2.2928,-2.2928,-2.2939,-2.3247,0.0,0.0,-2.4075,-2.3981,-2.3941,-2.4516,-2.4409,-2.4209,-2.4209,-2.4209,-2.4209,-2.4209,-2.4449,-2.4636,-2.4636,-2.4636,-2.4636,-2.4636,-2.4636,-2.4636,-2.4636,-2.0991,-1.8572,-1.8572,-1.4782,-1.2501,-1.2501,-1.2501,-1.2501,-1.2501,-1.4475,-1.6447,-1.8572,-2.0617,-2.1601,-2.1527,-1.9553,-1.8648,-1.8648,-2.0692,-2.2657,-2.4562,-2.4562,-2.4636,-2.4636,-2.4636,-2.481,-2.5104,-2.5398,-2.5692,-2.5999,-2.6279,-2.6386,-2.6386,-2.6386,-2.6386,-2.6386,-2.6386,-2.6386,-2.6386,-2.6386,-2.6386,-2.6386,-2.6386,-2.6386,-2.6386,-2.6386,-2.6386,-2.6386,-2.6386,-2.6386,-2.6386,-2.6386,-2.6386,-2.6386,-2.6386,-2.5919,-2.5518,-2.5518,-2.5024,-2.4636,-2.4636,-2.4636,-2.4636,-2.4636,-2.4636,-2.4636,-2.4636,-2.4636,-2.4636,-2.4636,-2.4636,-2.4636,-2.4636,-2.4636,-2.4636,-2.4636,-2.4636,-2.4562,-2.4562,-2.2657,-2.0444,-1.8061,-1.6085,-1.3937,-1.1691,-1.5425,-1.6192,-2.2928,-2.3249,-2.3474,-2.3354,0.0,0.0,0.0,-2.4142,0.0,0.0,-2.4569,-2.4449,-2.4235,-2.4369,-2.4436,-2.4235,-2.4449,-2.4636,-2.4636,-2.4636,-2.4636,-2.4636,-2.4636,-2.4636,-2.4636,-2.0991,-1.8572,-1.8572,-1.4782,-1.2501,-1.2501,-1.2501,-1.319,-1.4552,-1.3791,-1.5089,-1.8572,-1.9176,-1.9478,-1.9478,-2.0305,-2.0005,-1.8648,-1.9252,-2.0617,-2.2583,-2.4031,-2.4636,-2.4636,-2.4636,-2.481,-2.5104,-2.5398,-2.5692,-2.5999,-2.6279,-2.6386,-2.6386,-2.6386,-2.6386,-2.6386,-2.6386,-2.6386,-2.6386,-2.6386,-2.6386,-2.6386,-2.6386,-2.6386,-2.6386,-2.6386,-2.6386,-2.6386,-2.6386,-2.6386,-2.6386,-2.6386,-2.6386,-2.6386,-2.6386,-2.5919,-2.5518,-2.5518,-2.5024,-2.4636,-2.4636,-2.4636,-2.4636,-2.4636,-2.4636,-2.4636,-2.4636,-2.4636,-2.4636,-2.4636,-2.4636,-2.4636,-2.4636,-2.4636,-2.4636,-2.4636,-2.4636,-2.3957,-2.2509,-2.3264,-2.1195,-1.6012,-1.6819,-1.5314,-1.1691,-1.4085,-1.4929,-2.3006,-2.3313,-2.3607,-2.3661,-2.3941,-2.4235,-2.4342,-2.4382,-2.4422,-2.4596,-2.4636,-2.4583,-2.4409,-2.4516,-2.4583,-2.4409,-2.4516,-2.4636,-2.4636,-2.4636,-2.4636,-2.4636,-2.4636,-2.4636,-2.4636,-2.1676,-1.9478,-1.8648,-1.554,-1.3337,-1.2579,-1.2501,-1.3035,-1.4253,-1.3112,-1.4099,-1.736,-1.736,-1.8194,-1.9779,-2.023,-1.9779,-1.8648,-1.9403,-2.0466,-2.1676,-2.3722,-2.4636,-2.4636,-2.4636,-2.4743,-2.4943,-2.5358,-2.5625,-2.5825,-2.6239,-2.6386,-2.6386,-2.6386,-2.6386,-2.6386,-2.6386,-2.6386,-2.6386,-2.6386,-2.6386,-2.6386,-2.6386,-2.6386,-2.6386,-2.6386,-2.6386,-2.6386,-2.6386,-2.6386,-2.6386,-2.6386,-2.6386,-2.6386,-2.6386,-2.5919,-2.5518,-2.5518,-2.5024,-2.4636,-2.4636,-2.4636,-2.4636,-2.4636,-2.4636,-2.4636,-2.4636,-2.4636,-2.4636,-2.4636,-2.4636,-2.4636,-2.4636,-2.4636,-2.4636,-2.4636,-2.4636,-2.4031,-2.2819,-2.3944,-2.1871,-1.6306,-1.7477,-1.5886,-1.1691,-1.4298,-1.4716,-2.326,-2.3367,-2.3541,-2.4062,-2.4222,-2.4315,-2.4569,-2.4636,-2.4636,-2.4636,-2.4636,-2.4636,-2.4636,-2.4636,-2.4636,-2.4636,-2.4636,-2.4636,-2.4636,-2.4636,-2.4636,-2.4636,-2.4636,-2.4636,-2.4636,-2.2583,-2.0542,-1.8723,-1.6523,-1.4399,-1.2579,-1.2501,-1.2501,-1.2501,-1.2501,-1.3414,-1.5234,-1.5387,-1.7436,-2.1291,-1.9629,-1.8874,-1.895,-2.0767,-2.1676,-2.1975,-2.3796,-2.4636,-2.4636,-2.4636,-2.4636,-2.469,-2.5277,-2.5518,-2.5585,-2.6172,-2.6386,-2.6386,-2.6386,-2.6386,-2.6386,-2.6386,-2.6386,-2.6386,-2.6386,-2.6386,-2.6386,-2.6386,-2.6386,-2.6386,-2.6386,-2.6386,-2.6386,-2.6386,-2.6386,-2.6386,-2.6386,-2.6386,-2.6386,-2.6386,-2.5919,-2.5518,-2.5518,-2.5024,-2.4636,-2.4636,-2.4636,-2.4636,-2.4636,-2.4636,-2.4636,-2.4636,-2.4636,-2.4636,-2.4636,-2.4636,-2.4636,-2.4636,-2.4636,-2.4636,-2.4636,-2.4636,-2.4636,-2.4636,-2.4388,-2.2288,-1.8134,-1.7895,-1.565,-1.1691,-1.5283,-1.5141,-2.3367,-2.3661,0.0,-2.4168,-2.4369,-2.4556,-2.4623,-2.4636,-2.4636,-2.4636,-2.4636,-2.4636,-2.4636,-2.4636,-2.4636,-2.4636,-2.4636,-2.4636,-2.4636,-2.4636,-2.4636,-2.4636,-2.4636,-2.4636,-2.4636,-2.1377,-1.9101,-1.8648,-1.5242,-1.2958,-1.2501,-1.2501,-1.2501,-1.2501,-1.2501,-1.2726,-1.3112,-1.4705,-1.6751,-1.9252,-2.0391,-2.0916,-2.0991,-2.1365,-2.2434,-2.3957,-2.4414,-2.4636,-2.4636,-2.4636,-2.4636,-2.469,-2.5277,-2.5518,-2.5585,-2.6172,-2.6386,-2.6386,-2.6386,-2.6386,-2.6386,-2.6386,-2.6386,-2.6386,-2.6386,-2.6386,-2.6386,-2.6386,-2.6386,-2.6386,-2.6386,-2.6386,-2.6386,-2.6386,-2.6386,-2.6386,-2.6386,-2.6386,-2.6386,-2.6386,-2.5919,-2.5518,-2.5518,-2.5024,-2.4636,-2.4636,-2.4636,-2.4636,-2.4636,-2.4636,-2.4636,-2.4636,-2.4636,-2.4636,-2.4636,-2.4636,-2.4636,-2.4636,-2.4636,-2.4636,-2.4636,-2.4636,-2.4636,-2.4636,-2.2976,-2.0766,-1.8134,-1.643,-1.4227,-1.1619,-1.3943,-1.4574,0.0,0.0,0.0,-2.4342,0.0,-2.4636,-2.4636,-2.4636,-2.4636,-2.4636,-2.4636,-2.4636,-2.4636,-2.4636,-2.4636,-2.4636,-2.4636,-2.4636,-2.4636,-2.4636,-2.4636,-2.4636,-2.4636,-2.4636,-2.4636,-2.2732,-2.0692,-1.8723,-1.6599,-1.4552,-1.2579,-1.2501,-1.2501,-1.2501,-1.2501,-1.2501,-1.2501,-1.3568,-1.5616,-1.8648,-1.9629,-2.0692,-2.1601,-2.1601,-2.2732,-2.4636,-2.4636,-2.4636,-2.4636,-2.4636,-2.4636,-2.4676,-2.513,-2.5384,-2.5571,-2.6012,-2.6266,-2.6386,-2.6386,-2.6386,-2.6386,-2.6386,-2.6386,-2.6386,-2.6386,-2.6386,-2.6386,-2.6386,-2.6386,-2.6386,-2.6386,-2.6386,-2.6386,-2.6386,-2.6386,-2.6386,-2.6386,-2.6386,-2.6386,-2.6386,-2.5919,-2.5518,-2.5518,-2.5024,-2.4636,-2.4636,-2.4636,-2.4636,-2.4636,-2.4636,-2.4636,-2.4636,-2.4636,-2.4636,-2.4636,-2.4636,-2.4636,-2.4636,-2.4636,-2.4636,-2.4636,-2.4636,-2.4636,-2.4636,-2.246,-2.0343,-1.8134,-1.5958,-1.4186,-1.296,-1.3943,-1.4432,0.0,0.0,-2.3968,-2.4502,-2.4636,0.0,-2.4636,-2.4636,-2.4636,-2.4636,-2.4636,-2.4636,-2.4636,-2.4636,-2.4636,-2.4636,-2.4636,-2.4636,-2.4636,-2.4596,-2.4583,-2.4549,-2.4596,-2.4583,-2.4636,-2.4253,-2.2732,-1.9403,-1.8497,-1.6599,-1.3182,-1.2656,-1.2501,-1.2501,-1.2501,-1.2501,-1.2501,-1.2501,-1.4552,-1.8572,-1.895,-2.0005,-2.1601,-2.1216,-2.2211,-2.4105,-2.4105,-2.4253,-2.4636,-2.4636,-2.4636,-2.4663,-2.497,-2.5251,-2.5545,-2.5852,-2.6146,-2.6386,-2.6386,-2.6386,-2.6386,-2.6386,-2.6386,-2.6386,-2.6386,-2.6386,-2.6386,-2.6386,-2.6386,-2.6386,-2.6386,-2.6386,-2.6386,-2.6386,-2.6386,-2.6386,-2.6386,-2.6386,-2.6386,-2.6386,-2.5919,-2.5478,-2.5371,-2.4957,-2.4636,-2.4636,-2.4636,-2.4636,-2.4636,-2.4636,-2.4636,-2.4636,-2.4636,-2.4636,-2.4636,-2.4636,-2.4636,-2.4636,-2.4636,-2.4636,-2.4636,-2.4636,-2.4636,-2.4636,-2.2117,-1.9932,-1.8061,-1.556,-1.4153,-1.3943,-1.4219,-1.4432,0.0,0.0,-2.4222,0.0,-2.4636,-2.4636,0.0,0.0,-2.4636,0.0,-2.4636,-2.4636,-2.4636,-2.4636,-2.4636,-2.4636,-2.4636,-2.4636,-2.4636,-2.4422,-2.4356,-2.4609,-2.4409,-2.4356,-2.4609,-2.3042,-2.1751,-2.1216,-1.7891,-1.5693,-1.5157,-1.3414,-1.2501,-1.2501,-1.2501,-1.2501,-1.2501,-1.2501,-1.4552,-1.8648,-2.0391,-2.1365,-2.1527,-1.9779,-2.008,-2.1975,-2.1975,-2.2967,-2.4636,-2.4636,-2.4636,-2.4663,-2.497,-2.5251,-2.5545,-2.5852,-2.6146,-2.6386,-2.6386,-2.6386,-2.6386,-2.6386,-2.6386,-2.6386,-2.6386,-2.6386,-2.6386,-2.6386,-2.6386,-2.6386,-2.6386,-2.6386,-2.6386,-2.6386,-2.6386,-2.6386,-2.6386,-2.6386,-2.6386,-2.6386,-2.5919,-2.5358,-2.4836,-2.469,-2.4636,-2.4636,-2.4636,-2.4636,-2.4636,-2.4636,-2.4636,-2.4636,-2.4636,-2.4636,-2.4636,-2.4636,-2.4636,-2.4636,-2.4636,-2.4636,-2.4636,-2.4636,-2.4636,-2.4636,-2.0608,-1.8383,-1.8061,-1.4002,-1.1993,-1.2043,-1.3658,-1.4432,-2.3808,-2.3981,-2.4275,0.0,-2.4636,-2.4636,-2.4636,-2.4636,-2.4636,-2.4636,-2.4636,-2.4636,-2.4636,-2.4636,-2.4636,-2.4636,-2.4502,-2.4396,-2.4396,-2.4142,-2.4008,-2.4142,-2.4035,-2.4075,-2.4369,-2.3564,-2.2645,-2.1664,-1.993,-1.8411,-1.7284,-1.531,-1.4176,-1.4176,-1.3112,-1.2501,-1.2501,-1.2501,-1.4552,-1.8648,-1.9478,-1.993,-1.9854,-1.7815,-1.8572,-2.1601,-2.1601,-2.2732,-2.4636,-2.4636,-2.4636,-2.4576,-2.4783,-2.501,-2.5304,-2.5598,-2.5892,-2.6172,-2.6333,-2.6386,-2.6386,-2.6386,-2.6386,-2.6386,-2.6386,-2.6386,-2.6386,-2.6386,-2.5489,-2.484,-2.607,-2.5489,-2.484,-2.6149,-2.6386,-2.6386,-2.6386,-2.6386,-2.6293,-2.5959,-2.5558,-2.513,-2.4716,-2.4636,-2.4636,-2.4636,-2.4636,-2.4636,-2.4636,-2.4636,-2.4636,-2.4636,-2.4636,-2.4636,-2.4636,-2.4636,-2.4636,-2.4636,-2.4636,-2.4636,-2.4636,-2.4636,-2.4636,-2.4636,-2.0354,-1.8134,-1.8061,-1.377,-1.2115,-1.3167,-1.296,-1.3381,0.0,0.0,-2.4062,-2.4436,-2.4529,-2.4543,0.0,0.0,-2.4636,-2.4636,-2.4636,-2.4636,-2.4636,-2.4636,-2.4636,-2.4636,-2.4396,-2.4209,-2.4209,-2.3888,-2.3688,-2.3768,-2.3701,-2.3768,-2.4062,-2.4155,-2.3692,-2.2399,-2.1864,-2.0916,-1.9403,-1.6904,-1.5463,-1.5463,-1.3568,-1.2501,-1.2501,-1.3035,-1.5089,-1.8572,-1.8042,-1.8118,-1.8497,-1.5922,-1.6675,-2.008,-2.0617,-2.1975,-2.387,-2.4414,-2.4636,-2.4636,-2.4636,-2.4823,-2.5104,-2.5317,-2.5638,-2.6063,-2.6199,-2.6333,-2.6386,-2.6386,-2.6386,-2.6386,-2.6386,-2.6386,-2.6386,-2.6386,-2.484,-2.362,-2.5819,-2.4761,-2.3632,-2.5898,-2.6386,-2.6386,-2.6386,-2.6333,-2.6132,-2.5611,-2.5277,-2.4983,-2.469,-2.4636,-2.4636,-2.4636,-2.4636,-2.4636,-2.4636,-2.4636,-2.4636,-2.4636,-2.4636,-2.4636,-2.4636,-2.4636,-2.4636,-2.4636,-2.4636,-2.4636,-2.4636,-2.4636,-2.4636,-2.4636,-2.0354,-1.8134,-1.8061,-1.4194,-1.2817,-1.3658,-1.2252,-1.2323,0.0,-2.3581,0.0,-2.4088,-2.4222,0.0,0.0,0.0,-2.4636,-2.4636,-2.4636,-2.4636,-2.4636,-2.4636,-2.4636,-2.4636,-2.4396,-2.4209,-2.4209,-2.3714,-2.346,-2.3741,-2.3527,-2.3474,-2.3768,-2.4035,-2.4136,-2.4077,-2.2522,-2.1527,-2.1452,-1.7663,-1.5463,-1.5463,-1.3568,-1.2501,-1.2501,-1.4406,-1.6447,-1.8572,-1.6599,-1.6675,-1.8497,-1.4475,-1.3791,-1.5922,-1.7891,-1.993,-2.19,-2.3796,-2.4636,-2.4636,-2.4636,-2.4823,-2.5077,-2.5104,-2.5464,-2.6037,-2.605,-2.6159,-2.6386,-2.6386,-2.6386,-2.6386,-2.6386,-2.6386,-2.6386,-2.6386,-2.484,-2.362,-2.5819,-2.4761,-2.3632,-2.5898,-2.6386,-2.6386,-2.6386,-2.6172,-2.5892,-2.5571,-2.5277,-2.4983,-2.469,-2.4636,-2.4636,-2.4636,-2.4636,-2.4636,-2.4636,-2.4636,-2.4636,-2.4636,-2.4636,-2.4636,-2.4636,-2.4636,-2.4636,-2.4636,-2.4636,-2.4636,-2.4636,-2.4636,-2.4636,-2.4636,-2.0354,-1.8134,-1.8061,-1.5543,-1.3381,-1.1763,-1.1619,-1.1619,0.0,0.0,0.0,-2.3821,-2.4062,-2.4235,-2.4329,-2.4502,-2.4636,-2.4636,-2.4636,-2.4636,-2.4636,-2.4636,-2.4569,-2.4382,-2.4115,-2.3861,-2.3661,-2.3287,-2.3073,-2.3249,-2.31,-2.3153,-2.346,-2.3754,-2.3995,-2.4195,-2.3788,-2.2967,-2.1676,-1.9025,-1.6904,-1.554,-1.3568,-1.2501,-1.2501,-1.3182,-1.4629,-1.6599,-1.5845,-1.5922,-1.6523,-1.5081,-1.4099,-1.3791,-1.7132,-1.9704,-2.1751,-2.3796,-2.4636,-2.4636,-2.4636,-2.4703,-2.4823,-2.501,-2.5211,-2.5451,-2.5903,-2.6026,-2.6146,-2.6333,-2.6386,-2.6386,-2.6386,-2.6386,-2.607,-2.4681,-2.274,-2.12,-2.2006,-2.1603,-2.1925,-2.5581,-2.6386,-2.6386,-2.6386,-2.6012,-2.5638,-2.5531,-2.5117,-2.4756,-2.4649,-2.4636,-2.4636,-2.4636,-2.4636,-2.4636,-2.4636,-2.4636,-2.4636,-2.4636,-2.4636,-2.4636,-2.4636,-2.4636,-2.4636,-2.4636,-2.4636,-2.4636,-2.4636,-2.4636,-2.4031,-2.2732,-2.0955,-1.9449,-1.8061,-1.4402,-1.2252,-1.1619,-1.1619,-1.1619,-2.3407,0.0,0.0,0.0,0.0,-2.3968,-2.4155,-2.4356,-2.4516,-2.4609,-2.4636,-2.4636,-2.4636,-2.4636,-2.4543,-2.4249,-2.3955,-2.3661,-2.3367,-2.306,-2.2928,-2.2928,-2.2928,-2.2939,-2.3153,-2.3541,-2.3848,-2.4048,-2.4422,-2.4031,-2.2657,-2.008,-1.736,-1.4552,-1.3182,-1.2501,-1.2501,-1.2501,-1.3491,-1.5463,-1.5463,-1.5463,-1.5463,-1.5463,-1.4399,-1.2733,-1.6828,-1.9327,-2.0767,-2.35,-2.4636,-2.4636,-2.4636,-2.4636,-2.4663,-2.4863,-2.4997,-2.513,-2.5531,-2.5732,-2.5852,-2.6146,-2.6239,-2.6095,-2.5463,-2.533,-2.484,-2.2659,-2.0463,-1.8933,-1.9745,-2.0393,-2.1925,-2.5502,-2.6386,-2.6386,-2.6386,-2.5932,-2.5518,-2.5518,-2.5037,-2.4636,-2.4636,-2.4636,-2.4636,-2.4636,-2.4636,-2.4636,-2.4636,-2.4636,-2.4636,-2.4636,-2.4636,-2.4636,-2.4636,-2.4636,-2.4636,-2.4636,-2.4636,-2.4636,-2.4636,-2.4636,-2.3648,-2.1676,-2.0666,-1.9169,-1.7112,-1.4107,-1.2309,-1.1619,-1.1619,-1.1619,0.0,0.0,0.0,0.0,0.0,0.0,-2.4048,0.0,-2.4275,-2.4569,-2.4623,-2.4623,-2.4636,-2.4636,-2.4543,-2.4249,-2.3955,-2.3661,-2.3367,-2.306,-2.2928,-2.2928,-2.2928,-2.2928,-2.2928,-2.342,-2.3768,-2.3768,-2.4302,-2.4562,-2.4488,-2.0692,-1.6675,-1.2656,-1.2501,-1.2501,-1.2501,-1.2501,-1.3491,-1.5387,-1.5463,-1.5463,-1.5387,-1.5463,-1.4399,-1.2733,-1.6751,-1.8572,-1.8874,-2.2967,-2.4636,-2.4636,-2.4636,-2.4636,-2.4636,-2.4636,-2.4823,-2.5064,-2.5077,-2.5264,-2.5545,-2.5852,-2.5945,-2.5531,-2.3695,-2.3048,-2.2568,-2.0393,-1.8281,-1.7057,-1.9258,-2.1362,-2.354,-2.5819,-2.6386,-2.6386,-2.6386,-2.5932,-2.5518,-2.5518,-2.505,-2.4649,-2.4636,-2.4636,-2.4636,-2.4636,-2.4636,-2.4636,-2.4636,-2.4636,-2.4636,-2.4636,-2.4636,-2.4636,-2.4636,-2.4636,-2.4636,-2.4636,-2.4636,-2.4636,-2.4636,-2.4636,-2.3648,-2.1527,-1.9393,-1.724,-1.499,-1.4731,-1.3553,-1.1619,-1.1619,-1.1619,-2.3073,0.0,0.0,0.0,0.0,0.0,-2.3527,0.0,-2.3968,-2.4262,-2.4329,-2.4382,-2.4596,-2.4636,-2.4543,-2.4249,-2.3955,-2.3661,-2.3367,-2.306,-2.2928,-2.2928,-2.2928,-2.2928,-2.2928,-2.342,-2.3768,-2.3768,-2.4302,-2.3957,-2.2509,-1.8572,-1.5157,-1.2579,-1.2501,-1.2501,-1.2501,-1.2501,-1.2811,-1.3337,-1.4782,-1.4705,-1.3414,-1.4859,-1.4399,-1.2656,-1.5234,-1.7208,-1.8874,-2.2967,-2.4636,-2.4636,-2.4636,-2.4636,-2.4636,-2.4636,-2.469,-2.4796,-2.501,-2.513,-2.5251,-2.5545,-2.4752,-2.3484,-2.3005,-2.1871,-2.0312,-1.8109,-1.7057,-1.6729,-1.7384,-1.9167,-2.1362,-2.346,-2.5251,-2.6386,-2.6386,-2.5932,-2.5518,-2.5518,-2.5211,-2.489,-2.4676,-2.4636,-2.4636,-2.4636,-2.4636,-2.4636,-2.4636,-2.4636,-2.4636,-2.4636,-2.4636,-2.4636,-2.4636,-2.4636,-2.4636,-2.4636,-2.4636,-2.4636,-2.4636,-2.4636,-2.2967,-1.9478,-1.8813,-1.6655,-1.2947,-1.2706,-1.2264,-1.1619,-1.1619,-1.1619,-2.2953,-2.2928,0.0,-2.2928,0.0,0.0,-2.3447,-2.3647,-2.3888,-2.4302,-2.4382,-2.4436,-2.4609,-2.4636,-2.4583,-2.4409,-2.4142,-2.3848,-2.3554,-2.3354,-2.3316,-2.3316,-2.3316,-2.3316,-2.3316,-2.3674,-2.3955,-2.3955,-2.4382,-2.3339,-2.0542,-1.8118,-1.5463,-1.2579,-1.2501,-1.2501,-1.2501,-1.2501,-1.2501,-1.2501,-1.4552,-1.4475,-1.2579,-1.4552,-1.4399,-1.2579,-1.4629,-1.6218,-1.7588,-2.0767,-2.3116,-2.4636,-2.4636,-2.4636,-2.4636,-2.4636,-2.4636,-2.4663,-2.4836,-2.489,-2.4943,-2.5237,-2.4035,-2.2292,-2.1458,-1.9912,-1.7989,-1.5812,-1.5213,-1.5432,-1.6401,-1.7547,-1.9085,-2.1281,-2.274,-2.3952,-2.484,-2.4657,-2.4547,-2.5378,-2.5184,-2.4836,-2.4663,-2.4636,-2.4636,-2.4636,-2.4636,-2.4636,-2.4636,-2.4636,-2.4636,-2.4636,-2.4636,-2.4636,-2.4636,-2.4636,-2.4636,-2.4636,-2.4636,-2.4636,-2.4636,-2.3796,-2.1826,-1.8648,-1.7739,-1.5589,-1.2135,-1.1972,-1.1823,-1.1619,-1.1619,-1.1619,-2.2953,-2.2928,0.0,-2.2928,-2.2928,0.0,-2.3541,-2.3674,-2.3821,-2.4382,-2.4489,-2.4502,-2.4529,-2.4543,-2.4543,-2.4543,-2.4356,-2.4115,-2.3848,-2.3794,-2.3768,-2.3768,-2.3768,-2.3768,-2.3768,-2.4035,-2.4209,-2.4209,-2.4476,-2.2967,-1.9176,-1.8723,-1.6828,-1.2958,-1.2656,-1.2501,-1.2501,-1.2501,-1.2501,-1.2501,-1.433,-1.4253,-1.2579,-1.433,-1.4176,-1.2579,-1.4406,-1.531,-1.5616,-1.7512,-2.0617,-2.4253,-2.4253,-2.4401,-2.4636,-2.4636,-2.4636,-2.4636,-2.4636,-2.4636,-2.4602,-2.4706,-2.3342,-2.1326,-1.9372,-1.7542,-1.5635,-1.3729,-1.3281,-1.3811,-1.5753,-1.6401,-1.7138,-1.9095,-1.9745,-2.0393,-2.2327,-2.2679,-2.3128,-2.4854,-2.4913,-2.4676,-2.4649,-2.4636,-2.4636,-2.4636,-2.4636,-2.4636,-2.4636,-2.4636,-2.4636,-2.4636,-2.4636,-2.4636,-2.4636,-2.4636,-2.4636,-2.4636,-2.4636,-2.4636,-2.4636,-2.2657,-2.0617,-1.8648,-1.6353,-1.415,-1.2088,-1.2054,-1.1891,-1.1619,-1.1619,-1.1619,-2.2953,-2.2928,-2.2928,-2.2928,-2.2928,0.0,-2.3075,-2.3115,-2.314,-2.35,-2.3581,-2.3661,-2.3901,-2.3941,-2.3941,-2.3941,-2.4088,-2.4182,-2.4128,-2.3915,-2.3768,-2.3768,-2.3768,-2.3768,-2.3768,-2.4035,-2.4209,-2.4209,-2.4476,-2.3574,-2.1141,-1.9478,-1.7436,-1.5012,-1.3337,-1.2501,-1.2501,-1.2501,-1.2501,-1.2501,-1.2881,-1.2881,-1.2501,-1.2881,-1.2881,-1.2501,-1.2881,-1.4022,-1.554,-1.5922,-1.8497,-2.2198,-2.2198,-2.319,-2.4636,-2.4636,-2.4636,-2.4636,-2.4636,-2.4636,-2.4341,-2.2794,-2.0981,-1.907,-1.7107,-1.5153,-1.358,-1.3301,-1.3281,-1.348,-1.3887,-1.535,-1.6729,-1.7138,-1.8598,-1.9988,-2.0393,-2.1501,-2.2513,-2.2853,-2.4074,-2.4917,-2.4676,-2.4636,-2.4636,-2.4636,-2.4636,-2.4636,-2.4636,-2.4636,-2.4636,-2.4636,-2.4636,-2.4636,-2.4636,-2.4636,-2.4636,-2.4636,-2.4636,-2.4636,-2.4636,-2.2657,-2.0617,-1.8648,-1.4873,-1.2678,-1.2244,-1.1999,-1.1789,-1.1619,-1.1619,-1.1619,-2.2953,-2.2928,-2.2928,-2.2928,-2.2928,0.0,0.0,-2.31,-2.318,-2.3487,-2.3554,-2.3594,-2.3741,-2.3768,-2.3768,-2.3768,-2.4022,-2.4155,-2.4008,-2.4115,-2.4209,-2.4209,-2.4209,-2.4209,-2.4209,-2.4329,-2.4422,-2.4422,-2.4556,-2.3722,-2.1676,-1.9704,-1.7663,-1.554,-1.3568,-1.2501,-1.2501,-1.2501,-1.2501,-1.2501,-1.2501,-1.2501,-1.2501,-1.2501,-1.2501,-1.2501,-1.2501,-1.3035,-1.4022,-1.4022,-1.5769,-1.8789,-2.0767,-2.2211,-2.319,-2.4253,-2.3957,-2.3264,-2.4253,-2.3957,-2.2967,-2.19,-1.9563,-1.6983,-1.5992,-1.4352,-1.2895,-1.3112,-1.3227,-1.3302,-1.3383,-1.4217,-1.5028,-1.5028,-1.5843,-1.6983,-1.8037,-1.9543,-2.0957,-2.2067,-2.3694,-2.481,-2.4663,-2.4636,-2.4636,-2.4636,-2.4636,-2.4636,-2.4636,-2.4636,-2.4636,-2.4636,-2.4636,-2.4636,-2.4636,-2.4636,-2.4636,-2.4636,-2.4636,-2.4179,-2.3116,-2.1141,-1.8648,-1.5616,-1.3494,-1.2359,-1.2291,-1.2135,-1.1945,-1.1721,-1.1653,-1.1619,-2.2966,-2.2928,-2.2928,-2.2928,-2.2928,-2.2926,0.0,0.0,0.0,-2.3541,-2.3594,-2.3594,0.0,0.0,-2.3581,-2.3514,-2.3808,-2.3928,-2.3634,-2.4102,-2.4476,-2.4476,-2.4569,-2.4609,-2.4556,-2.4556,-2.4569,-2.4636,-2.4583,-2.3819,-2.2273,-1.993,-1.7815,-1.6142,-1.3799,-1.2501,-1.2501,-1.2501,-1.2501,-1.2501,-1.2501,-1.2501,-1.2501,-1.2501,-1.2501,-1.2501,-1.2501,-1.2501,-1.2501,-1.2881,-1.4022,-1.5845,-1.9176,-2.0692,-2.1291,-2.3264,-2.2967,-2.1826,-2.3487,-2.2967,-2.144,-2.0692,-1.7957,-1.4935,-1.4935,-1.3911,-1.2779,-1.3024,-1.3125,-1.32,-1.3322,-1.3376,-1.3403,-1.3403,-1.3403,-1.388,-1.5549,-1.728,-1.8974,-2.0747,-2.2688,-2.4179,-2.4562,-2.4636,-2.4636,-2.4636,-2.4636,-2.4636,-2.4636,-2.4636,-2.4636,-2.4636,-2.4636,-2.4636,-2.4636,-2.4636,-2.4636,-2.4636,-2.4636,-2.3722,-2.1676,-1.9252,-1.6303,-1.2579,-1.2501,-1.2447,-1.2332,-1.2305,-1.2128,-1.183,-1.1714,-1.1647,-2.302,-2.2928,-2.2928,-2.2928,-2.2928,-2.2941,-2.2913,0.0,-2.2995,-2.2966,0.0,-2.3035,-2.3035,0.0,0.0,-2.2619,-2.3046,-2.3313,-2.3006,-2.3487,-2.3875,-2.3875,-2.4329,-2.4529,-2.4275,-2.4249,-2.4356,-2.4549,-2.4396,-2.4209,-2.424,-2.0692,-1.8497,-1.827,-1.4475,-1.2501,-1.2501,-1.2501,-1.2501,-1.2501,-1.2501,-1.2501,-1.2501,-1.2501,-1.2501,-1.2501,-1.2501,-1.2501,-1.2656,-1.4399,-1.531,-1.554,-1.5998,-1.7284,-1.9176,-2.1216,-2.1826,-2.1601,-2.1826,-2.1826,-2.0991,-1.736,-1.4705,-1.2804,-1.2804,-1.2759,-1.2739,-1.2773,-1.2969,-1.3173,-1.3193,-1.3302,-1.3403,-1.3403,-1.3403,-1.3445,-1.3547,-1.5048,-1.6354,-1.6511,-1.943,-2.2509,-2.4253,-2.4636,-2.4636,-2.4636,-2.4636,-2.4636,-2.4636,-2.4636,-2.4636,-2.4636,-2.4636,-2.4636,-2.4636,-2.4636,-2.4636,-2.4636,-2.4636,-2.3722,-2.1676,-1.7891,-1.4782,-1.2579,-1.2501,-1.2494,-1.2474,-1.2352,-1.2128,-1.183,-1.1816,-1.1742,-2.2979,-2.2993,-2.3086,-2.2913,-2.2993,-2.3086,-2.2968,-2.2928,-2.2928,-2.2928,0.0,0.0,0.0,0.0,0.0,0.0,-2.3046,-2.322,-2.2968,-2.338,-2.3768,-2.3768,-2.3981,-2.4155,-2.4195,-2.4209,-2.4329,-2.4609,-2.4369,-2.4329,-2.4623,-2.0767,-1.8572,-1.8572,-1.4629,-1.2501,-1.2501,-1.2501,-1.2501,-1.2501,-1.2501,-1.2501,-1.2501,-1.2501,-1.2501,-1.2501,-1.2501,-1.319,-1.433,-1.5157,-1.6218,-1.7284,-1.7284,-1.7815,-1.8723,-1.9553,-1.9854,-1.9854,-1.9854,-1.9101,-1.7588,-1.4705,-1.319,-1.2501,-1.2501,-1.2549,-1.2617,-1.2705,-1.282,-1.2935,-1.3024,-1.3098,-1.3146,-1.3146,-1.3146,-1.3125,-1.3064,-1.4582,-1.6225,-1.7303,-1.9724,-2.2211,-2.4253,-2.4636,-2.4636,-2.4636,-2.4636,-2.4636,-2.4636,-2.4636,-2.4636,-2.4636,-2.4636,-2.4636,-2.4636,-2.4636,-2.4636,-2.4636,-2.2434,-2.023,-1.8118,-1.531,-1.3337,-1.2501,-1.2501,-1.2501,-1.2501,-1.244,-1.2305,-1.2094,-1.1911,-1.1755,-2.31,-2.3153,-2.3247,-2.2939,-2.3033,-2.314,-2.2913,-2.2928,-2.2928,-2.2928,-2.2928,0.0,0.0,0.0,-2.2832,0.0,0.0,-2.31,-2.2779,-2.3193,-2.3514,-2.3514,-2.3594,-2.3768,-2.4062,-2.4008,-2.4115,-2.4489,-2.4249,-2.4017,-2.3783,-2.0466,-1.8345,-1.7739,-1.433,-1.2501,-1.2501,-1.2501,-1.2501,-1.2501,-1.2501,-1.2501,-1.2501,-1.2501,-1.2501,-1.2501,-1.2501,-1.3337,-1.4782,-1.5922,-1.6904,-1.7891,-1.895,-1.9403,-1.9403,-1.9403,-1.9403,-1.9403,-1.9403,-1.7739,-1.5157,-1.319,-1.2501,-1.2501,-1.2501,-1.2501,-1.2522,-1.2637,-1.2698,-1.2759,-1.2868,-1.2929,-1.2963,-1.2963,-1.2963,-1.2949,-1.2908,-1.3978,-1.5343,-1.6834,-1.9063,-2.1216,-2.2732,-2.387,-2.4636,-2.4636,-2.4636,-2.4636,-2.4636,-2.4636,-2.4636,-2.4636,-2.4636,-2.4636,-2.4636,-2.4636,-2.4327,-2.3796,-2.0542,-1.7663,-1.5616,-1.3568,-1.2501,-1.2501,-1.2501,-1.2501,-1.2501,-1.2501,-1.2427,-1.2284,-1.202,-1.1816,-2.3474,-2.3313,-2.3247,-2.2939,-2.2941,-2.2941,-2.2928,-2.2928,-2.2928,-2.2928,-2.2928,-2.2928,-2.2928,-2.2928,0.0,0.0,0.0,0.0,0.0,-2.2699,-2.2954,-2.2954,-2.3153,-2.346,-2.3754,-2.3527,-2.3594,-2.4168,-2.3941,-2.3215,-2.1802,-1.9704,-1.7663,-1.5693,-1.3568,-1.2501,-1.2501,-1.2501,-1.2501,-1.2501,-1.2501,-1.2501,-1.2501,-1.2501,-1.2501,-1.2501,-1.2501,-1.2579,-1.2881,-1.6904,-1.736,-1.5989,-1.993,-2.1527,-2.1527,-2.1527,-2.1527,-2.1527,-2.1527,-1.8874,-1.5157,-1.319,-1.2501,-1.2501,-1.2501,-1.2501,-1.2501,-1.2508,-1.2617,-1.2732,-1.2732,-1.2847,-1.2963,-1.2963,-1.2963,-1.2922,-1.2766,-1.2732,-1.2763,-1.269,-1.5922,-1.8723,-1.8799,-2.2049,-2.4636,-2.4636,-2.4636,-2.4636,-2.4636,-2.4636,-2.4636,-2.4636,-2.4636,-2.4636,-2.4636,-2.4636,-2.3796,-2.1826,-1.9779,-1.7663,-1.5616,-1.3568,-1.2501,-1.2501,-1.2501,-1.2501,-1.2501,-1.2501,-1.2427,-1.2284,-1.2128,-1.1972,-2.3674,-2.3754,-2.3794,-2.33,-2.3313,-2.3354,-2.3021,-2.2928,-2.2928,-2.2928,-2.2928,-2.2928,-2.2928,-2.2928,0.0,0.0,0.0,0.0,0.0,-2.2806,-2.2928,-2.2928,-2.314,-2.3367,-2.3474,-2.3567,-2.3781,-2.4168,-2.2844,-2.191,-2.1653,-1.8421,-1.6218,-1.554,-1.3568,-1.2501,-1.2501,-1.2501,-1.2501,-1.2501,-1.2501,-1.2501,-1.2501,-1.2501,-1.2501,-1.2501,-1.2501,-1.3259,-1.4705,-1.7436,-1.895,-1.9779,-2.2509,-2.3574,-2.3264,-2.0617,-2.0466,-2.144,-2.008,-1.7815,-1.5387,-1.4705,-1.3568,-1.2501,-1.2501,-1.2501,-1.2501,-1.2501,-1.2535,-1.2576,-1.2576,-1.2617,-1.2657,-1.2657,-1.2657,-1.2644,-1.2589,-1.2576,-1.2944,-1.426,-1.6675,-1.9025,-2.0391,-2.2819,-2.4636,-2.4636,-2.4636,-2.4636,-2.4636,-2.4636,-2.4636,-2.4636,-2.4636,-2.4636,-2.4636,-2.3351,-2.1751,-1.9704,-1.7663,-1.5616,-1.3568,-1.2881,-1.2501,-1.2501,-1.2501,-1.2501,-1.2501,-1.2501,-1.2474,-1.2427,-1.2284,-1.2074,-2.3955,-2.4062,-2.4088,-2.3607,-2.3634,-2.3634,-2.314,-2.3033,-2.2993,-2.2954,-2.2928,-2.2928,-2.2928,-2.2928,0.0,0.0,0.0,0.0,0.0,-2.2928,-2.2928,-2.2928,-2.3046,-2.3207,-2.3313,-2.3407,-2.3621,-2.4022,-2.2866,-2.1642,-2.0396,-1.7993,-1.5922,-1.4475,-1.319,-1.2501,-1.2501,-1.2501,-1.2501,-1.2501,-1.2501,-1.2501,-1.2501,-1.2501,-1.2501,-1.2501,-1.2501,-1.3259,-1.4552,-1.6675,-1.827,-1.9704,-2.2434,-2.35,-2.3339,-2.1452,-2.1527,-2.236,-2.0391,-1.8799,-1.7436,-1.5998,-1.4629,-1.3414,-1.2733,-1.2501,-1.2488,-1.244,-1.2461,-1.2488,-1.244,-1.2467,-1.2501,-1.2501,-1.2501,-1.2501,-1.2501,-1.2501,-1.2881,-1.4176,-1.6066,-1.8118,-2.0155,-2.2198,-2.3796,-2.4488,-2.4636,-2.4636,-2.4636,-2.4636,-2.4636,-2.4636,-2.4636,-2.4327,-2.3574,-2.236,-2.0466,-1.7663,-1.6218,-1.4629,-1.2579,-1.2501,-1.2501,-1.2501,-1.2501,-1.2501,-1.2501,-1.2501,-1.2501,-1.2501,-1.2352,-1.2182]}]]